Wetterdaten: Montag, 09.05.2016
Datum Zeit Temp. A. Feuchte A. Luftdruck Regen Wind Richtung Richtung Sonnenschein ET UV Solar Taupunkt Windchill Windben Empfang
09.05.2016 00:00 12,7 C 72 % 1013,3 hPa 0,0 l/m 7,3 km/h (2 Bft) NO 49 0 min 0,000 mm 0,0 UV-I 0 W/m 7,8 C 12,1 C 11,3 km/h (2 Bft) 92,86 %
09.05.2016 00:02 12,6 C 72 % 1013,3 hPa 0,0 l/m 10,5 km/h (2 Bft) N-NO 28 0 min 0,000 mm 0,0 UV-I 0 W/m 7,7 C 10,2 C 16,1 km/h (3 Bft) 100,00 %
09.05.2016 00:03 12,6 C 72 % 1013,3 hPa 0,0 l/m 8,9 km/h (2 Bft) NO 55 0 min 0,000 mm 0,0 UV-I 0 W/m 7,7 C 11,1 C 14,5 km/h (3 Bft) 100,00 %
09.05.2016 00:04 12,6 C 72 % 1013,3 hPa 0,0 l/m 10,5 km/h (2 Bft) O-NO 65 0 min 0,000 mm 0,0 UV-I 0 W/m 7,7 C 10,2 C 16,1 km/h (3 Bft) 100,00 %
09.05.2016 00:05 12,6 C 72 % 1013,3 hPa 0,0 l/m 9,3 km/h (2 Bft) O-NO 72 0 min 0,000 mm 0,0 UV-I 0 W/m 7,7 C 10,8 C 14,5 km/h (3 Bft) 100,00 %
09.05.2016 00:06 12,6 C 72 % 1013,3 hPa 0,0 l/m 10,4 km/h (2 Bft) O-NO 64 0 min 0,000 mm 0,0 UV-I 0 W/m 7,7 C 10,3 C 16,1 km/h (3 Bft) 100,00 %
09.05.2016 00:07 12,6 C 72 % 1013,3 hPa 0,0 l/m 11,3 km/h (2 Bft) O-NO 62 0 min 0,000 mm 0,0 UV-I 0 W/m 7,7 C 9,8 C 16,1 km/h (3 Bft) 100,00 %
09.05.2016 00:08 12,6 C 72 % 1013,3 hPa 0,0 l/m 9,4 km/h (2 Bft) NO 37 0 min 0,000 mm 0,0 UV-I 0 W/m 7,7 C 10,8 C 14,5 km/h (3 Bft) 100,00 %
09.05.2016 00:09 12,5 C 72 % 1013,3 hPa 0,0 l/m 9,3 km/h (2 Bft) O-NO 67 0 min 0,000 mm 0,0 UV-I 0 W/m 7,6 C 10,7 C 17,7 km/h (3 Bft) 100,00 %
09.05.2016 00:10 12,5 C 72 % 1013,3 hPa 0,0 l/m 11,3 km/h (2 Bft) O-NO 64 0 min 0,000 mm 0,0 UV-I 0 W/m 7,6 C 9,7 C 16,1 km/h (3 Bft) 100,00 %
09.05.2016 00:11 12,5 C 72 % 1013,3 hPa 0,0 l/m 10,0 km/h (2 Bft) O-NO 64 0 min 0,000 mm 0,0 UV-I 0 W/m 7,6 C 10,4 C 12,9 km/h (3 Bft) 100,00 %
09.05.2016 00:12 12,5 C 72 % 1013,3 hPa 0,0 l/m 8,9 km/h (2 Bft) O-NO 65 0 min 0,000 mm 0,0 UV-I 0 W/m 7,6 C 11,0 C 12,9 km/h (3 Bft) 100,00 %
09.05.2016 00:13 12,5 C 72 % 1013,3 hPa 0,0 l/m 8,1 km/h (2 Bft) NO 49 0 min 0,000 mm 0,0 UV-I 0 W/m 7,6 C 11,4 C 16,1 km/h (3 Bft) 100,00 %
09.05.2016 00:14 12,5 C 73 % 1013,3 hPa 0,0 l/m 7,8 km/h (2 Bft) O-NO 74 0 min 0,000 mm 0,0 UV-I 0 W/m 7,8 C 11,6 C 9,7 km/h (2 Bft) 100,00 %
09.05.2016 00:15 12,4 C 73 % 1013,2 hPa 0,0 l/m 11,4 km/h (2 Bft) NO 43 0 min 0,000 mm 0,0 UV-I 0 W/m 7,7 C 9,6 C 17,7 km/h (3 Bft) 100,00 %
09.05.2016 00:16 12,4 C 73 % 1013,2 hPa 0,0 l/m 13,3 km/h (3 Bft) NO 42 0 min 0,000 mm 0,0 UV-I 0 W/m 7,7 C 8,7 C 17,7 km/h (3 Bft) 100,00 %
09.05.2016 00:17 12,4 C 73 % 1013,3 hPa 0,0 l/m 11,7 km/h (2 Bft) O-NO 63 0 min 0,000 mm 0,0 UV-I 0 W/m 7,7 C 9,4 C 16,1 km/h (3 Bft) 100,00 %
09.05.2016 00:18 12,4 C 73 % 1013,3 hPa 0,0 l/m 11,4 km/h (2 Bft) O-NO 59 0 min 0,000 mm 0,0 UV-I 0 W/m 7,7 C 9,6 C 16,1 km/h (3 Bft) 100,00 %
09.05.2016 00:19 12,4 C 73 % 1013,2 hPa 0,0 l/m 9,5 km/h (2 Bft) O-NO 63 0 min 0,000 mm 0,0 UV-I 0 W/m 7,7 C 10,5 C 16,1 km/h (3 Bft) 100,00 %
09.05.2016 00:20 12,4 C 73 % 1013,2 hPa 0,0 l/m 9,7 km/h (2 Bft) NO 38 0 min 0,000 mm 0,0 UV-I 0 W/m 7,7 C 10,4 C 14,5 km/h (3 Bft) 100,00 %
09.05.2016 00:21 12,4 C 73 % 1013,3 hPa 0,0 l/m 9,7 km/h (2 Bft) N-NO 24 0 min 0,000 mm 0,0 UV-I 0 W/m 7,7 C 10,4 C 12,9 km/h (3 Bft) 100,00 %
09.05.2016 00:22 12,4 C 73 % 1013,2 hPa 0,0 l/m 9,9 km/h (2 Bft) NO 55 0 min 0,000 mm 0,0 UV-I 0 W/m 7,7 C 10,3 C 16,1 km/h (3 Bft) 100,00 %
09.05.2016 00:23 12,4 C 73 % 1013,2 hPa 0,0 l/m 9,8 km/h (2 Bft) NO 42 0 min 0,000 mm 0,0 UV-I 0 W/m 7,7 C 10,4 C 16,1 km/h (3 Bft) 100,00 %
09.05.2016 00:24 12,4 C 73 % 1013,2 hPa 0,0 l/m 12,6 km/h (3 Bft) O-NO 59 0 min 0,000 mm 0,0 UV-I 0 W/m 7,7 C 9,0 C 17,7 km/h (3 Bft) 100,00 %
09.05.2016 00:25 12,4 C 73 % 1013,2 hPa 0,0 l/m 11,6 km/h (2 Bft) O-NO 60 0 min 0,000 mm 0,0 UV-I 0 W/m 7,7 C 9,5 C 14,5 km/h (3 Bft) 100,00 %
09.05.2016 00:26 12,4 C 73 % 1013,2 hPa 0,0 l/m 10,2 km/h (2 Bft) NO 55 0 min 0,000 mm 0,0 UV-I 0 W/m 7,7 C 10,1 C 14,5 km/h (3 Bft) 100,00 %
09.05.2016 00:27 12,4 C 73 % 1013,2 hPa 0,0 l/m 8,0 km/h (2 Bft) NO 50 0 min 0,000 mm 0,0 UV-I 0 W/m 7,7 C 11,4 C 16,1 km/h (3 Bft) 100,00 %
09.05.2016 00:28 12,3 C 73 % 1013,2 hPa 0,0 l/m 11,4 km/h (2 Bft) NO 51 0 min 0,000 mm 0,0 UV-I 0 W/m 7,6 C 9,4 C 16,1 km/h (3 Bft) 100,00 %
09.05.2016 00:29 12,3 C 73 % 1013,2 hPa 0,0 l/m 9,7 km/h (2 Bft) NO 51 0 min 0,000 mm 0,0 UV-I 0 W/m 7,6 C 10,3 C 16,1 km/h (3 Bft) 100,00 %
09.05.2016 00:30 12,3 C 73 % 1013,2 hPa 0,0 l/m 8,9 km/h (2 Bft) O-NO 60 0 min 0,000 mm 0,0 UV-I 0 W/m 7,6 C 10,7 C 11,3 km/h (2 Bft) 100,00 %
09.05.2016 00:31 12,3 C 73 % 1013,2 hPa 0,0 l/m 10,0 km/h (2 Bft) NO 52 0 min 0,000 mm 0,0 UV-I 0 W/m 7,6 C 10,1 C 14,5 km/h (3 Bft) 100,00 %
09.05.2016 00:32 12,3 C 73 % 1013,2 hPa 0,0 l/m 8,6 km/h (2 Bft) O-NO 58 0 min 0,000 mm 0,0 UV-I 0 W/m 7,6 C 10,9 C 11,3 km/h (2 Bft) 100,00 %
09.05.2016 00:33 12,3 C 73 % 1013,2 hPa 0,0 l/m 7,4 km/h (2 Bft) NO 54 0 min 0,000 mm 0,0 UV-I 0 W/m 7,6 C 11,6 C 11,3 km/h (2 Bft) 100,00 %
09.05.2016 00:34 12,3 C 73 % 1013,2 hPa 0,0 l/m 11,5 km/h (2 Bft) NO 51 0 min 0,000 mm 0,0 UV-I 0 W/m 7,6 C 9,4 C 16,1 km/h (3 Bft) 100,00 %
09.05.2016 00:35 12,2 C 74 % 1013,2 hPa 0,0 l/m 9,7 km/h (2 Bft) O 79 0 min 0,000 mm 0,0 UV-I 0 W/m 7,7 C 10,2 C 14,5 km/h (3 Bft) 100,00 %
09.05.2016 00:36 12,2 C 74 % 1013,2 hPa 0,0 l/m 9,9 km/h (2 Bft) O-NO 63 0 min 0,000 mm 0,0 UV-I 0 W/m 7,7 C 10,1 C 14,5 km/h (3 Bft) 100,00 %
09.05.2016 00:37 12,2 C 74 % 1013,2 hPa 0,0 l/m 11,7 km/h (2 Bft) NO 54 0 min 0,000 mm 0,0 UV-I 0 W/m 7,7 C 9,2 C 16,1 km/h (3 Bft) 100,00 %
09.05.2016 00:38 12,2 C 74 % 1013,2 hPa 0,0 l/m 9,5 km/h (2 Bft) NO 47 0 min 0,000 mm 0,0 UV-I 0 W/m 7,7 C 10,3 C 12,9 km/h (3 Bft) 100,00 %
09.05.2016 00:39 12,2 C 74 % 1013,2 hPa 0,0 l/m 6,9 km/h (2 Bft) NO 50 0 min 0,000 mm 0,0 UV-I 0 W/m 7,7 C 11,9 C 9,7 km/h (2 Bft) 100,00 %
09.05.2016 00:40 12,1 C 74 % 1013,2 hPa 0,0 l/m 8,2 km/h (2 Bft) O-NO 61 0 min 0,000 mm 0,0 UV-I 0 W/m 7,6 C 10,9 C 11,3 km/h (2 Bft) 100,00 %
09.05.2016 00:41 12,1 C 74 % 1013,2 hPa 0,0 l/m 6,1 km/h (2 Bft) O-NO 59 0 min 0,000 mm 0,0 UV-I 0 W/m 7,6 C 12,1 C 8,0 km/h (2 Bft) 100,00 %
09.05.2016 00:42 12,1 C 74 % 1013,2 hPa 0,0 l/m 6,7 km/h (2 Bft) O-NO 63 0 min 0,000 mm 0,0 UV-I 0 W/m 7,6 C 11,9 C 9,7 km/h (2 Bft) 100,00 %
09.05.2016 00:43 12,1 C 74 % 1013,2 hPa 0,0 l/m 7,2 km/h (2 Bft) O-NO 65 0 min 0,000 mm 0,0 UV-I 0 W/m 7,6 C 11,6 C 9,7 km/h (2 Bft) 100,00 %
09.05.2016 00:44 12,1 C 74 % 1013,2 hPa 0,0 l/m 7,5 km/h (2 Bft) NO 39 0 min 0,000 mm 0,0 UV-I 0 W/m 7,6 C 11,4 C 8,0 km/h (2 Bft) 100,00 %
09.05.2016 00:45 12,0 C 75 % 1013,2 hPa 0,0 l/m 7,0 km/h (2 Bft) NO 35 0 min 0,000 mm 0,0 UV-I 0 W/m 7,7 C 11,6 C 9,7 km/h (2 Bft) 100,00 %
09.05.2016 00:46 12,0 C 75 % 1013,2 hPa 0,0 l/m 6,6 km/h (2 Bft) O-NO 67 0 min 0,000 mm 0,0 UV-I 0 W/m 7,7 C 11,9 C 9,7 km/h (2 Bft) 100,00 %
09.05.2016 00:47 11,9 C 75 % 1013,2 hPa 0,0 l/m 7,8 km/h (2 Bft) NO 40 0 min 0,000 mm 0,0 UV-I 0 W/m 7,6 C 11,0 C 12,9 km/h (3 Bft) 95,65 %
09.05.2016 00:48 11,9 C 75 % 1013,2 hPa 0,0 l/m 8,9 km/h (2 Bft) NO 51 0 min 0,000 mm 0,0 UV-I 0 W/m 7,6 C 10,3 C 12,9 km/h (3 Bft) 100,00 %
09.05.2016 00:49 11,9 C 75 % 1013,2 hPa 0,0 l/m 6,2 km/h (2 Bft) NO 55 0 min 0,000 mm 0,0 UV-I 0 W/m 7,6 C 11,9 C 9,7 km/h (2 Bft) 100,00 %
09.05.2016 00:50 11,9 C 75 % 1013,2 hPa 0,0 l/m 7,5 km/h (2 Bft) NO 55 0 min 0,000 mm 0,0 UV-I 0 W/m 7,6 C 11,2 C 9,7 km/h (2 Bft) 100,00 %
09.05.2016 00:51 11,9 C 75 % 1013,2 hPa 0,0 l/m 8,0 km/h (2 Bft) NO 51 0 min 0,000 mm 0,0 UV-I 0 W/m 7,6 C 10,8 C 12,9 km/h (3 Bft) 100,00 %
09.05.2016 00:52 11,9 C 75 % 1013,2 hPa 0,0 l/m 8,5 km/h (2 Bft) NO 51 0 min 0,000 mm 0,0 UV-I 0 W/m 7,6 C 10,5 C 12,9 km/h (3 Bft) 100,00 %
09.05.2016 00:53 11,9 C 75 % 1013,2 hPa 0,0 l/m 9,5 km/h (2 Bft) O-NO 65 0 min 0,000 mm 0,0 UV-I 0 W/m 7,6 C 10,0 C 14,5 km/h (3 Bft) 95,65 %
09.05.2016 00:54 11,8 C 75 % 1013,2 hPa 0,0 l/m 8,8 km/h (2 Bft) O-NO 62 0 min 0,000 mm 0,0 UV-I 0 W/m 7,5 C 10,3 C 12,9 km/h (3 Bft) 100,00 %
09.05.2016 00:55 11,8 C 75 % 1013,2 hPa 0,0 l/m 8,4 km/h (2 Bft) NO 44 0 min 0,000 mm 0,0 UV-I 0 W/m 7,5 C 10,5 C 11,3 km/h (2 Bft) 100,00 %
09.05.2016 00:56 11,8 C 75 % 1013,2 hPa 0,0 l/m 9,7 km/h (2 Bft) O-NO 69 0 min 0,000 mm 0,0 UV-I 0 W/m 7,5 C 9,7 C 14,5 km/h (3 Bft) 100,00 %
09.05.2016 00:57 11,8 C 75 % 1013,2 hPa 0,0 l/m 8,7 km/h (2 Bft) O-NO 63 0 min 0,000 mm 0,0 UV-I 0 W/m 7,5 C 10,3 C 12,9 km/h (3 Bft) 100,00 %
09.05.2016 00:58 11,8 C 75 % 1013,2 hPa 0,0 l/m 9,7 km/h (2 Bft) NO 48 0 min 0,000 mm 0,0 UV-I 0 W/m 7,5 C 9,7 C 12,9 km/h (3 Bft) 100,00 %
09.05.2016 00:59 11,8 C 75 % 1013,2 hPa 0,0 l/m 8,5 km/h (2 Bft) O-NO 60 0 min 0,000 mm 0,0 UV-I 0 W/m 7,5 C 10,4 C 16,1 km/h (3 Bft) 100,00 %
09.05.2016 01:00 11,8 C 75 % 1013,2 hPa 0,0 l/m 12,2 km/h (2 Bft) NO 47 0 min 0,025 mm 0,0 UV-I 0 W/m 7,5 C 8,5 C 14,5 km/h (3 Bft) 100,00 %
09.05.2016 01:01 11,8 C 75 % 1013,1 hPa 0,0 l/m 12,1 km/h (2 Bft) O-NO 67 0 min 0,000 mm 0,0 UV-I 0 W/m 7,5 C 8,5 C 14,5 km/h (3 Bft) 100,00 %
09.05.2016 01:02 11,8 C 75 % 1013,2 hPa 0,0 l/m 8,9 km/h (2 Bft) O-NO 67 0 min 0,000 mm 0,0 UV-I 0 W/m 7,5 C 10,2 C 11,3 km/h (2 Bft) 100,00 %
09.05.2016 01:03 11,8 C 75 % 1013,2 hPa 0,0 l/m 9,7 km/h (2 Bft) O-NO 78 0 min 0,000 mm 0,0 UV-I 0 W/m 7,5 C 9,7 C 14,5 km/h (3 Bft) 100,00 %
09.05.2016 01:04 11,8 C 75 % 1013,2 hPa 0,0 l/m 8,9 km/h (2 Bft) NO 53 0 min 0,000 mm 0,0 UV-I 0 W/m 7,5 C 10,2 C 12,9 km/h (3 Bft) 100,00 %
09.05.2016 01:05 11,8 C 76 % 1013,2 hPa 0,0 l/m 8,7 km/h (2 Bft) NO 55 0 min 0,000 mm 0,0 UV-I 0 W/m 7,7 C 10,3 C 12,9 km/h (3 Bft) 100,00 %
09.05.2016 01:06 11,8 C 76 % 1013,2 hPa 0,0 l/m 10,0 km/h (2 Bft) O-NO 71 0 min 0,000 mm 0,0 UV-I 0 W/m 7,7 C 9,6 C 14,5 km/h (3 Bft) 100,00 %
09.05.2016 01:07 11,8 C 75 % 1013,1 hPa 0,0 l/m 8,2 km/h (2 Bft) NO 53 0 min 0,000 mm 0,0 UV-I 0 W/m 7,5 C 10,6 C 14,5 km/h (3 Bft) 100,00 %
09.05.2016 01:08 11,8 C 75 % 1013,1 hPa 0,0 l/m 11,3 km/h (2 Bft) NO 43 0 min 0,000 mm 0,0 UV-I 0 W/m 7,5 C 8,9 C 16,1 km/h (3 Bft) 100,00 %
09.05.2016 01:09 11,8 C 75 % 1013,1 hPa 0,0 l/m 10,6 km/h (2 Bft) NO 46 0 min 0,000 mm 0,0 UV-I 0 W/m 7,5 C 9,3 C 16,1 km/h (3 Bft) 100,00 %
09.05.2016 01:10 11,8 C 75 % 1013,1 hPa 0,0 l/m 7,1 km/h (2 Bft) O-NO 63 0 min 0,000 mm 0,0 UV-I 0 W/m 7,5 C 11,3 C 14,5 km/h (3 Bft) 95,65 %
09.05.2016 01:11 11,8 C 76 % 1013,1 hPa 0,0 l/m 10,5 km/h (2 Bft) NO 46 0 min 0,000 mm 0,0 UV-I 0 W/m 7,7 C 9,3 C 14,5 km/h (3 Bft) 100,00 %
09.05.2016 01:12 11,8 C 76 % 1013,0 hPa 0,0 l/m 10,1 km/h (2 Bft) NO 47 0 min 0,000 mm 0,0 UV-I 0 W/m 7,7 C 9,5 C 14,5 km/h (3 Bft) 100,00 %
09.05.2016 01:13 11,8 C 76 % 1013,0 hPa 0,0 l/m 8,6 km/h (2 Bft) NO 55 0 min 0,000 mm 0,0 UV-I 0 W/m 7,7 C 10,4 C 12,9 km/h (3 Bft) 100,00 %
09.05.2016 01:14 11,8 C 76 % 1013,0 hPa 0,0 l/m 9,0 km/h (2 Bft) NO 48 0 min 0,000 mm 0,0 UV-I 0 W/m 7,7 C 10,1 C 12,9 km/h (3 Bft) 100,00 %
09.05.2016 01:15 11,8 C 76 % 1013,0 hPa 0,0 l/m 13,8 km/h (3 Bft) O-NO 74 0 min 0,000 mm 0,0 UV-I 0 W/m 7,7 C 7,8 C 17,7 km/h (3 Bft) 96,67 %
09.05.2016 01:16 11,8 C 76 % 1013,0 hPa 0,0 l/m 10,9 km/h (2 Bft) O-NO 67 0 min 0,000 mm 0,0 UV-I 0 W/m 7,7 C 9,1 C 16,1 km/h (3 Bft) 100,00 %
09.05.2016 01:17 11,8 C 76 % 1013,0 hPa 0,0 l/m 13,8 km/h (3 Bft) N-NO 32 0 min 0,000 mm 0,0 UV-I 0 W/m 7,7 C 7,8 C 17,7 km/h (3 Bft) 100,00 %
09.05.2016 01:18 11,8 C 75 % 1013,0 hPa 0,0 l/m 10,6 km/h (2 Bft) O-NO 73 0 min 0,000 mm 0,0 UV-I 0 W/m 7,5 C 9,3 C 14,5 km/h (3 Bft) 100,00 %
09.05.2016 01:19 11,8 C 75 % 1013,0 hPa 0,0 l/m 13,9 km/h (3 Bft) O-NO 71 0 min 0,000 mm 0,0 UV-I 0 W/m 7,5 C 7,8 C 20,9 km/h (4 Bft) 95,83 %
09.05.2016 01:20 11,8 C 75 % 1013,0 hPa 0,0 l/m 14,6 km/h (3 Bft) O-NO 65 0 min 0,000 mm 0,0 UV-I 0 W/m 7,5 C 7,5 C 19,3 km/h (3 Bft) 96,15 %
09.05.2016 01:21 11,8 C 75 % 1013,0 hPa 0,0 l/m 10,9 km/h (2 Bft) O-NO 66 0 min 0,000 mm 0,0 UV-I 0 W/m 7,5 C 9,1 C 16,1 km/h (3 Bft) 100,00 %
09.05.2016 01:22 11,8 C 75 % 1013,0 hPa 0,0 l/m 11,0 km/h (2 Bft) O-NO 69 0 min 0,000 mm 0,0 UV-I 0 W/m 7,5 C 9,1 C 16,1 km/h (3 Bft) 95,65 %
09.05.2016 01:23 11,8 C 76 % 1013,0 hPa 0,0 l/m 11,3 km/h (2 Bft) NO 48 0 min 0,000 mm 0,0 UV-I 0 W/m 7,7 C 8,9 C 16,1 km/h (3 Bft) 100,00 %
09.05.2016 01:24 11,8 C 76 % 1013,0 hPa 0,0 l/m 12,3 km/h (3 Bft) NO 54 0 min 0,000 mm 0,0 UV-I 0 W/m 7,7 C 8,4 C 16,1 km/h (3 Bft) 96,88 %
09.05.2016 01:25 11,8 C 75 % 1013,0 hPa 0,0 l/m 15,9 km/h (3 Bft) NO 54 0 min 0,000 mm 0,0 UV-I 0 W/m 7,5 C 7,0 C 20,9 km/h (4 Bft) 100,00 %
09.05.2016 01:26 11,8 C 75 % 1013,0 hPa 0,0 l/m 13,2 km/h (3 Bft) NO 51 0 min 0,000 mm 0,0 UV-I 0 W/m 7,5 C 8,1 C 19,3 km/h (3 Bft) 93,33 %
09.05.2016 01:27 11,8 C 75 % 1012,9 hPa 0,0 l/m 13,3 km/h (3 Bft) NO 46 0 min 0,000 mm 0,0 UV-I 0 W/m 7,5 C 8,0 C 17,7 km/h (3 Bft) 100,00 %
09.05.2016 01:28 11,8 C 75 % 1012,9 hPa 0,0 l/m 15,5 km/h (3 Bft) NO 53 0 min 0,000 mm 0,0 UV-I 0 W/m 7,5 C 7,1 C 20,9 km/h (4 Bft) 93,33 %
09.05.2016 01:29 11,8 C 75 % 1012,9 hPa 0,0 l/m 14,6 km/h (3 Bft) NO 53 0 min 0,000 mm 0,0 UV-I 0 W/m 7,5 C 7,5 C 19,3 km/h (3 Bft) 100,00 %
09.05.2016 01:30 11,8 C 75 % 1012,9 hPa 0,0 l/m 14,1 km/h (3 Bft) NO 53 0 min 0,000 mm 0,0 UV-I 0 W/m 7,5 C 7,7 C 19,3 km/h (3 Bft) 96,30 %
09.05.2016 01:31 11,9 C 75 % 1012,9 hPa 0,0 l/m 15,0 km/h (3 Bft) O-NO 67 0 min 0,000 mm 0,0 UV-I 0 W/m 7,6 C 7,4 C 19,3 km/h (3 Bft) 92,86 %
09.05.2016 01:32 11,8 C 75 % 1012,9 hPa 0,0 l/m 15,3 km/h (3 Bft) NO 55 0 min 0,000 mm 0,0 UV-I 0 W/m 7,5 C 7,2 C 19,3 km/h (3 Bft) 95,83 %
09.05.2016 01:33 11,8 C 75 % 1012,9 hPa 0,0 l/m 16,0 km/h (3 Bft) O-NO 61 0 min 0,000 mm 0,0 UV-I 0 W/m 7,5 C 6,9 C 19,3 km/h (3 Bft) 96,15 %
09.05.2016 01:34 11,8 C 75 % 1012,8 hPa 0,0 l/m 12,9 km/h (3 Bft) NO 56 0 min 0,000 mm 0,0 UV-I 0 W/m 7,5 C 8,2 C 17,7 km/h (3 Bft) 100,00 %
09.05.2016 01:35 11,8 C 76 % 1012,8 hPa 0,0 l/m 13,1 km/h (3 Bft) O-NO 61 0 min 0,000 mm 0,0 UV-I 0 W/m 7,7 C 8,1 C 16,1 km/h (3 Bft) 95,65 %
09.05.2016 01:36 11,8 C 76 % 1012,8 hPa 0,0 l/m 14,3 km/h (3 Bft) O-NO 69 0 min 0,000 mm 0,0 UV-I 0 W/m 7,7 C 7,6 C 17,7 km/h (3 Bft) 100,00 %
09.05.2016 01:37 11,8 C 76 % 1012,8 hPa 0,0 l/m 12,7 km/h (3 Bft) O-NO 61 0 min 0,000 mm 0,0 UV-I 0 W/m 7,7 C 8,3 C 17,7 km/h (3 Bft) 96,55 %
09.05.2016 01:38 11,8 C 76 % 1012,8 hPa 0,0 l/m 14,1 km/h (3 Bft) O-NO 65 0 min 0,000 mm 0,0 UV-I 0 W/m 7,7 C 7,7 C 17,7 km/h (3 Bft) 100,00 %
09.05.2016 01:39 11,8 C 76 % 1012,8 hPa 0,0 l/m 14,6 km/h (3 Bft) O-NO 64 0 min 0,000 mm 0,0 UV-I 0 W/m 7,7 C 7,5 C 20,9 km/h (4 Bft) 95,65 %
09.05.2016 01:40 11,7 C 76 % 1012,8 hPa 0,0 l/m 14,4 km/h (3 Bft) NO 40 0 min 0,000 mm 0,0 UV-I 0 W/m 7,6 C 7,4 C 19,3 km/h (3 Bft) 95,83 %
09.05.2016 01:41 11,7 C 76 % 1012,8 hPa 0,0 l/m 15,9 km/h (3 Bft) NO 44 0 min 0,000 mm 0,0 UV-I 0 W/m 7,6 C 6,9 C 20,9 km/h (4 Bft) 92,31 %
09.05.2016 01:42 11,7 C 76 % 1012,8 hPa 0,0 l/m 15,6 km/h (3 Bft) NO 53 0 min 0,000 mm 0,0 UV-I 0 W/m 7,6 C 7,0 C 20,9 km/h (4 Bft) 96,30 %
09.05.2016 01:43 11,7 C 76 % 1012,8 hPa 0,0 l/m 13,9 km/h (3 Bft) O 84 0 min 0,000 mm 0,0 UV-I 0 W/m 7,6 C 7,6 C 17,7 km/h (3 Bft) 100,00 %
09.05.2016 01:44 11,7 C 76 % 1012,7 hPa 0,0 l/m 16,1 km/h (3 Bft) O-NO 66 0 min 0,000 mm 0,0 UV-I 0 W/m 7,6 C 6,8 C 20,9 km/h (4 Bft) 96,55 %
09.05.2016 01:45 11,7 C 76 % 1012,8 hPa 0,0 l/m 10,5 km/h (2 Bft) O-NO 61 0 min 0,000 mm 0,0 UV-I 0 W/m 7,6 C 9,2 C 16,1 km/h (3 Bft) 93,10 %
09.05.2016 01:46 11,7 C 76 % 1012,8 hPa 0,0 l/m 11,5 km/h (2 Bft) O-NO 60 0 min 0,000 mm 0,0 UV-I 0 W/m 7,6 C 8,7 C 14,5 km/h (3 Bft) 100,00 %
09.05.2016 01:47 11,6 C 77 % 1012,7 hPa 0,0 l/m 13,9 km/h (3 Bft) NO 48 0 min 0,000 mm 0,0 UV-I 0 W/m 7,7 C 7,5 C 19,3 km/h (3 Bft) 100,00 %
09.05.2016 01:48 11,6 C 77 % 1012,8 hPa 0,0 l/m 8,8 km/h (2 Bft) O-NO 58 0 min 0,000 mm 0,0 UV-I 0 W/m 7,7 C 10,0 C 12,9 km/h (3 Bft) 81,82 %
09.05.2016 01:49 11,6 C 77 % 1012,7 hPa 0,0 l/m 13,5 km/h (3 Bft) O 81 0 min 0,000 mm 0,0 UV-I 0 W/m 7,7 C 7,7 C 16,1 km/h (3 Bft) 97,73 %
09.05.2016 01:50 11,6 C 77 % 1012,7 hPa 0,0 l/m 11,6 km/h (2 Bft) O-NO 59 0 min 0,000 mm 0,0 UV-I 0 W/m 7,7 C 8,5 C 16,1 km/h (3 Bft) 100,00 %
09.05.2016 01:51 11,6 C 77 % 1012,7 hPa 0,0 l/m 12,7 km/h (3 Bft) O 82 0 min 0,000 mm 0,0 UV-I 0 W/m 7,7 C 8,0 C 16,1 km/h (3 Bft) 100,00 %
09.05.2016 01:52 11,6 C 77 % 1012,7 hPa 0,0 l/m 14,4 km/h (3 Bft) O-NO 57 0 min 0,000 mm 0,0 UV-I 0 W/m 7,7 C 7,3 C 16,1 km/h (3 Bft) 96,15 %
09.05.2016 01:53 11,6 C 77 % 1012,7 hPa 0,0 l/m 11,3 km/h (2 Bft) O-NO 75 0 min 0,000 mm 0,0 UV-I 0 W/m 7,7 C 8,7 C 16,1 km/h (3 Bft) 100,00 %
09.05.2016 01:54 11,6 C 77 % 1012,7 hPa 0,0 l/m 12,7 km/h (3 Bft) NO 50 0 min 0,000 mm 0,0 UV-I 0 W/m 7,7 C 8,0 C 17,7 km/h (3 Bft) 96,55 %
09.05.2016 01:55 11,6 C 77 % 1012,7 hPa 0,0 l/m 12,4 km/h (3 Bft) NO 55 0 min 0,000 mm 0,0 UV-I 0 W/m 7,7 C 8,2 C 17,7 km/h (3 Bft) 100,00 %
09.05.2016 01:56 11,6 C 77 % 1012,7 hPa 0,0 l/m 12,4 km/h (3 Bft) O-NO 59 0 min 0,000 mm 0,0 UV-I 0 W/m 7,7 C 8,2 C 19,3 km/h (3 Bft) 100,00 %
09.05.2016 01:57 11,6 C 77 % 1012,7 hPa 0,0 l/m 12,6 km/h (3 Bft) O-NO 59 0 min 0,000 mm 0,0 UV-I 0 W/m 7,7 C 8,1 C 17,7 km/h (3 Bft) 96,67 %
09.05.2016 01:58 11,6 C 77 % 1012,7 hPa 0,0 l/m 12,5 km/h (3 Bft) O-NO 63 0 min 0,000 mm 0,0 UV-I 0 W/m 7,7 C 8,1 C 17,7 km/h (3 Bft) 100,00 %
09.05.2016 01:59 11,6 C 77 % 1012,7 hPa 0,0 l/m 12,3 km/h (3 Bft) NO 55 0 min 0,000 mm 0,0 UV-I 0 W/m 7,7 C 8,2 C 14,5 km/h (3 Bft) 96,30 %
09.05.2016 02:00 11,6 C 77 % 1012,7 hPa 0,0 l/m 14,3 km/h (3 Bft) O-NO 57 0 min 0,000 mm 0,0 UV-I 0 W/m 7,7 C 7,4 C 17,7 km/h (3 Bft) 100,00 %
09.05.2016 02:02 11,6 C 77 % 1012,6 hPa 0,0 l/m 12,2 km/h (2 Bft) O-NO 64 0 min 0,026 mm 0,0 UV-I 0 W/m 7,7 C 8,3 C 19,3 km/h (3 Bft) 100,00 %
09.05.2016 02:03 11,5 C 77 % 1012,6 hPa 0,0 l/m 14,6 km/h (3 Bft) NO 56 0 min 0,000 mm 0,0 UV-I 0 W/m 7,6 C 7,1 C 20,9 km/h (4 Bft) 100,00 %
09.05.2016 02:04 11,5 C 77 % 1012,7 hPa 0,0 l/m 12,3 km/h (3 Bft) O-NO 68 0 min 0,000 mm 0,0 UV-I 0 W/m 7,6 C 8,1 C 16,1 km/h (3 Bft) 92,31 %
09.05.2016 02:05 11,5 C 77 % 1012,7 hPa 0,0 l/m 14,2 km/h (3 Bft) O-NO 61 0 min 0,000 mm 0,0 UV-I 0 W/m 7,6 C 7,3 C 19,3 km/h (3 Bft) 100,00 %
09.05.2016 02:06 11,5 C 77 % 1012,7 hPa 0,0 l/m 14,7 km/h (3 Bft) O-NO 59 0 min 0,000 mm 0,0 UV-I 0 W/m 7,6 C 7,1 C 20,9 km/h (4 Bft) 100,00 %
09.05.2016 02:07 11,5 C 77 % 1012,7 hPa 0,0 l/m 12,4 km/h (3 Bft) O-NO 73 0 min 0,000 mm 0,0 UV-I 0 W/m 7,6 C 8,1 C 17,7 km/h (3 Bft) 100,00 %
09.05.2016 02:08 11,5 C 77 % 1012,7 hPa 0,0 l/m 13,5 km/h (3 Bft) O-NO 74 0 min 0,000 mm 0,0 UV-I 0 W/m 7,6 C 7,6 C 17,7 km/h (3 Bft) 100,00 %
09.05.2016 02:09 11,4 C 77 % 1012,7 hPa 0,0 l/m 12,7 km/h (3 Bft) O-NO 78 0 min 0,000 mm 0,0 UV-I 0 W/m 7,5 C 7,8 C 16,1 km/h (3 Bft) 100,00 %
09.05.2016 02:10 11,4 C 78 % 1012,7 hPa 0,0 l/m 12,8 km/h (3 Bft) O-NO 60 0 min 0,000 mm 0,0 UV-I 0 W/m 7,7 C 7,8 C 17,7 km/h (3 Bft) 100,00 %
09.05.2016 02:11 11,4 C 78 % 1012,7 hPa 0,0 l/m 12,5 km/h (3 Bft) O-NO 61 0 min 0,000 mm 0,0 UV-I 0 W/m 7,7 C 7,9 C 19,3 km/h (3 Bft) 100,00 %
09.05.2016 02:12 11,4 C 78 % 1012,7 hPa 0,0 l/m 10,7 km/h (2 Bft) O-NO 69 0 min 0,000 mm 0,0 UV-I 0 W/m 7,7 C 8,8 C 16,1 km/h (3 Bft) 100,00 %
09.05.2016 02:13 11,4 C 78 % 1012,7 hPa 0,0 l/m 8,3 km/h (2 Bft) O-NO 65 0 min 0,000 mm 0,0 UV-I 0 W/m 7,7 C 10,1 C 12,9 km/h (3 Bft) 100,00 %
09.05.2016 02:14 11,3 C 78 % 1012,7 hPa 0,0 l/m 10,5 km/h (2 Bft) O-NO 73 0 min 0,000 mm 0,0 UV-I 0 W/m 7,6 C 8,8 C 14,5 km/h (3 Bft) 100,00 %
09.05.2016 02:15 11,3 C 78 % 1012,7 hPa 0,0 l/m 9,6 km/h (2 Bft) O-NO 76 0 min 0,000 mm 0,0 UV-I 0 W/m 7,6 C 9,3 C 14,5 km/h (3 Bft) 100,00 %
09.05.2016 02:16 11,3 C 78 % 1012,7 hPa 0,0 l/m 13,1 km/h (3 Bft) NO 53 0 min 0,000 mm 0,0 UV-I 0 W/m 7,6 C 7,5 C 17,7 km/h (3 Bft) 100,00 %
09.05.2016 02:17 11,3 C 78 % 1012,6 hPa 0,0 l/m 12,0 km/h (2 Bft) NO 55 0 min 0,000 mm 0,0 UV-I 0 W/m 7,6 C 8,0 C 16,1 km/h (3 Bft) 100,00 %
09.05.2016 02:18 11,3 C 78 % 1012,6 hPa 0,0 l/m 13,8 km/h (3 Bft) NO 55 0 min 0,000 mm 0,0 UV-I 0 W/m 7,6 C 7,2 C 17,7 km/h (3 Bft) 100,00 %
09.05.2016 02:19 11,3 C 78 % 1012,6 hPa 0,0 l/m 13,2 km/h (3 Bft) O 82 0 min 0,000 mm 0,0 UV-I 0 W/m 7,6 C 7,5 C 17,7 km/h (3 Bft) 95,65 %
09.05.2016 02:20 11,3 C 78 % 1012,6 hPa 0,0 l/m 13,7 km/h (3 Bft) O-NO 66 0 min 0,000 mm 0,0 UV-I 0 W/m 7,6 C 7,2 C 16,1 km/h (3 Bft) 100,00 %
09.05.2016 02:21 11,3 C 78 % 1012,6 hPa 0,0 l/m 10,5 km/h (2 Bft) NO 55 0 min 0,000 mm 0,0 UV-I 0 W/m 7,6 C 8,8 C 16,1 km/h (3 Bft) 100,00 %
09.05.2016 02:22 11,3 C 79 % 1012,6 hPa 0,0 l/m 14,8 km/h (3 Bft) O-NO 69 0 min 0,000 mm 0,0 UV-I 0 W/m 7,8 C 6,8 C 19,3 km/h (3 Bft) 100,00 %
09.05.2016 02:23 11,2 C 79 % 1012,6 hPa 0,0 l/m 12,3 km/h (3 Bft) NO 37 0 min 0,000 mm 0,0 UV-I 0 W/m 7,7 C 7,8 C 17,7 km/h (3 Bft) 95,83 %
09.05.2016 02:24 11,3 C 79 % 1012,6 hPa 0,0 l/m 10,5 km/h (2 Bft) O-NO 78 0 min 0,000 mm 0,0 UV-I 0 W/m 7,8 C 8,8 C 14,5 km/h (3 Bft) 100,00 %
09.05.2016 02:25 11,2 C 79 % 1012,5 hPa 0,0 l/m 12,4 km/h (3 Bft) O-NO 60 0 min 0,000 mm 0,0 UV-I 0 W/m 7,7 C 7,7 C 17,7 km/h (3 Bft) 97,56 %
09.05.2016 02:26 11,2 C 79 % 1012,6 hPa 0,0 l/m 11,3 km/h (2 Bft) O-NO 74 0 min 0,000 mm 0,0 UV-I 0 W/m 7,7 C 8,2 C 16,1 km/h (3 Bft) 100,00 %
09.05.2016 02:27 11,2 C 79 % 1012,5 hPa 0,0 l/m 11,0 km/h (2 Bft) O-NO 65 0 min 0,000 mm 0,0 UV-I 0 W/m 7,7 C 8,4 C 14,5 km/h (3 Bft) 98,95 %
09.05.2016 02:28 11,2 C 79 % 1012,5 hPa 0,0 l/m 12,4 km/h (3 Bft) NO 53 0 min 0,000 mm 0,0 UV-I 0 W/m 7,7 C 7,7 C 14,5 km/h (3 Bft) 100,00 %
09.05.2016 02:29 11,2 C 79 % 1012,5 hPa 0,0 l/m 9,5 km/h (2 Bft) O-NO 66 0 min 0,000 mm 0,0 UV-I 0 W/m 7,7 C 9,2 C 12,9 km/h (3 Bft) 100,00 %
09.05.2016 02:30 11,1 C 79 % 1012,5 hPa 0,0 l/m 10,0 km/h (2 Bft) O-NO 60 0 min 0,000 mm 0,0 UV-I 0 W/m 7,6 C 8,8 C 16,1 km/h (3 Bft) 100,00 %
09.05.2016 02:31 11,1 C 79 % 1012,5 hPa 0,0 l/m 13,2 km/h (3 Bft) O-NO 66 0 min 0,000 mm 0,0 UV-I 0 W/m 7,6 C 7,2 C 17,7 km/h (3 Bft) 100,00 %
09.05.2016 02:32 11,1 C 79 % 1012,5 hPa 0,0 l/m 10,2 km/h (2 Bft) O-NO 61 0 min 0,000 mm 0,0 UV-I 0 W/m 7,6 C 8,7 C 17,7 km/h (3 Bft) 100,00 %
09.05.2016 02:33 11,1 C 79 % 1012,5 hPa 0,0 l/m 13,1 km/h (3 Bft) O-NO 63 0 min 0,000 mm 0,0 UV-I 0 W/m 7,6 C 7,3 C 16,1 km/h (3 Bft) 100,00 %
09.05.2016 02:34 11,1 C 79 % 1012,6 hPa 0,0 l/m 9,7 km/h (2 Bft) NO 53 0 min 0,000 mm 0,0 UV-I 0 W/m 7,6 C 9,0 C 14,5 km/h (3 Bft) 100,00 %
09.05.2016 02:35 11,1 C 79 % 1012,5 hPa 0,0 l/m 10,3 km/h (2 Bft) NO 52 0 min 0,000 mm 0,0 UV-I 0 W/m 7,6 C 8,6 C 14,5 km/h (3 Bft) 100,00 %
09.05.2016 02:36 11,1 C 79 % 1012,5 hPa 0,0 l/m 9,6 km/h (2 Bft) O-NO 72 0 min 0,000 mm 0,0 UV-I 0 W/m 7,6 C 9,0 C 14,5 km/h (3 Bft) 100,00 %
09.05.2016 02:37 11,1 C 80 % 1012,5 hPa 0,0 l/m 9,4 km/h (2 Bft) O-NO 61 0 min 0,000 mm 0,0 UV-I 0 W/m 7,8 C 9,1 C 14,5 km/h (3 Bft) 100,00 %
09.05.2016 02:38 11,0 C 80 % 1012,5 hPa 0,0 l/m 10,8 km/h (2 Bft) O-NO 70 0 min 0,000 mm 0,0 UV-I 0 W/m 7,7 C 8,3 C 12,9 km/h (3 Bft) 100,00 %
09.05.2016 02:39 11,0 C 80 % 1012,5 hPa 0,0 l/m 10,5 km/h (2 Bft) NO 53 0 min 0,000 mm 0,0 UV-I 0 W/m 7,7 C 8,4 C 14,5 km/h (3 Bft) 100,00 %
09.05.2016 02:40 10,9 C 80 % 1012,5 hPa 0,0 l/m 9,4 km/h (2 Bft) O-NO 66 0 min 0,000 mm 0,0 UV-I 0 W/m 7,6 C 8,9 C 12,9 km/h (3 Bft) 100,00 %
09.05.2016 02:41 10,9 C 80 % 1012,5 hPa 0,0 l/m 8,8 km/h (2 Bft) NO 53 0 min 0,000 mm 0,0 UV-I 0 W/m 7,6 C 9,3 C 14,5 km/h (3 Bft) 100,00 %
09.05.2016 02:42 10,9 C 80 % 1012,4 hPa 0,0 l/m 9,6 km/h (2 Bft) O-NO 74 0 min 0,000 mm 0,0 UV-I 0 W/m 7,6 C 8,8 C 12,9 km/h (3 Bft) 100,00 %
09.05.2016 02:43 10,9 C 80 % 1012,5 hPa 0,0 l/m 9,4 km/h (2 Bft) NO 46 0 min 0,000 mm 0,0 UV-I 0 W/m 7,6 C 8,9 C 11,3 km/h (2 Bft) 100,00 %
09.05.2016 02:44 10,8 C 80 % 1012,5 hPa 0,0 l/m 8,8 km/h (2 Bft) NO 56 0 min 0,000 mm 0,0 UV-I 0 W/m 7,5 C 9,2 C 11,3 km/h (2 Bft) 100,00 %
09.05.2016 02:45 10,8 C 80 % 1012,5 hPa 0,0 l/m 9,1 km/h (2 Bft) NO 47 0 min 0,000 mm 0,0 UV-I 0 W/m 7,5 C 9,0 C 12,9 km/h (3 Bft) 100,00 %
09.05.2016 02:46 10,8 C 81 % 1012,5 hPa 0,0 l/m 11,4 km/h (2 Bft) O 80 0 min 0,000 mm 0,0 UV-I 0 W/m 7,7 C 7,7 C 14,5 km/h (3 Bft) 100,00 %
09.05.2016 02:47 10,8 C 81 % 1012,5 hPa 0,0 l/m 10,0 km/h (2 Bft) O 84 0 min 0,000 mm 0,0 UV-I 0 W/m 7,7 C 8,5 C 12,9 km/h (3 Bft) 100,00 %
09.05.2016 02:48 10,7 C 81 % 1012,5 hPa 0,0 l/m 9,0 km/h (2 Bft) O-NO 76 0 min 0,000 mm 0,0 UV-I 0 W/m 7,6 C 9,0 C 12,9 km/h (3 Bft) 100,00 %
09.05.2016 02:49 10,7 C 81 % 1012,5 hPa 0,0 l/m 7,5 km/h (2 Bft) O-NO 67 0 min 0,000 mm 0,0 UV-I 0 W/m 7,6 C 9,9 C 12,9 km/h (3 Bft) 100,00 %
09.05.2016 02:50 10,7 C 81 % 1012,5 hPa 0,0 l/m 10,7 km/h (2 Bft) O 82 0 min 0,000 mm 0,0 UV-I 0 W/m 7,6 C 8,0 C 14,5 km/h (3 Bft) 100,00 %
09.05.2016 02:51 10,7 C 81 % 1012,5 hPa 0,0 l/m 7,0 km/h (2 Bft) O 96 0 min 0,000 mm 0,0 UV-I 0 W/m 7,6 C 10,3 C 11,3 km/h (2 Bft) 100,00 %
09.05.2016 02:52 10,7 C 81 % 1012,5 hPa 0,0 l/m 11,8 km/h (2 Bft) O 90 0 min 0,000 mm 0,0 UV-I 0 W/m 7,6 C 7,4 C 16,1 km/h (3 Bft) 96,67 %
09.05.2016 02:53 10,7 C 81 % 1012,4 hPa 0,0 l/m 12,8 km/h (3 Bft) O-NO 71 0 min 0,000 mm 0,0 UV-I 0 W/m 7,6 C 6,9 C 16,1 km/h (3 Bft) 96,15 %
09.05.2016 02:54 10,7 C 81 % 1012,4 hPa 0,0 l/m 9,1 km/h (2 Bft) O 98 0 min 0,000 mm 0,0 UV-I 0 W/m 7,6 C 8,9 C 14,5 km/h (3 Bft) 100,00 %
09.05.2016 02:55 10,7 C 81 % 1012,4 hPa 0,0 l/m 9,1 km/h (2 Bft) O-NO 65 0 min 0,000 mm 0,0 UV-I 0 W/m 7,6 C 8,9 C 12,9 km/h (3 Bft) 100,00 %
09.05.2016 02:56 10,7 C 81 % 1012,4 hPa 0,0 l/m 9,4 km/h (2 Bft) O-NO 71 0 min 0,000 mm 0,0 UV-I 0 W/m 7,6 C 8,7 C 14,5 km/h (3 Bft) 100,00 %
09.05.2016 02:57 10,8 C 81 % 1012,4 hPa 0,0 l/m 10,9 km/h (2 Bft) O-NO 72 0 min 0,000 mm 0,0 UV-I 0 W/m 7,7 C 8,0 C 16,1 km/h (3 Bft) 100,00 %
09.05.2016 02:58 10,8 C 81 % 1012,4 hPa 0,0 l/m 12,7 km/h (3 Bft) O-NO 60 0 min 0,000 mm 0,0 UV-I 0 W/m 7,7 C 7,1 C 17,7 km/h (3 Bft) 99,08 %
09.05.2016 02:59 10,8 C 81 % 1012,4 hPa 0,0 l/m 10,6 km/h (2 Bft) O-NO 69 0 min 0,000 mm 0,0 UV-I 0 W/m 7,7 C 8,2 C 16,1 km/h (3 Bft) 100,00 %
09.05.2016 03:00 10,8 C 81 % 1012,4 hPa 0,0 l/m 12,1 km/h (2 Bft) O-NO 77 0 min 0,025 mm 0,0 UV-I 0 W/m 7,7 C 7,4 C 17,7 km/h (3 Bft) 100,00 %
09.05.2016 03:01 10,8 C 81 % 1012,4 hPa 0,0 l/m 12,9 km/h (3 Bft) NO 47 0 min 0,000 mm 0,0 UV-I 0 W/m 7,7 C 7,0 C 17,7 km/h (3 Bft) 100,00 %
09.05.2016 03:02 10,8 C 81 % 1012,4 hPa 0,0 l/m 12,7 km/h (3 Bft) O-NO 61 0 min 0,000 mm 0,0 UV-I 0 W/m 7,7 C 7,1 C 16,1 km/h (3 Bft) 100,00 %
09.05.2016 03:03 10,8 C 81 % 1012,3 hPa 0,0 l/m 13,5 km/h (3 Bft) O 80 0 min 0,000 mm 0,0 UV-I 0 W/m 7,7 C 6,7 C 17,7 km/h (3 Bft) 100,00 %
09.05.2016 03:04 10,8 C 81 % 1012,3 hPa 0,0 l/m 12,6 km/h (3 Bft) O 92 0 min 0,000 mm 0,0 UV-I 0 W/m 7,7 C 7,1 C 17,7 km/h (3 Bft) 100,00 %
09.05.2016 03:05 10,8 C 81 % 1012,3 hPa 0,0 l/m 8,0 km/h (2 Bft) O-NO 77 0 min 0,000 mm 0,0 UV-I 0 W/m 7,7 C 9,7 C 11,3 km/h (2 Bft) 100,00 %
09.05.2016 03:06 10,8 C 81 % 1012,3 hPa 0,0 l/m 12,2 km/h (2 Bft) O-NO 78 0 min 0,000 mm 0,0 UV-I 0 W/m 7,7 C 7,3 C 17,7 km/h (3 Bft) 100,00 %
09.05.2016 03:07 10,8 C 81 % 1012,3 hPa 0,0 l/m 12,0 km/h (2 Bft) O 85 0 min 0,000 mm 0,0 UV-I 0 W/m 7,7 C 7,4 C 14,5 km/h (3 Bft) 100,00 %
09.05.2016 03:08 10,8 C 80 % 1012,3 hPa 0,0 l/m 11,0 km/h (2 Bft) O-NO 74 0 min 0,000 mm 0,0 UV-I 0 W/m 7,5 C 7,9 C 16,1 km/h (3 Bft) 100,00 %
09.05.2016 03:09 10,8 C 81 % 1012,3 hPa 0,0 l/m 12,4 km/h (3 Bft) NO 41 0 min 0,000 mm 0,0 UV-I 0 W/m 7,7 C 7,2 C 19,3 km/h (3 Bft) 100,00 %
09.05.2016 03:10 10,8 C 81 % 1012,3 hPa 0,0 l/m 11,3 km/h (2 Bft) O-NO 67 0 min 0,000 mm 0,0 UV-I 0 W/m 7,7 C 7,8 C 14,5 km/h (3 Bft) 100,00 %
09.05.2016 03:11 10,8 C 81 % 1012,4 hPa 0,0 l/m 13,0 km/h (3 Bft) O-NO 78 0 min 0,000 mm 0,0 UV-I 0 W/m 7,7 C 7,0 C 16,1 km/h (3 Bft) 100,00 %
09.05.2016 03:12 10,8 C 81 % 1012,4 hPa 0,0 l/m 13,0 km/h (3 Bft) O 80 0 min 0,000 mm 0,0 UV-I 0 W/m 7,7 C 7,0 C 16,1 km/h (3 Bft) 100,00 %
09.05.2016 03:13 10,8 C 81 % 1012,4 hPa 0,0 l/m 9,0 km/h (2 Bft) O-NO 78 0 min 0,000 mm 0,0 UV-I 0 W/m 7,7 C 9,1 C 12,9 km/h (3 Bft) 100,00 %
09.05.2016 03:14 10,8 C 81 % 1012,4 hPa 0,0 l/m 11,4 km/h (2 Bft) O-NO 71 0 min 0,000 mm 0,0 UV-I 0 W/m 7,7 C 7,7 C 16,1 km/h (3 Bft) 100,00 %
09.05.2016 03:15 10,8 C 81 % 1012,4 hPa 0,0 l/m 11,0 km/h (2 Bft) O-NO 68 0 min 0,000 mm 0,0 UV-I 0 W/m 7,7 C 7,9 C 17,7 km/h (3 Bft) 100,00 %
09.05.2016 03:16 10,8 C 81 % 1012,4 hPa 0,0 l/m 11,1 km/h (2 Bft) O-NO 74 0 min 0,000 mm 0,0 UV-I 0 W/m 7,7 C 7,9 C 16,1 km/h (3 Bft) 100,00 %
09.05.2016 03:17 10,8 C 81 % 1012,4 hPa 0,0 l/m 8,7 km/h (2 Bft) O 81 0 min 0,000 mm 0,0 UV-I 0 W/m 7,7 C 9,2 C 12,9 km/h (3 Bft) 100,00 %
09.05.2016 03:18 10,8 C 81 % 1012,4 hPa 0,0 l/m 7,8 km/h (2 Bft) O 87 0 min 0,000 mm 0,0 UV-I 0 W/m 7,7 C 9,8 C 12,9 km/h (3 Bft) 100,00 %
09.05.2016 03:19 10,8 C 81 % 1012,4 hPa 0,0 l/m 9,0 km/h (2 Bft) O-NO 63 0 min 0,000 mm 0,0 UV-I 0 W/m 7,7 C 9,1 C 11,3 km/h (2 Bft) 100,00 %
09.05.2016 03:20 10,7 C 81 % 1012,4 hPa 0,0 l/m 9,1 km/h (2 Bft) O-NO 66 0 min 0,000 mm 0,0 UV-I 0 W/m 7,6 C 8,9 C 12,9 km/h (3 Bft) 100,00 %
09.05.2016 03:21 10,7 C 81 % 1012,4 hPa 0,0 l/m 8,9 km/h (2 Bft) O 82 0 min 0,000 mm 0,0 UV-I 0 W/m 7,6 C 9,0 C 12,9 km/h (3 Bft) 91,67 %
09.05.2016 03:22 10,7 C 81 % 1012,4 hPa 0,0 l/m 8,8 km/h (2 Bft) O-NO 58 0 min 0,000 mm 0,0 UV-I 0 W/m 7,6 C 9,1 C 11,3 km/h (2 Bft) 96,30 %
09.05.2016 03:23 10,7 C 81 % 1012,5 hPa 0,0 l/m 9,9 km/h (2 Bft) NO 52 0 min 0,000 mm 0,0 UV-I 0 W/m 7,6 C 8,4 C 14,5 km/h (3 Bft) 91,30 %
09.05.2016 03:24 10,7 C 81 % 1012,5 hPa 0,0 l/m 11,3 km/h (2 Bft) O-NO 60 0 min 0,000 mm 0,0 UV-I 0 W/m 7,6 C 7,7 C 16,1 km/h (3 Bft) 96,88 %
09.05.2016 03:25 10,7 C 81 % 1012,4 hPa 0,0 l/m 12,2 km/h (2 Bft) O 79 0 min 0,000 mm 0,0 UV-I 0 W/m 7,6 C 7,2 C 16,1 km/h (3 Bft) 100,00 %
09.05.2016 03:26 10,7 C 81 % 1012,5 hPa 0,0 l/m 9,6 km/h (2 Bft) O-NO 60 0 min 0,000 mm 0,0 UV-I 0 W/m 7,6 C 8,6 C 12,9 km/h (3 Bft) 96,67 %
09.05.2016 03:27 10,7 C 81 % 1012,5 hPa 0,0 l/m 10,2 km/h (2 Bft) O-NO 58 0 min 0,000 mm 0,0 UV-I 0 W/m 7,6 C 8,3 C 16,1 km/h (3 Bft) 100,00 %
09.05.2016 03:28 10,7 C 81 % 1012,4 hPa 0,0 l/m 9,7 km/h (2 Bft) O-NO 62 0 min 0,000 mm 0,0 UV-I 0 W/m 7,6 C 8,5 C 14,5 km/h (3 Bft) 96,15 %
09.05.2016 03:29 10,7 C 81 % 1012,5 hPa 0,0 l/m 9,3 km/h (2 Bft) NO 53 0 min 0,000 mm 0,0 UV-I 0 W/m 7,6 C 8,8 C 14,5 km/h (3 Bft) 95,83 %
09.05.2016 03:30 10,6 C 81 % 1012,5 hPa 0,0 l/m 9,4 km/h (2 Bft) O-NO 63 0 min 0,000 mm 0,0 UV-I 0 W/m 7,5 C 8,6 C 14,5 km/h (3 Bft) 100,00 %
09.05.2016 03:31 10,6 C 81 % 1012,5 hPa 0,0 l/m 8,2 km/h (2 Bft) O-NO 71 0 min 0,000 mm 0,0 UV-I 0 W/m 7,5 C 9,4 C 9,7 km/h (2 Bft) 96,15 %
09.05.2016 03:32 10,6 C 82 % 1012,5 hPa 0,0 l/m 8,0 km/h (2 Bft) O-NO 78 0 min 0,000 mm 0,0 UV-I 0 W/m 7,7 C 9,5 C 11,3 km/h (2 Bft) 100,00 %
09.05.2016 03:33 10,5 C 82 % 1012,5 hPa 0,0 l/m 7,8 km/h (2 Bft) NO 47 0 min 0,000 mm 0,0 UV-I 0 W/m 7,6 C 9,5 C 14,5 km/h (3 Bft) 94,12 %
09.05.2016 03:34 10,4 C 82 % 1012,5 hPa 0,0 l/m 9,2 km/h (2 Bft) NO 52 0 min 0,000 mm 0,0 UV-I 0 W/m 7,5 C 8,5 C 14,5 km/h (3 Bft) 100,00 %
09.05.2016 03:35 10,4 C 82 % 1012,5 hPa 0,0 l/m 8,1 km/h (2 Bft) O-NO 59 0 min 0,000 mm 0,0 UV-I 0 W/m 7,5 C 9,2 C 11,3 km/h (2 Bft) 95,65 %
09.05.2016 03:36 10,4 C 82 % 1012,5 hPa 0,0 l/m 9,3 km/h (2 Bft) O-NO 65 0 min 0,000 mm 0,0 UV-I 0 W/m 7,5 C 8,4 C 12,9 km/h (3 Bft) 93,33 %
09.05.2016 03:37 10,4 C 82 % 1012,5 hPa 0,0 l/m 7,9 km/h (2 Bft) O-NO 63 0 min 0,000 mm 0,0 UV-I 0 W/m 7,5 C 9,3 C 11,3 km/h (2 Bft) 96,15 %
09.05.2016 03:38 10,3 C 82 % 1012,5 hPa 0,0 l/m 8,6 km/h (2 Bft) NO 51 0 min 0,000 mm 0,0 UV-I 0 W/m 7,4 C 8,8 C 11,3 km/h (2 Bft) 100,00 %
09.05.2016 03:39 10,3 C 82 % 1012,4 hPa 0,0 l/m 6,1 km/h (2 Bft) O-NO 65 0 min 0,000 mm 0,0 UV-I 0 W/m 7,4 C 10,3 C 9,7 km/h (2 Bft) 92,31 %
09.05.2016 03:40 10,3 C 82 % 1012,4 hPa 0,0 l/m 6,9 km/h (2 Bft) NO 52 0 min 0,000 mm 0,0 UV-I 0 W/m 7,4 C 9,9 C 11,3 km/h (2 Bft) 100,00 %
09.05.2016 03:41 10,3 C 82 % 1012,4 hPa 0,0 l/m 4,9 km/h (1 Bft) NO 56 0 min 0,000 mm 0,0 UV-I 0 W/m 7,4 C 10,3 C 8,0 km/h (2 Bft) 96,15 %
09.05.2016 03:42 10,3 C 82 % 1012,4 hPa 0,0 l/m 4,6 km/h (1 Bft) NO 43 0 min 0,000 mm 0,0 UV-I 0 W/m 7,4 C 10,3 C 8,0 km/h (2 Bft) 96,30 %
09.05.2016 03:43 10,2 C 82 % 1012,4 hPa 0,0 l/m 6,0 km/h (2 Bft) O-NO 59 0 min 0,000 mm 0,0 UV-I 0 W/m 7,3 C 10,2 C 8,0 km/h (2 Bft) 100,00 %
09.05.2016 03:44 10,1 C 83 % 1012,4 hPa 0,0 l/m 3,8 km/h (1 Bft) NO 56 0 min 0,000 mm 0,0 UV-I 0 W/m 7,3 C 10,1 C 6,4 km/h (2 Bft) 95,83 %
09.05.2016 03:45 9,9 C 83 % 1012,5 hPa 0,0 l/m 4,3 km/h (1 Bft) O-NO 57 0 min 0,000 mm 0,0 UV-I 0 W/m 7,2 C 9,9 C 6,4 km/h (2 Bft) 100,00 %
09.05.2016 03:46 9,8 C 83 % 1012,5 hPa 0,0 l/m 5,1 km/h (1 Bft) O-NO 59 0 min 0,000 mm 0,0 UV-I 0 W/m 7,1 C 9,8 C 6,4 km/h (2 Bft) 91,67 %
09.05.2016 03:47 9,7 C 84 % 1012,5 hPa 0,0 l/m 4,8 km/h (1 Bft) NO 49 0 min 0,000 mm 0,0 UV-I 0 W/m 7,1 C 9,7 C 6,4 km/h (2 Bft) 100,00 %
09.05.2016 03:48 9,6 C 84 % 1012,5 hPa 0,0 l/m 4,0 km/h (1 Bft) NO 49 0 min 0,000 mm 0,0 UV-I 0 W/m 7,0 C 9,6 C 4,8 km/h (1 Bft) 94,74 %
09.05.2016 03:49 9,6 C 85 % 1012,5 hPa 0,0 l/m 3,9 km/h (1 Bft) NO 51 0 min 0,000 mm 0,0 UV-I 0 W/m 7,2 C 9,6 C 4,8 km/h (1 Bft) 95,83 %
09.05.2016 03:50 9,4 C 85 % 1012,5 hPa 0,0 l/m 3,9 km/h (1 Bft) NO 51 0 min 0,000 mm 0,0 UV-I 0 W/m 7,0 C 9,4 C 4,8 km/h (1 Bft) 100,00 %
09.05.2016 03:51 9,4 C 85 % 1012,5 hPa 0,0 l/m 4,6 km/h (1 Bft) NO 52 0 min 0,000 mm 0,0 UV-I 0 W/m 7,0 C 9,4 C 6,4 km/h (2 Bft) 96,30 %
09.05.2016 03:52 9,4 C 86 % 1012,5 hPa 0,0 l/m 4,5 km/h (1 Bft) NO 55 0 min 0,000 mm 0,0 UV-I 0 W/m 7,2 C 9,4 C 6,4 km/h (2 Bft) 100,00 %
09.05.2016 03:53 9,4 C 86 % 1012,4 hPa 0,0 l/m 5,0 km/h (1 Bft) O-NO 60 0 min 0,000 mm 0,0 UV-I 0 W/m 7,2 C 9,4 C 6,4 km/h (2 Bft) 96,30 %
09.05.2016 03:54 9,4 C 86 % 1012,4 hPa 0,0 l/m 4,9 km/h (1 Bft) O-NO 61 0 min 0,000 mm 0,0 UV-I 0 W/m 7,2 C 9,4 C 6,4 km/h (2 Bft) 100,00 %
09.05.2016 03:55 9,4 C 86 % 1012,5 hPa 0,0 l/m 3,8 km/h (1 Bft) O-NO 60 0 min 0,000 mm 0,0 UV-I 0 W/m 7,2 C 9,4 C 4,8 km/h (1 Bft) 100,00 %
09.05.2016 03:56 9,5 C 86 % 1012,5 hPa 0,0 l/m 4,2 km/h (1 Bft) O-NO 59 0 min 0,000 mm 0,0 UV-I 0 W/m 7,3 C 9,5 C 6,4 km/h (2 Bft) 100,00 %
09.05.2016 03:57 9,5 C 85 % 1012,5 hPa 0,0 l/m 5,0 km/h (1 Bft) O-NO 61 0 min 0,000 mm 0,0 UV-I 0 W/m 7,1 C 9,5 C 6,4 km/h (2 Bft) 100,00 %
09.05.2016 03:58 9,6 C 85 % 1012,5 hPa 0,0 l/m 5,0 km/h (1 Bft) O-NO 65 0 min 0,000 mm 0,0 UV-I 0 W/m 7,2 C 9,6 C 6,4 km/h (2 Bft) 95,65 %
09.05.2016 03:59 9,6 C 85 % 1012,5 hPa 0,0 l/m 6,3 km/h (2 Bft) O-NO 67 0 min 0,000 mm 0,0 UV-I 0 W/m 7,2 C 9,6 C 9,7 km/h (2 Bft) 100,00 %
09.05.2016 04:00 9,6 C 85 % 1012,5 hPa 0,0 l/m 6,3 km/h (2 Bft) O-NO 67 0 min 0,000 mm 0,0 UV-I 0 W/m 7,2 C 9,6 C 9,7 km/h (2 Bft) 100,00 %
09.05.2016 04:03 9,6 C 85 % 1012,5 hPa 0,0 l/m 7,9 km/h (2 Bft) O-NO 69 0 min 0,026 mm 0,0 UV-I 0 W/m 7,2 C 8,5 C 8,0 km/h (2 Bft) 100,00 %
09.05.2016 04:04 9,7 C 85 % 1012,5 hPa 0,0 l/m 5,8 km/h (2 Bft) O-NO 74 0 min 0,000 mm 0,0 UV-I 0 W/m 7,3 C 9,7 C 8,0 km/h (2 Bft) 100,00 %
09.05.2016 04:05 9,7 C 85 % 1012,5 hPa 0,0 l/m 6,4 km/h (2 Bft) O 86 0 min 0,000 mm 0,0 UV-I 0 W/m 7,3 C 9,7 C 11,3 km/h (2 Bft) 100,00 %
09.05.2016 04:06 9,7 C 85 % 1012,5 hPa 0,0 l/m 9,3 km/h (2 Bft) O 88 0 min 0,000 mm 0,0 UV-I 0 W/m 7,3 C 7,7 C 12,9 km/h (3 Bft) 100,00 %
09.05.2016 04:07 9,7 C 85 % 1012,5 hPa 0,0 l/m 9,3 km/h (2 Bft) O 81 0 min 0,000 mm 0,0 UV-I 0 W/m 7,3 C 7,7 C 12,9 km/h (3 Bft) 100,00 %
09.05.2016 04:08 9,7 C 85 % 1012,5 hPa 0,0 l/m 5,6 km/h (1 Bft) O-NO 67 0 min 0,000 mm 0,0 UV-I 0 W/m 7,3 C 9,7 C 6,4 km/h (2 Bft) 100,00 %
09.05.2016 04:09 9,8 C 85 % 1012,5 hPa 0,0 l/m 6,8 km/h (2 Bft) O-NO 60 0 min 0,000 mm 0,0 UV-I 0 W/m 7,4 C 9,5 C 9,7 km/h (2 Bft) 100,00 %
09.05.2016 04:10 9,8 C 85 % 1012,5 hPa 0,0 l/m 7,1 km/h (2 Bft) O 90 0 min 0,000 mm 0,0 UV-I 0 W/m 7,4 C 9,3 C 11,3 km/h (2 Bft) 100,00 %
09.05.2016 04:11 9,8 C 85 % 1012,5 hPa 0,0 l/m 8,0 km/h (2 Bft) O-NO 69 0 min 0,000 mm 0,0 UV-I 0 W/m 7,4 C 8,6 C 11,3 km/h (2 Bft) 96,15 %
09.05.2016 04:12 9,8 C 85 % 1012,5 hPa 0,0 l/m 8,2 km/h (2 Bft) NO 45 0 min 0,000 mm 0,0 UV-I 0 W/m 7,4 C 8,5 C 9,7 km/h (2 Bft) 100,00 %
09.05.2016 04:13 9,8 C 85 % 1012,5 hPa 0,0 l/m 6,8 km/h (2 Bft) O-NO 71 0 min 0,000 mm 0,0 UV-I 0 W/m 7,4 C 9,5 C 8,0 km/h (2 Bft) 100,00 %
09.05.2016 04:14 9,8 C 85 % 1012,5 hPa 0,0 l/m 6,4 km/h (2 Bft) O-NO 62 0 min 0,000 mm 0,0 UV-I 0 W/m 7,4 C 9,8 C 8,0 km/h (2 Bft) 100,00 %
09.05.2016 04:15 9,8 C 85 % 1012,5 hPa 0,0 l/m 6,9 km/h (2 Bft) NO 44 0 min 0,000 mm 0,0 UV-I 0 W/m 7,4 C 9,4 C 9,7 km/h (2 Bft) 100,00 %
09.05.2016 04:16 9,8 C 84 % 1012,4 hPa 0,0 l/m 6,7 km/h (2 Bft) O-NO 71 0 min 0,000 mm 0,0 UV-I 0 W/m 7,2 C 9,6 C 9,7 km/h (2 Bft) 100,00 %
09.05.2016 04:17 9,8 C 84 % 1012,4 hPa 0,0 l/m 6,5 km/h (2 Bft) O-NO 63 0 min 0,000 mm 0,0 UV-I 0 W/m 7,2 C 9,8 C 8,0 km/h (2 Bft) 92,31 %
09.05.2016 04:18 9,8 C 84 % 1012,4 hPa 0,0 l/m 5,8 km/h (2 Bft) O-NO 73 0 min 0,000 mm 0,0 UV-I 0 W/m 7,2 C 9,8 C 6,4 km/h (2 Bft) 100,00 %
09.05.2016 04:19 9,8 C 84 % 1012,5 hPa 0,0 l/m 5,7 km/h (1 Bft) NO 48 0 min 0,000 mm 0,0 UV-I 0 W/m 7,2 C 9,8 C 6,4 km/h (2 Bft) 100,00 %
09.05.2016 04:20 9,8 C 84 % 1012,5 hPa 0,0 l/m 3,8 km/h (1 Bft) O-NO 58 0 min 0,000 mm 0,0 UV-I 0 W/m 7,2 C 9,8 C 6,4 km/h (2 Bft) 100,00 %
09.05.2016 04:21 9,7 C 84 % 1012,5 hPa 0,0 l/m 4,3 km/h (1 Bft) O-NO 70 0 min 0,000 mm 0,0 UV-I 0 W/m 7,1 C 9,7 C 8,0 km/h (2 Bft) 100,00 %
09.05.2016 04:22 9,7 C 84 % 1012,4 hPa 0,0 l/m 4,6 km/h (1 Bft) O-NO 58 0 min 0,000 mm 0,0 UV-I 0 W/m 7,1 C 9,7 C 6,4 km/h (2 Bft) 100,00 %
09.05.2016 04:23 9,7 C 84 % 1012,5 hPa 0,0 l/m 4,7 km/h (1 Bft) O-NO 62 0 min 0,000 mm 0,0 UV-I 0 W/m 7,1 C 9,7 C 6,4 km/h (2 Bft) 100,00 %
09.05.2016 04:24 9,6 C 84 % 1012,5 hPa 0,0 l/m 5,5 km/h (1 Bft) O-NO 74 0 min 0,000 mm 0,0 UV-I 0 W/m 7,0 C 9,6 C 8,0 km/h (2 Bft) 100,00 %
09.05.2016 04:25 9,6 C 85 % 1012,5 hPa 0,0 l/m 4,9 km/h (1 Bft) O-NO 63 0 min 0,000 mm 0,0 UV-I 0 W/m 7,2 C 9,6 C 8,0 km/h (2 Bft) 100,00 %
09.05.2016 04:26 9,6 C 85 % 1012,5 hPa 0,0 l/m 4,8 km/h (1 Bft) NO 56 0 min 0,000 mm 0,0 UV-I 0 W/m 7,2 C 9,6 C 6,4 km/h (2 Bft) 100,00 %
09.05.2016 04:27 9,6 C 85 % 1012,5 hPa 0,0 l/m 6,5 km/h (2 Bft) N-NO 23 0 min 0,000 mm 0,0 UV-I 0 W/m 7,2 C 9,6 C 8,0 km/h (2 Bft) 100,00 %
09.05.2016 04:28 9,5 C 85 % 1012,5 hPa 0,0 l/m 5,6 km/h (1 Bft) O-NO 77 0 min 0,000 mm 0,0 UV-I 0 W/m 7,1 C 9,5 C 8,0 km/h (2 Bft) 100,00 %
09.05.2016 04:29 9,5 C 85 % 1012,5 hPa 0,0 l/m 4,8 km/h (1 Bft) NO 53 0 min 0,000 mm 0,0 UV-I 0 W/m 7,1 C 9,5 C 6,4 km/h (2 Bft) 97,22 %
09.05.2016 04:30 9,4 C 85 % 1012,5 hPa 0,0 l/m 5,7 km/h (1 Bft) O-NO 63 0 min 0,000 mm 0,0 UV-I 0 W/m 7,0 C 9,4 C 8,0 km/h (2 Bft) 100,00 %
09.05.2016 04:31 9,4 C 85 % 1012,5 hPa 0,0 l/m 6,5 km/h (2 Bft) O-NO 67 0 min 0,000 mm 0,0 UV-I 0 W/m 7,0 C 9,4 C 9,7 km/h (2 Bft) 100,00 %
09.05.2016 04:32 9,4 C 85 % 1012,5 hPa 0,0 l/m 4,2 km/h (1 Bft) O-NO 61 0 min 0,000 mm 0,0 UV-I 0 W/m 7,0 C 9,4 C 8,0 km/h (2 Bft) 100,00 %
09.05.2016 04:33 9,4 C 85 % 1012,5 hPa 0,0 l/m 5,2 km/h (1 Bft) O-NO 72 0 min 0,000 mm 0,0 UV-I 0 W/m 7,0 C 9,4 C 11,3 km/h (2 Bft) 100,00 %
09.05.2016 04:34 9,4 C 85 % 1012,5 hPa 0,0 l/m 4,6 km/h (1 Bft) O-NO 57 0 min 0,000 mm 0,0 UV-I 0 W/m 7,0 C 9,4 C 8,0 km/h (2 Bft) 100,00 %
09.05.2016 04:35 9,4 C 85 % 1012,5 hPa 0,0 l/m 5,7 km/h (1 Bft) O-NO 64 0 min 0,000 mm 0,0 UV-I 0 W/m 7,0 C 9,4 C 8,0 km/h (2 Bft) 100,00 %
09.05.2016 04:36 9,4 C 85 % 1012,5 hPa 0,0 l/m 6,2 km/h (2 Bft) O-NO 65 0 min 0,000 mm 0,0 UV-I 0 W/m 7,0 C 9,4 C 8,0 km/h (2 Bft) 100,00 %
09.05.2016 04:37 9,4 C 86 % 1012,5 hPa 0,0 l/m 7,6 km/h (2 Bft) O-NO 59 0 min 0,000 mm 0,0 UV-I 0 W/m 7,2 C 8,5 C 12,9 km/h (3 Bft) 100,00 %
09.05.2016 04:38 9,4 C 86 % 1012,5 hPa 0,0 l/m 9,0 km/h (2 Bft) O-NO 69 0 min 0,000 mm 0,0 UV-I 0 W/m 7,2 C 7,6 C 12,9 km/h (3 Bft) 100,00 %
09.05.2016 04:39 9,4 C 86 % 1012,5 hPa 0,0 l/m 7,2 km/h (2 Bft) NO 53 0 min 0,000 mm 0,0 UV-I 0 W/m 7,2 C 8,8 C 11,3 km/h (2 Bft) 100,00 %
09.05.2016 04:40 9,5 C 85 % 1012,6 hPa 0,0 l/m 8,6 km/h (2 Bft) O-NO 73 0 min 0,000 mm 0,0 UV-I 0 W/m 7,1 C 7,9 C 14,5 km/h (3 Bft) 100,00 %
09.05.2016 04:41 9,5 C 85 % 1012,6 hPa 0,0 l/m 9,2 km/h (2 Bft) O-NO 64 0 min 0,000 mm 0,0 UV-I 0 W/m 7,1 C 7,5 C 12,9 km/h (3 Bft) 100,00 %
09.05.2016 04:42 9,6 C 85 % 1012,6 hPa 0,0 l/m 8,7 km/h (2 Bft) O-NO 69 0 min 0,000 mm 0,0 UV-I 0 W/m 7,2 C 8,0 C 12,9 km/h (3 Bft) 100,00 %
09.05.2016 04:43 9,6 C 85 % 1012,6 hPa 0,0 l/m 8,3 km/h (2 Bft) O-NO 60 0 min 0,000 mm 0,0 UV-I 0 W/m 7,2 C 8,2 C 12,9 km/h (3 Bft) 100,00 %
09.05.2016 04:44 9,6 C 85 % 1012,7 hPa 0,0 l/m 7,7 km/h (2 Bft) O-NO 66 0 min 0,000 mm 0,0 UV-I 0 W/m 7,2 C 8,6 C 12,9 km/h (3 Bft) 100,00 %
09.05.2016 04:45 9,6 C 85 % 1012,7 hPa 0,0 l/m 10,6 km/h (2 Bft) O 82 0 min 0,000 mm 0,0 UV-I 0 W/m 7,2 C 6,8 C 14,5 km/h (3 Bft) 96,15 %
09.05.2016 04:46 9,7 C 85 % 1012,6 hPa 0,0 l/m 8,3 km/h (2 Bft) NO 53 0 min 0,000 mm 0,0 UV-I 0 W/m 7,3 C 8,3 C 11,3 km/h (2 Bft) 100,00 %
09.05.2016 04:47 9,7 C 85 % 1012,7 hPa 0,0 l/m 6,9 km/h (2 Bft) O-NO 76 0 min 0,000 mm 0,0 UV-I 0 W/m 7,3 C 9,3 C 11,3 km/h (2 Bft) 100,00 %
09.05.2016 04:48 9,7 C 85 % 1012,6 hPa 0,0 l/m 7,0 km/h (2 Bft) O-NO 76 0 min 0,000 mm 0,0 UV-I 0 W/m 7,3 C 9,3 C 11,3 km/h (2 Bft) 100,00 %
09.05.2016 04:49 9,7 C 85 % 1012,6 hPa 0,0 l/m 8,6 km/h (2 Bft) O-NO 78 0 min 0,000 mm 0,0 UV-I 0 W/m 7,3 C 8,1 C 12,9 km/h (3 Bft) 100,00 %
09.05.2016 04:50 9,7 C 85 % 1012,7 hPa 0,0 l/m 8,4 km/h (2 Bft) O 84 0 min 0,000 mm 0,0 UV-I 0 W/m 7,3 C 8,3 C 12,9 km/h (3 Bft) 93,33 %
09.05.2016 04:51 9,7 C 85 % 1012,6 hPa 0,0 l/m 8,1 km/h (2 Bft) O-NO 62 0 min 0,000 mm 0,0 UV-I 0 W/m 7,3 C 8,5 C 16,1 km/h (3 Bft) 100,00 %
09.05.2016 04:52 9,8 C 85 % 1012,6 hPa 0,0 l/m 7,5 km/h (2 Bft) O-NO 65 0 min 0,000 mm 0,0 UV-I 0 W/m 7,4 C 9,0 C 12,9 km/h (3 Bft) 100,00 %
09.05.2016 04:53 9,8 C 85 % 1012,7 hPa 0,0 l/m 7,6 km/h (2 Bft) O-NO 59 0 min 0,000 mm 0,0 UV-I 0 W/m 7,4 C 8,9 C 12,9 km/h (3 Bft) 100,00 %
09.05.2016 04:54 9,8 C 85 % 1012,6 hPa 0,0 l/m 6,4 km/h (2 Bft) O-NO 61 0 min 0,000 mm 0,0 UV-I 0 W/m 7,4 C 9,8 C 8,0 km/h (2 Bft) 92,59 %
09.05.2016 04:55 9,8 C 85 % 1012,6 hPa 0,0 l/m 8,0 km/h (2 Bft) O 80 0 min 0,000 mm 0,0 UV-I 0 W/m 7,4 C 8,6 C 12,9 km/h (3 Bft) 100,00 %
09.05.2016 04:56 9,8 C 84 % 1012,6 hPa 0,0 l/m 6,8 km/h (2 Bft) O-NO 61 0 min 0,000 mm 0,0 UV-I 0 W/m 7,2 C 9,5 C 11,3 km/h (2 Bft) 100,00 %
09.05.2016 04:57 9,8 C 84 % 1012,6 hPa 0,0 l/m 5,3 km/h (1 Bft) NO 52 0 min 0,000 mm 0,0 UV-I 0 W/m 7,2 C 9,8 C 8,0 km/h (2 Bft) 96,55 %
09.05.2016 04:58 9,7 C 84 % 1012,6 hPa 0,0 l/m 6,6 km/h (2 Bft) NO 44 0 min 0,000 mm 0,0 UV-I 0 W/m 7,1 C 9,6 C 11,3 km/h (2 Bft) 100,00 %
09.05.2016 04:59 9,7 C 84 % 1012,6 hPa 0,0 l/m 4,0 km/h (1 Bft) O-NO 59 0 min 0,000 mm 0,0 UV-I 0 W/m 7,1 C 9,7 C 6,4 km/h (2 Bft) 100,00 %
09.05.2016 05:00 9,6 C 84 % 1012,6 hPa 0,0 l/m 4,0 km/h (1 Bft) O-NO 63 0 min 0,025 mm 0,0 UV-I 0 W/m 7,0 C 9,6 C 6,4 km/h (2 Bft) 100,00 %
09.05.2016 05:01 9,4 C 85 % 1012,6 hPa 0,0 l/m 3,1 km/h (1 Bft) O-NO 61 0 min 0,000 mm 0,0 UV-I 0 W/m 7,0 C 9,4 C 4,8 km/h (1 Bft) 95,65 %
09.05.2016 05:02 9,3 C 85 % 1012,6 hPa 0,0 l/m 3,8 km/h (1 Bft) O-NO 61 0 min 0,000 mm 0,0 UV-I 0 W/m 6,9 C 9,3 C 4,8 km/h (1 Bft) 100,00 %
09.05.2016 05:03 9,2 C 85 % 1012,6 hPa 0,0 l/m 3,9 km/h (1 Bft) O-NO 60 0 min 0,000 mm 0,0 UV-I 0 W/m 6,8 C 9,2 C 4,8 km/h (1 Bft) 96,15 %
09.05.2016 05:04 9,1 C 86 % 1012,6 hPa 0,0 l/m 4,1 km/h (1 Bft) O-NO 57 0 min 0,000 mm 0,0 UV-I 0 W/m 6,9 C 9,1 C 6,4 km/h (2 Bft) 100,00 %
09.05.2016 05:05 8,9 C 86 % 1012,6 hPa 0,0 l/m 4,2 km/h (1 Bft) NO 56 0 min 0,000 mm 0,0 UV-I 0 W/m 6,7 C 8,9 C 6,4 km/h (2 Bft) 95,83 %
09.05.2016 05:06 8,9 C 86 % 1012,6 hPa 0,0 l/m 4,2 km/h (1 Bft) NO 55 0 min 0,000 mm 0,0 UV-I 0 W/m 6,7 C 8,9 C 4,8 km/h (1 Bft) 100,00 %
09.05.2016 05:07 8,8 C 87 % 1012,6 hPa 0,0 l/m 3,9 km/h (1 Bft) NO 55 0 min 0,000 mm 0,0 UV-I 0 W/m 6,8 C 8,8 C 4,8 km/h (1 Bft) 100,00 %
09.05.2016 05:08 8,8 C 87 % 1012,6 hPa 0,0 l/m 2,7 km/h (1 Bft) NO 55 0 min 0,000 mm 0,0 UV-I 0 W/m 6,8 C 8,8 C 3,2 km/h (1 Bft) 95,65 %
09.05.2016 05:09 8,7 C 87 % 1012,6 hPa 0,0 l/m 2,5 km/h (1 Bft) NO 51 0 min 0,000 mm 0,0 UV-I 0 W/m 6,7 C 8,7 C 3,2 km/h (1 Bft) 100,00 %
09.05.2016 05:10 8,7 C 87 % 1012,6 hPa 0,0 l/m 3,3 km/h (1 Bft) NO 45 0 min 0,000 mm 0,0 UV-I 0 W/m 6,7 C 8,7 C 4,8 km/h (1 Bft) 100,00 %
09.05.2016 05:11 8,7 C 88 % 1012,6 hPa 0,0 l/m 2,6 km/h (1 Bft) NO 45 0 min 0,000 mm 0,0 UV-I 0 W/m 6,8 C 8,7 C 3,2 km/h (1 Bft) 100,00 %
09.05.2016 05:12 8,7 C 88 % 1012,6 hPa 0,0 l/m 3,4 km/h (1 Bft) NO 52 0 min 0,000 mm 0,0 UV-I 0 W/m 6,8 C 8,7 C 4,8 km/h (1 Bft) 96,15 %
09.05.2016 05:13 8,7 C 88 % 1012,6 hPa 0,0 l/m 3,8 km/h (1 Bft) NO 52 0 min 0,000 mm 0,0 UV-I 0 W/m 6,8 C 8,7 C 4,8 km/h (1 Bft) 100,00 %
09.05.2016 05:14 8,7 C 88 % 1012,6 hPa 0,0 l/m 4,0 km/h (1 Bft) NO 50 0 min 0,000 mm 0,0 UV-I 0 W/m 6,8 C 8,7 C 4,8 km/h (1 Bft) 95,65 %
09.05.2016 05:15 8,7 C 88 % 1012,6 hPa 0,0 l/m 3,3 km/h (1 Bft) NO 50 0 min 0,000 mm 0,0 UV-I 0 W/m 6,8 C 8,7 C 4,8 km/h (1 Bft) 100,00 %
09.05.2016 05:16 8,7 C 88 % 1012,7 hPa 0,0 l/m 3,1 km/h (1 Bft) NO 50 0 min 0,000 mm 0,0 UV-I 0 W/m 6,8 C 8,7 C 4,8 km/h (1 Bft) 100,00 %
09.05.2016 05:17 8,7 C 88 % 1012,7 hPa 0,0 l/m 3,0 km/h (1 Bft) NO 49 0 min 0,000 mm 0,0 UV-I 0 W/m 6,8 C 8,7 C 4,8 km/h (1 Bft) 100,00 %
09.05.2016 05:18 8,7 C 88 % 1012,7 hPa 0,0 l/m 2,2 km/h (1 Bft) NO 49 0 min 0,000 mm 0,0 UV-I 0 W/m 6,8 C 8,7 C 3,2 km/h (1 Bft) 100,00 %
09.05.2016 05:19 8,7 C 88 % 1012,7 hPa 0,0 l/m 1,4 km/h (1 Bft) NO 49 0 min 0,000 mm 0,0 UV-I 0 W/m 6,8 C 8,7 C 3,2 km/h (1 Bft) 100,00 %
09.05.2016 05:20 8,7 C 88 % 1012,7 hPa 0,0 l/m 3,0 km/h (1 Bft) NO 49 0 min 0,000 mm 0,0 UV-I 0 W/m 6,8 C 8,7 C 4,8 km/h (1 Bft) 100,00 %
09.05.2016 05:21 8,7 C 88 % 1012,6 hPa 0,0 l/m 3,5 km/h (1 Bft) NO 43 0 min 0,000 mm 0,0 UV-I 0 W/m 6,8 C 8,7 C 4,8 km/h (1 Bft) 100,00 %
09.05.2016 05:22 8,7 C 87 % 1012,7 hPa 0,0 l/m 2,7 km/h (1 Bft) NO 43 0 min 0,000 mm 0,0 UV-I 0 W/m 6,7 C 8,7 C 3,2 km/h (1 Bft) 100,00 %
09.05.2016 05:23 8,7 C 87 % 1012,7 hPa 0,0 l/m 4,4 km/h (1 Bft) NO 35 0 min 0,000 mm 0,0 UV-I 0 W/m 6,7 C 8,7 C 6,4 km/h (2 Bft) 91,67 %
09.05.2016 05:24 8,7 C 87 % 1012,7 hPa 0,0 l/m 4,9 km/h (1 Bft) NO 48 0 min 0,000 mm 0,0 UV-I 0 W/m 6,7 C 8,7 C 6,4 km/h (2 Bft) 96,67 %
09.05.2016 05:25 8,7 C 87 % 1012,7 hPa 0,0 l/m 5,1 km/h (1 Bft) NO 37 0 min 0,000 mm 0,0 UV-I 0 W/m 6,7 C 8,7 C 8,0 km/h (2 Bft) 95,65 %
09.05.2016 05:26 8,7 C 88 % 1012,7 hPa 0,0 l/m 4,7 km/h (1 Bft) N-NO 32 0 min 0,000 mm 0,0 UV-I 0 W/m 6,8 C 8,7 C 8,0 km/h (2 Bft) 95,83 %
09.05.2016 05:27 8,7 C 87 % 1012,7 hPa 0,0 l/m 4,8 km/h (1 Bft) NO 40 0 min 0,000 mm 0,0 UV-I 0 W/m 6,7 C 8,7 C 8,0 km/h (2 Bft) 100,00 %
09.05.2016 05:28 8,7 C 88 % 1012,7 hPa 0,0 l/m 4,4 km/h (1 Bft) NO 40 0 min 0,000 mm 0,0 UV-I 0 W/m 6,8 C 8,7 C 6,4 km/h (2 Bft) 95,83 %
09.05.2016 05:29 8,7 C 88 % 1012,7 hPa 0,0 l/m 4,6 km/h (1 Bft) NO 41 0 min 0,000 mm 0,0 UV-I 0 W/m 6,8 C 8,7 C 6,4 km/h (2 Bft) 100,00 %
09.05.2016 05:30 8,7 C 88 % 1012,7 hPa 0,0 l/m 4,6 km/h (1 Bft) NO 42 0 min 0,000 mm 0,0 UV-I 3 W/m 6,8 C 8,7 C 6,4 km/h (2 Bft) 95,83 %
09.05.2016 05:31 8,7 C 88 % 1012,7 hPa 0,0 l/m 4,3 km/h (1 Bft) NO 42 0 min 0,000 mm 0,0 UV-I 5 W/m 6,8 C 8,7 C 6,4 km/h (2 Bft) 95,65 %
09.05.2016 05:32 8,7 C 88 % 1012,7 hPa 0,0 l/m 3,7 km/h (1 Bft) NO 42 0 min 0,000 mm 0,0 UV-I 5 W/m 6,8 C 8,7 C 4,8 km/h (1 Bft) 96,30 %
09.05.2016 05:33 8,7 C 88 % 1012,7 hPa 0,0 l/m 3,5 km/h (1 Bft) NO 44 0 min 0,000 mm 0,0 UV-I 5 W/m 6,8 C 8,7 C 4,8 km/h (1 Bft) 90,91 %
09.05.2016 05:34 8,8 C 88 % 1012,7 hPa 0,0 l/m 3,8 km/h (1 Bft) O 82 0 min 0,000 mm 0,0 UV-I 5 W/m 6,9 C 8,8 C 4,8 km/h (1 Bft) 96,67 %
09.05.2016 05:35 8,8 C 88 % 1012,7 hPa 0,0 l/m 4,5 km/h (1 Bft) O-NO 71 0 min 0,000 mm 0,0 UV-I 5 W/m 6,9 C 8,8 C 4,8 km/h (1 Bft) 96,15 %
09.05.2016 05:36 8,8 C 88 % 1012,7 hPa 0,0 l/m 4,1 km/h (1 Bft) O-NO 62 0 min 0,000 mm 0,0 UV-I 6 W/m 6,9 C 8,8 C 6,4 km/h (2 Bft) 100,00 %
09.05.2016 05:37 8,8 C 88 % 1012,7 hPa 0,0 l/m 4,3 km/h (1 Bft) O-NO 62 0 min 0,000 mm 0,0 UV-I 7 W/m 6,9 C 8,8 C 6,4 km/h (2 Bft) 96,15 %
09.05.2016 05:38 8,9 C 88 % 1012,7 hPa 0,0 l/m 5,3 km/h (1 Bft) O-NO 66 0 min 0,000 mm 0,0 UV-I 7 W/m 7,0 C 8,9 C 6,4 km/h (2 Bft) 100,00 %
09.05.2016 05:39 8,9 C 87 % 1012,7 hPa 0,0 l/m 3,7 km/h (1 Bft) O-NO 66 0 min 0,000 mm 0,0 UV-I 7 W/m 6,9 C 8,9 C 6,4 km/h (2 Bft) 95,65 %
09.05.2016 05:40 8,9 C 87 % 1012,7 hPa 0,0 l/m 4,0 km/h (1 Bft) NO 55 0 min 0,000 mm 0,0 UV-I 7 W/m 6,9 C 8,9 C 6,4 km/h (2 Bft) 100,00 %
09.05.2016 05:41 8,9 C 87 % 1012,7 hPa 0,0 l/m 4,8 km/h (1 Bft) NO 55 0 min 0,000 mm 0,0 UV-I 8 W/m 6,9 C 8,9 C 6,4 km/h (2 Bft) 95,83 %
09.05.2016 05:42 8,9 C 87 % 1012,7 hPa 0,0 l/m 3,2 km/h (1 Bft) NO 55 0 min 0,000 mm 0,0 UV-I 9 W/m 6,9 C 8,9 C 4,8 km/h (1 Bft) 100,00 %
09.05.2016 05:43 8,9 C 87 % 1012,7 hPa 0,0 l/m 4,7 km/h (1 Bft) O-NO 62 0 min 0,000 mm 0,0 UV-I 9 W/m 6,9 C 8,9 C 6,4 km/h (2 Bft) 95,83 %
09.05.2016 05:44 8,9 C 87 % 1012,7 hPa 0,0 l/m 4,8 km/h (1 Bft) O-NO 61 1 min 0,000 mm 0,0 UV-I 9 W/m 6,9 C 8,9 C 6,4 km/h (2 Bft) 91,30 %
09.05.2016 05:45 8,9 C 87 % 1012,6 hPa 0,0 l/m 5,0 km/h (1 Bft) O-NO 65 0 min 0,000 mm 0,0 UV-I 10 W/m 6,9 C 8,9 C 6,4 km/h (2 Bft) 100,00 %
09.05.2016 05:46 8,9 C 88 % 1012,7 hPa 0,0 l/m 5,2 km/h (1 Bft) O-NO 65 0 min 0,000 mm 0,0 UV-I 11 W/m 7,0 C 8,9 C 8,0 km/h (2 Bft) 91,30 %
09.05.2016 05:47 9,0 C 87 % 1012,7 hPa 0,0 l/m 5,5 km/h (1 Bft) O-NO 63 0 min 0,000 mm 0,0 UV-I 11 W/m 7,0 C 9,0 C 8,0 km/h (2 Bft) 100,00 %
09.05.2016 05:48 9,1 C 87 % 1012,7 hPa 0,0 l/m 5,7 km/h (1 Bft) O-NO 62 0 min 0,000 mm 0,0 UV-I 11 W/m 7,1 C 9,1 C 8,0 km/h (2 Bft) 95,65 %
09.05.2016 05:49 9,1 C 87 % 1012,7 hPa 0,0 l/m 5,7 km/h (1 Bft) O-NO 59 0 min 0,000 mm 0,0 UV-I 11 W/m 7,1 C 9,1 C 8,0 km/h (2 Bft) 95,83 %
09.05.2016 05:50 9,1 C 87 % 1012,7 hPa 0,0 l/m 5,1 km/h (1 Bft) O-NO 58 0 min 0,000 mm 0,0 UV-I 12 W/m 7,1 C 9,1 C 6,4 km/h (2 Bft) 95,65 %
09.05.2016 05:51 9,1 C 87 % 1012,7 hPa 0,0 l/m 4,4 km/h (1 Bft) NO 56 0 min 0,000 mm 0,0 UV-I 12 W/m 7,1 C 9,1 C 6,4 km/h (2 Bft) 96,30 %
09.05.2016 05:52 9,1 C 87 % 1012,7 hPa 0,0 l/m 3,6 km/h (1 Bft) O-NO 78 0 min 0,000 mm 0,0 UV-I 12 W/m 7,1 C 9,1 C 4,8 km/h (1 Bft) 92,31 %
09.05.2016 05:53 9,1 C 87 % 1012,7 hPa 0,0 l/m 3,5 km/h (1 Bft) O-NO 73 0 min 0,000 mm 0,0 UV-I 12 W/m 7,1 C 9,1 C 4,8 km/h (1 Bft) 93,33 %
09.05.2016 05:54 9,0 C 87 % 1012,7 hPa 0,0 l/m 4,8 km/h (1 Bft) O-NO 72 0 min 0,000 mm 0,0 UV-I 12 W/m 7,0 C 9,0 C 6,4 km/h (2 Bft) 96,15 %
09.05.2016 05:55 9,0 C 87 % 1012,7 hPa 0,0 l/m 4,7 km/h (1 Bft) O-NO 76 0 min 0,000 mm 0,0 UV-I 14 W/m 7,0 C 9,0 C 6,4 km/h (2 Bft) 96,67 %
09.05.2016 05:56 8,9 C 87 % 1012,7 hPa 0,0 l/m 3,5 km/h (1 Bft) O 85 0 min 0,000 mm 0,0 UV-I 14 W/m 6,9 C 8,9 C 6,4 km/h (2 Bft) 100,00 %
09.05.2016 05:57 8,9 C 87 % 1012,7 hPa 0,0 l/m 2,9 km/h (1 Bft) O 90 0 min 0,000 mm 0,0 UV-I 14 W/m 6,9 C 8,9 C 4,8 km/h (1 Bft) 96,30 %
09.05.2016 05:58 8,9 C 87 % 1012,7 hPa 0,0 l/m 2,4 km/h (1 Bft) O 90 0 min 0,000 mm 0,0 UV-I 14 W/m 6,9 C 8,9 C 4,8 km/h (1 Bft) 91,67 %
09.05.2016 05:59 8,9 C 87 % 1012,7 hPa 0,0 l/m 2,9 km/h (1 Bft) O 90 0 min 0,000 mm 0,0 UV-I 14 W/m 6,9 C 8,9 C 3,2 km/h (1 Bft) 95,65 %
09.05.2016 06:00 8,9 C 88 % 1012,8 hPa 0,0 l/m 4,4 km/h (1 Bft) O-NO 60 0 min 0,000 mm 0,0 UV-I 16 W/m 7,0 C 8,9 C 6,4 km/h (2 Bft) 100,00 %
09.05.2016 06:01 8,9 C 88 % 1012,7 hPa 0,0 l/m 3,6 km/h (1 Bft) O-NO 69 0 min 0,000 mm 0,0 UV-I 16 W/m 7,0 C 8,9 C 4,8 km/h (1 Bft) 96,55 %
09.05.2016 06:02 8,9 C 88 % 1012,8 hPa 0,0 l/m 4,0 km/h (1 Bft) O-NO 70 0 min 0,000 mm 0,0 UV-I 16 W/m 7,0 C 8,9 C 6,4 km/h (2 Bft) 100,00 %
09.05.2016 06:03 8,9 C 88 % 1012,8 hPa 0,0 l/m 3,8 km/h (1 Bft) O-NO 70 0 min 0,000 mm 0,0 UV-I 16 W/m 7,0 C 8,9 C 4,8 km/h (1 Bft) 100,00 %
09.05.2016 06:04 8,9 C 88 % 1012,8 hPa 0,0 l/m 4,4 km/h (1 Bft) O-NO 70 0 min 0,000 mm 0,0 UV-I 16 W/m 7,0 C 8,9 C 4,8 km/h (1 Bft) 100,00 %
09.05.2016 06:05 9,0 C 88 % 1012,8 hPa 0,0 l/m 3,8 km/h (1 Bft) O-NO 70 0 min 0,000 mm 0,0 UV-I 17 W/m 7,1 C 9,0 C 4,8 km/h (1 Bft) 95,65 %
09.05.2016 06:06 9,0 C 87 % 1012,8 hPa 0,0 l/m 5,2 km/h (1 Bft) O-NO 63 0 min 0,000 mm 0,0 UV-I 18 W/m 7,0 C 9,0 C 6,4 km/h (2 Bft) 100,00 %
09.05.2016 06:07 9,1 C 87 % 1012,8 hPa 0,0 l/m 4,7 km/h (1 Bft) O-NO 58 0 min 0,000 mm 0,0 UV-I 18 W/m 7,1 C 9,1 C 6,4 km/h (2 Bft) 100,00 %
09.05.2016 06:08 9,1 C 87 % 1012,8 hPa 0,0 l/m 5,0 km/h (1 Bft) O-NO 73 0 min 0,000 mm 0,0 UV-I 18 W/m 7,1 C 9,1 C 6,4 km/h (2 Bft) 96,30 %
09.05.2016 06:09 9,1 C 87 % 1012,8 hPa 0,0 l/m 5,4 km/h (1 Bft) NO 53 0 min 0,000 mm 0,0 UV-I 18 W/m 7,1 C 9,1 C 6,4 km/h (2 Bft) 100,00 %
09.05.2016 06:10 9,1 C 87 % 1012,8 hPa 0,0 l/m 4,7 km/h (1 Bft) NO 54 0 min 0,000 mm 0,0 UV-I 18 W/m 7,1 C 9,1 C 6,4 km/h (2 Bft) 91,67 %
09.05.2016 06:11 9,2 C 87 % 1012,8 hPa 0,0 l/m 3,9 km/h (1 Bft) NO 54 0 min 0,000 mm 0,0 UV-I 19 W/m 7,2 C 9,2 C 4,8 km/h (1 Bft) 100,00 %
09.05.2016 06:12 9,2 C 87 % 1012,8 hPa 0,0 l/m 3,6 km/h (1 Bft) NO 53 0 min 0,000 mm 0,0 UV-I 19 W/m 7,2 C 9,2 C 4,8 km/h (1 Bft) 100,00 %
09.05.2016 06:13 9,2 C 87 % 1012,9 hPa 0,0 l/m 4,4 km/h (1 Bft) O-NO 61 0 min 0,000 mm 0,0 UV-I 19 W/m 7,2 C 9,2 C 6,4 km/h (2 Bft) 100,00 %
09.05.2016 06:14 9,2 C 87 % 1012,9 hPa 0,0 l/m 4,5 km/h (1 Bft) O-NO 61 0 min 0,000 mm 0,0 UV-I 19 W/m 7,2 C 9,2 C 6,4 km/h (2 Bft) 100,00 %
09.05.2016 06:15 9,3 C 87 % 1012,9 hPa 0,0 l/m 3,8 km/h (1 Bft) O-NO 61 0 min 0,000 mm 0,0 UV-I 20 W/m 7,2 C 9,3 C 4,8 km/h (1 Bft) 100,00 %
09.05.2016 06:16 9,3 C 87 % 1012,9 hPa 0,0 l/m 4,1 km/h (1 Bft) O-NO 61 0 min 0,000 mm 0,0 UV-I 21 W/m 7,2 C 9,3 C 4,8 km/h (1 Bft) 100,00 %
09.05.2016 06:17 9,3 C 87 % 1012,9 hPa 0,0 l/m 3,3 km/h (1 Bft) O-NO 61 0 min 0,000 mm 0,0 UV-I 21 W/m 7,2 C 9,3 C 4,8 km/h (1 Bft) 100,00 %
09.05.2016 06:18 9,3 C 86 % 1012,9 hPa 0,0 l/m 3,9 km/h (1 Bft) O-NO 61 0 min 0,000 mm 0,0 UV-I 21 W/m 7,1 C 9,3 C 6,4 km/h (2 Bft) 100,00 %
09.05.2016 06:19 9,3 C 86 % 1012,9 hPa 0,0 l/m 3,6 km/h (1 Bft) NO 55 0 min 0,000 mm 0,0 UV-I 21 W/m 7,1 C 9,3 C 6,4 km/h (2 Bft) 100,00 %
09.05.2016 06:20 9,3 C 86 % 1012,9 hPa 0,0 l/m 3,9 km/h (1 Bft) NO 54 0 min 0,000 mm 0,0 UV-I 21 W/m 7,1 C 9,3 C 4,8 km/h (1 Bft) 100,00 %
09.05.2016 06:21 9,3 C 86 % 1012,9 hPa 0,0 l/m 4,5 km/h (1 Bft) NO 54 0 min 0,000 mm 0,0 UV-I 21 W/m 7,1 C 9,3 C 6,4 km/h (2 Bft) 100,00 %
09.05.2016 06:22 9,3 C 87 % 1013,0 hPa 0,0 l/m 3,8 km/h (1 Bft) O-NO 59 0 min 0,000 mm 0,0 UV-I 22 W/m 7,2 C 9,3 C 4,8 km/h (1 Bft) 100,00 %
09.05.2016 06:23 9,3 C 87 % 1013,0 hPa 0,0 l/m 2,3 km/h (1 Bft) O-NO 59 0 min 0,000 mm 0,0 UV-I 23 W/m 7,2 C 9,3 C 4,8 km/h (1 Bft) 100,00 %
09.05.2016 06:24 9,3 C 87 % 1013,0 hPa 0,0 l/m 4,3 km/h (1 Bft) O-NO 60 0 min 0,000 mm 0,0 UV-I 23 W/m 7,2 C 9,3 C 6,4 km/h (2 Bft) 100,00 %
09.05.2016 06:25 9,3 C 87 % 1013,0 hPa 0,0 l/m 4,4 km/h (1 Bft) O-NO 61 0 min 0,000 mm 0,0 UV-I 23 W/m 7,2 C 9,3 C 6,4 km/h (2 Bft) 95,83 %
09.05.2016 06:26 9,3 C 86 % 1012,9 hPa 0,0 l/m 4,2 km/h (1 Bft) O-NO 61 0 min 0,000 mm 0,0 UV-I 23 W/m 7,1 C 9,3 C 6,4 km/h (2 Bft) 100,00 %
09.05.2016 06:27 9,3 C 86 % 1013,0 hPa 0,0 l/m 5,9 km/h (2 Bft) NO 52 0 min 0,000 mm 0,0 UV-I 23 W/m 7,1 C 9,3 C 8,0 km/h (2 Bft) 100,00 %
09.05.2016 06:28 9,4 C 86 % 1013,0 hPa 0,0 l/m 5,6 km/h (1 Bft) O-NO 59 0 min 0,000 mm 0,0 UV-I 23 W/m 7,2 C 9,4 C 8,0 km/h (2 Bft) 100,00 %
09.05.2016 06:29 9,4 C 86 % 1013,0 hPa 0,0 l/m 7,0 km/h (2 Bft) O-NO 69 0 min 0,000 mm 0,0 UV-I 24 W/m 7,2 C 9,0 C 9,7 km/h (2 Bft) 100,00 %
09.05.2016 06:30 9,4 C 86 % 1013,0 hPa 0,0 l/m 6,1 km/h (2 Bft) NO 51 0 min 0,000 mm 0,0 UV-I 25 W/m 7,2 C 9,4 C 8,0 km/h (2 Bft) 100,00 %
09.05.2016 06:31 9,4 C 86 % 1013,0 hPa 0,0 l/m 5,8 km/h (2 Bft) O-NO 58 0 min 0,000 mm 0,0 UV-I 25 W/m 7,2 C 9,4 C 9,7 km/h (2 Bft) 100,00 %
09.05.2016 06:32 9,5 C 86 % 1013,1 hPa 0,0 l/m 7,6 km/h (2 Bft) O-NO 59 0 min 0,000 mm 0,0 UV-I 25 W/m 7,3 C 8,6 C 12,9 km/h (3 Bft) 100,00 %
09.05.2016 06:33 9,6 C 86 % 1013,0 hPa 0,0 l/m 8,8 km/h (2 Bft) O 82 0 min 0,000 mm 0,0 UV-I 25 W/m 7,4 C 7,9 C 12,9 km/h (3 Bft) 100,00 %
09.05.2016 06:34 9,6 C 86 % 1013,0 hPa 0,0 l/m 8,4 km/h (2 Bft) O-NO 57 0 min 0,000 mm 0,0 UV-I 25 W/m 7,4 C 8,2 C 9,7 km/h (2 Bft) 100,00 %
09.05.2016 06:35 9,6 C 86 % 1013,0 hPa 0,0 l/m 8,2 km/h (2 Bft) O-NO 61 0 min 0,000 mm 0,0 UV-I 25 W/m 7,4 C 8,3 C 9,7 km/h (2 Bft) 100,00 %
09.05.2016 06:36 9,7 C 86 % 1013,0 hPa 0,0 l/m 6,4 km/h (2 Bft) O-NO 63 0 min 0,000 mm 0,0 UV-I 25 W/m 7,5 C 9,7 C 9,7 km/h (2 Bft) 100,00 %
09.05.2016 06:37 9,7 C 86 % 1013,0 hPa 0,0 l/m 7,9 km/h (2 Bft) O-NO 60 0 min 0,000 mm 0,0 UV-I 26 W/m 7,5 C 8,6 C 9,7 km/h (2 Bft) 100,00 %
09.05.2016 06:38 9,7 C 86 % 1013,1 hPa 0,0 l/m 8,7 km/h (2 Bft) O-NO 68 0 min 0,000 mm 0,0 UV-I 26 W/m 7,5 C 8,1 C 11,3 km/h (2 Bft) 100,00 %
09.05.2016 06:39 9,7 C 86 % 1013,1 hPa 0,0 l/m 9,3 km/h (2 Bft) O-NO 61 0 min 0,000 mm 0,0 UV-I 26 W/m 7,5 C 7,7 C 12,9 km/h (3 Bft) 100,00 %
09.05.2016 06:40 9,8 C 86 % 1013,0 hPa 0,0 l/m 8,5 km/h (2 Bft) NO 53 0 min 0,000 mm 0,0 UV-I 26 W/m 7,6 C 8,3 C 12,9 km/h (3 Bft) 96,30 %
09.05.2016 06:41 9,8 C 86 % 1013,1 hPa 0,0 l/m 7,5 km/h (2 Bft) NO 46 0 min 0,000 mm 0,0 UV-I 26 W/m 7,6 C 9,0 C 9,7 km/h (2 Bft) 100,00 %
09.05.2016 06:42 9,8 C 85 % 1013,1 hPa 0,0 l/m 9,7 km/h (2 Bft) O-NO 72 0 min 0,000 mm 0,0 UV-I 26 W/m 7,4 C 7,6 C 14,5 km/h (3 Bft) 100,00 %
09.05.2016 06:43 9,8 C 85 % 1013,1 hPa 0,0 l/m 7,5 km/h (2 Bft) O 90 0 min 0,000 mm 0,0 UV-I 26 W/m 7,4 C 9,0 C 9,7 km/h (2 Bft) 100,00 %
09.05.2016 06:44 9,8 C 85 % 1013,1 hPa 0,0 l/m 8,3 km/h (2 Bft) O-NO 67 0 min 0,000 mm 0,0 UV-I 29 W/m 7,4 C 8,4 C 11,3 km/h (2 Bft) 100,00 %
09.05.2016 06:45 9,9 C 85 % 1013,1 hPa 0,0 l/m 10,1 km/h (2 Bft) NO 56 0 min 0,000 mm 0,0 UV-I 49 W/m 7,5 C 7,4 C 16,1 km/h (3 Bft) 100,00 %
09.05.2016 06:46 9,9 C 85 % 1013,1 hPa 0,0 l/m 7,6 km/h (2 Bft) O-NO 60 0 min 0,000 mm 0,0 UV-I 82 W/m 7,5 C 9,0 C 8,0 km/h (2 Bft) 100,00 %
09.05.2016 06:47 9,9 C 85 % 1013,1 hPa 0,0 l/m 7,5 km/h (2 Bft) O-NO 61 0 min 0,000 mm 0,0 UV-I 96 W/m 7,5 C 9,1 C 9,7 km/h (2 Bft) 100,00 %
09.05.2016 06:48 9,9 C 85 % 1013,1 hPa 0,0 l/m 6,0 km/h (2 Bft) NO 48 0 min 0,000 mm 0,0 UV-I 100 W/m 7,5 C 9,9 C 11,3 km/h (2 Bft) 100,00 %
09.05.2016 06:49 9,9 C 85 % 1013,1 hPa 0,0 l/m 9,0 km/h (2 Bft) NO 48 0 min 0,000 mm 0,0 UV-I 102 W/m 7,5 C 8,1 C 12,9 km/h (3 Bft) 100,00 %
09.05.2016 06:50 10,0 C 85 % 1013,1 hPa 0,0 l/m 8,0 km/h (2 Bft) NO 56 0 min 0,000 mm 0,0 UV-I 104 W/m 7,6 C 8,9 C 12,9 km/h (3 Bft) 100,00 %
09.05.2016 06:51 10,1 C 85 % 1013,1 hPa 0,0 l/m 12,8 km/h (3 Bft) NO 55 0 min 0,000 mm 0,0 UV-I 106 W/m 7,7 C 6,2 C 19,3 km/h (3 Bft) 100,00 %
09.05.2016 06:52 10,1 C 85 % 1013,2 hPa 0,0 l/m 9,3 km/h (2 Bft) O-NO 65 1 min 0,000 mm 0,0 UV-I 110 W/m 7,7 C 8,1 C 14,5 km/h (3 Bft) 100,00 %
09.05.2016 06:53 10,1 C 85 % 1013,2 hPa 0,0 l/m 12,1 km/h (2 Bft) O-NO 66 1 min 0,000 mm 0,0 UV-I 113 W/m 7,7 C 6,6 C 16,1 km/h (3 Bft) 100,00 %
09.05.2016 06:54 10,2 C 85 % 1013,2 hPa 0,0 l/m 12,5 km/h (3 Bft) O-NO 69 1 min 0,000 mm 0,0 UV-I 114 W/m 7,8 C 6,5 C 16,1 km/h (3 Bft) 100,00 %
09.05.2016 06:55 10,2 C 84 % 1013,2 hPa 0,0 l/m 10,1 km/h (2 Bft) O-NO 60 1 min 0,000 mm 0,0 UV-I 119 W/m 7,6 C 7,8 C 16,1 km/h (3 Bft) 100,00 %
09.05.2016 06:56 10,2 C 84 % 1013,3 hPa 0,0 l/m 9,5 km/h (2 Bft) O-NO 76 1 min 0,000 mm 0,0 UV-I 121 W/m 7,6 C 8,1 C 12,9 km/h (3 Bft) 100,00 %
09.05.2016 06:57 10,3 C 84 % 1013,2 hPa 0,0 l/m 12,0 km/h (2 Bft) O-NO 59 1 min 0,000 mm 0,0 UV-I 125 W/m 7,7 C 6,9 C 16,1 km/h (3 Bft) 98,70 %
09.05.2016 06:58 10,3 C 84 % 1013,2 hPa 0,0 l/m 12,6 km/h (3 Bft) NO 37 1 min 0,000 mm 0,0 UV-I 128 W/m 7,7 C 6,6 C 16,1 km/h (3 Bft) 97,37 %
09.05.2016 06:59 10,3 C 84 % 1013,2 hPa 0,0 l/m 12,3 km/h (3 Bft) NO 53 1 min 0,000 mm 0,0 UV-I 132 W/m 7,7 C 6,7 C 14,5 km/h (3 Bft) 100,00 %
09.05.2016 07:00 10,4 C 84 % 1013,2 hPa 0,0 l/m 9,1 km/h (2 Bft) O 88 1 min 0,025 mm 0,0 UV-I 134 W/m 7,8 C 8,6 C 16,1 km/h (3 Bft) 100,00 %
09.05.2016 07:01 10,4 C 84 % 1013,2 hPa 0,0 l/m 11,9 km/h (2 Bft) NO 46 1 min 0,000 mm 0,0 UV-I 137 W/m 7,8 C 7,0 C 17,7 km/h (3 Bft) 100,00 %
09.05.2016 07:02 10,5 C 83 % 1013,3 hPa 0,0 l/m 15,1 km/h (3 Bft) O-NO 64 1 min 0,000 mm 0,0 UV-I 140 W/m 7,7 C 5,7 C 19,3 km/h (3 Bft) 100,00 %
09.05.2016 07:03 10,6 C 83 % 1013,2 hPa 0,0 l/m 11,8 km/h (2 Bft) O-NO 69 1 min 0,000 mm 0,0 UV-I 141 W/m 7,8 C 7,3 C 16,1 km/h (3 Bft) 91,67 %
09.05.2016 07:04 10,6 C 83 % 1013,2 hPa 0,0 l/m 10,4 km/h (2 Bft) O-NO 63 1 min 0,000 mm 0,0 UV-I 142 W/m 7,8 C 8,0 C 14,5 km/h (3 Bft) 100,00 %
09.05.2016 07:05 10,6 C 83 % 1013,2 hPa 0,0 l/m 11,2 km/h (2 Bft) O 80 1 min 0,000 mm 0,0 UV-I 142 W/m 7,8 C 7,6 C 17,7 km/h (3 Bft) 100,00 %
09.05.2016 07:06 10,7 C 83 % 1013,2 hPa 0,0 l/m 13,4 km/h (3 Bft) O 90 1 min 0,000 mm 0,0 UV-I 142 W/m 7,9 C 6,7 C 17,7 km/h (3 Bft) 100,00 %
09.05.2016 07:07 10,7 C 83 % 1013,2 hPa 0,0 l/m 11,0 km/h (2 Bft) O-NO 78 1 min 0,000 mm 0,0 UV-I 143 W/m 7,9 C 7,8 C 16,1 km/h (3 Bft) 100,00 %
09.05.2016 07:08 10,8 C 83 % 1013,2 hPa 0,0 l/m 13,9 km/h (3 Bft) O 80 1 min 0,000 mm 0,0 UV-I 144 W/m 8,0 C 6,6 C 19,3 km/h (3 Bft) 96,15 %
09.05.2016 07:09 10,8 C 82 % 1013,2 hPa 0,0 l/m 10,0 km/h (2 Bft) O-NO 71 1 min 0,000 mm 0,0 UV-I 144 W/m 7,9 C 8,5 C 16,1 km/h (3 Bft) 100,00 %
09.05.2016 07:10 10,8 C 82 % 1013,2 hPa 0,0 l/m 11,9 km/h (2 Bft) O-NO 68 1 min 0,000 mm 0,0 UV-I 144 W/m 7,9 C 7,5 C 16,1 km/h (3 Bft) 100,00 %
09.05.2016 07:11 10,9 C 82 % 1013,2 hPa 0,0 l/m 10,1 km/h (2 Bft) O-NO 66 1 min 0,000 mm 0,0 UV-I 144 W/m 7,9 C 8,5 C 12,9 km/h (3 Bft) 100,00 %
09.05.2016 07:12 10,9 C 82 % 1013,2 hPa 0,0 l/m 7,4 km/h (2 Bft) NO 51 1 min 0,000 mm 0,0 UV-I 146 W/m 7,9 C 10,2 C 11,3 km/h (2 Bft) 91,30 %
09.05.2016 07:13 11,0 C 82 % 1013,2 hPa 0,0 l/m 9,1 km/h (2 Bft) O-NO 63 1 min 0,000 mm 0,0 UV-I 147 W/m 8,0 C 9,2 C 14,5 km/h (3 Bft) 100,00 %
09.05.2016 07:14 11,1 C 82 % 1013,2 hPa 0,0 l/m 7,5 km/h (2 Bft) O-NO 78 1 min 0,000 mm 0,0 UV-I 150 W/m 8,1 C 10,3 C 11,3 km/h (2 Bft) 98,70 %
09.05.2016 07:15 11,1 C 82 % 1013,2 hPa 0,0 l/m 11,6 km/h (2 Bft) NO 53 1 min 0,000 mm 0,0 UV-I 154 W/m 8,1 C 8,0 C 17,7 km/h (3 Bft) 100,00 %
09.05.2016 07:16 11,1 C 82 % 1013,2 hPa 0,0 l/m 10,7 km/h (2 Bft) NO 55 1 min 0,000 mm 0,0 UV-I 157 W/m 8,1 C 8,4 C 14,5 km/h (3 Bft) 100,00 %
09.05.2016 07:17 11,2 C 81 % 1013,2 hPa 0,0 l/m 10,5 km/h (2 Bft) O-NO 78 1 min 0,000 mm 0,0 UV-I 162 W/m 8,1 C 8,7 C 14,5 km/h (3 Bft) 100,00 %
09.05.2016 07:18 11,2 C 81 % 1013,2 hPa 0,0 l/m 13,1 km/h (3 Bft) O-NO 66 1 min 0,000 mm 0,0 UV-I 170 W/m 8,1 C 7,4 C 16,1 km/h (3 Bft) 100,00 %
09.05.2016 07:19 11,2 C 81 % 1013,2 hPa 0,0 l/m 11,3 km/h (2 Bft) NO 49 1 min 0,000 mm 0,0 UV-I 176 W/m 8,1 C 8,2 C 17,7 km/h (3 Bft) 100,00 %
09.05.2016 07:20 11,3 C 81 % 1013,2 hPa 0,0 l/m 12,7 km/h (3 Bft) O-NO 65 1 min 0,000 mm 0,0 UV-I 182 W/m 8,2 C 7,7 C 17,7 km/h (3 Bft) 100,00 %
09.05.2016 07:21 11,3 C 81 % 1013,2 hPa 0,0 l/m 10,5 km/h (2 Bft) O-NO 65 1 min 0,000 mm 0,0 UV-I 189 W/m 8,2 C 8,8 C 17,7 km/h (3 Bft) 100,00 %
09.05.2016 07:22 11,3 C 81 % 1013,2 hPa 0,0 l/m 10,6 km/h (2 Bft) O-NO 64 1 min 0,000 mm 0,0 UV-I 196 W/m 8,2 C 8,7 C 14,5 km/h (3 Bft) 100,00 %
09.05.2016 07:23 11,4 C 81 % 1013,2 hPa 0,0 l/m 9,8 km/h (2 Bft) NO 46 1 min 0,000 mm 0,0 UV-I 202 W/m 8,3 C 9,3 C 12,9 km/h (3 Bft) 100,00 %
09.05.2016 07:24 11,4 C 81 % 1013,2 hPa 0,0 l/m 11,3 km/h (2 Bft) O-NO 78 1 min 0,000 mm 0,0 UV-I 208 W/m 8,3 C 8,5 C 16,1 km/h (3 Bft) 100,00 %
09.05.2016 07:25 11,4 C 81 % 1013,3 hPa 0,0 l/m 11,5 km/h (2 Bft) NO 52 1 min 0,000 mm 0,0 UV-I 214 W/m 8,3 C 8,4 C 16,1 km/h (3 Bft) 100,00 %
09.05.2016 07:26 11,5 C 80 % 1013,3 hPa 0,0 l/m 15,4 km/h (3 Bft) O-NO 62 1 min 0,000 mm 0,0 UV-I 218 W/m 8,2 C 6,8 C 22,5 km/h (4 Bft) 100,00 %
09.05.2016 07:27 11,5 C 80 % 1013,2 hPa 0,0 l/m 16,1 km/h (3 Bft) O-NO 67 1 min 0,000 mm 0,0 UV-I 222 W/m 8,2 C 6,5 C 20,9 km/h (4 Bft) 100,00 %
09.05.2016 07:28 11,6 C 80 % 1013,2 hPa 0,0 l/m 13,8 km/h (3 Bft) O 81 1 min 0,000 mm 0,0 UV-I 224 W/m 8,3 C 7,6 C 19,3 km/h (3 Bft) 100,00 %
09.05.2016 07:29 11,6 C 80 % 1013,2 hPa 0,0 l/m 16,3 km/h (3 Bft) O 81 1 min 0,000 mm 0,0 UV-I 229 W/m 8,3 C 6,6 C 19,3 km/h (3 Bft) 100,00 %
09.05.2016 07:30 11,6 C 79 % 1013,2 hPa 0,0 l/m 16,3 km/h (3 Bft) O-NO 70 1 min 0,000 mm 0,0 UV-I 230 W/m 8,1 C 6,6 C 19,3 km/h (3 Bft) 100,00 %
09.05.2016 07:31 11,7 C 79 % 1013,2 hPa 0,0 l/m 16,4 km/h (3 Bft) NO 54 1 min 0,000 mm 0,0 UV-I 233 W/m 8,2 C 6,7 C 20,9 km/h (4 Bft) 90,91 %
09.05.2016 07:32 11,7 C 80 % 1013,2 hPa 0,0 l/m 17,9 km/h (3 Bft) O-NO 74 1 min 0,000 mm 0,0 UV-I 236 W/m 8,4 C 6,1 C 22,5 km/h (4 Bft) 97,06 %
09.05.2016 07:33 11,7 C 79 % 1013,2 hPa 0,0 l/m 15,7 km/h (3 Bft) O-NO 67 1 min 0,000 mm 0,0 UV-I 238 W/m 8,2 C 6,9 C 22,5 km/h (4 Bft) 100,00 %
09.05.2016 07:34 11,7 C 79 % 1013,3 hPa 0,0 l/m 18,3 km/h (3 Bft) O-NO 61 1 min 0,000 mm 0,0 UV-I 241 W/m 8,2 C 6,0 C 24,1 km/h (4 Bft) 94,12 %
09.05.2016 07:35 11,8 C 79 % 1013,3 hPa 0,0 l/m 17,8 km/h (3 Bft) O 88 1 min 0,000 mm 0,0 UV-I 244 W/m 8,3 C 6,3 C 25,7 km/h (4 Bft) 97,37 %
09.05.2016 07:36 11,8 C 79 % 1013,2 hPa 0,0 l/m 18,8 km/h (3 Bft) O-NO 57 1 min 0,000 mm 0,5 UV-I 247 W/m 8,3 C 6,0 C 24,1 km/h (4 Bft) 96,30 %
09.05.2016 07:37 11,8 C 79 % 1013,3 hPa 0,0 l/m 16,4 km/h (3 Bft) NO 42 1 min 0,000 mm 0,5 UV-I 250 W/m 8,3 C 6,8 C 24,1 km/h (4 Bft) 96,15 %
09.05.2016 07:38 11,8 C 78 % 1013,3 hPa 0,0 l/m 19,0 km/h (3 Bft) O-NO 69 1 min 0,000 mm 0,5 UV-I 252 W/m 8,1 C 5,9 C 24,1 km/h (4 Bft) 100,00 %
09.05.2016 07:39 11,9 C 79 % 1013,2 hPa 0,0 l/m 13,7 km/h (3 Bft) O-NO 72 1 min 0,000 mm 0,5 UV-I 256 W/m 8,4 C 8,0 C 19,3 km/h (3 Bft) 95,65 %
09.05.2016 07:40 11,9 C 79 % 1013,2 hPa 0,0 l/m 18,6 km/h (3 Bft) NO 51 1 min 0,000 mm 0,5 UV-I 258 W/m 8,4 C 6,2 C 27,4 km/h (4 Bft) 100,00 %
09.05.2016 07:41 11,9 C 78 % 1013,2 hPa 0,0 l/m 17,4 km/h (3 Bft) NO 53 1 min 0,000 mm 0,5 UV-I 262 W/m 8,2 C 6,6 C 22,5 km/h (4 Bft) 95,65 %
09.05.2016 07:42 12,0 C 79 % 1013,2 hPa 0,0 l/m 17,7 km/h (3 Bft) O-NO 74 1 min 0,000 mm 0,5 UV-I 265 W/m 8,5 C 6,6 C 22,5 km/h (4 Bft) 95,24 %
09.05.2016 07:43 12,0 C 78 % 1013,2 hPa 0,0 l/m 17,7 km/h (3 Bft) NO 52 1 min 0,000 mm 0,5 UV-I 268 W/m 8,3 C 6,6 C 22,5 km/h (4 Bft) 96,15 %
09.05.2016 07:44 12,1 C 79 % 1013,3 hPa 0,0 l/m 13,0 km/h (3 Bft) O-NO 59 1 min 0,000 mm 0,5 UV-I 270 W/m 8,6 C 8,5 C 22,5 km/h (4 Bft) 93,33 %
09.05.2016 07:45 12,1 C 78 % 1013,3 hPa 0,0 l/m 18,7 km/h (3 Bft) O-NO 71 1 min 0,000 mm 0,5 UV-I 273 W/m 8,4 C 6,4 C 25,7 km/h (4 Bft) 100,00 %
09.05.2016 07:46 12,1 C 77 % 1013,3 hPa 0,0 l/m 15,6 km/h (3 Bft) NO 48 1 min 0,000 mm 0,5 UV-I 276 W/m 8,2 C 7,5 C 20,9 km/h (4 Bft) 96,15 %
09.05.2016 07:47 12,2 C 77 % 1013,3 hPa 0,0 l/m 17,1 km/h (3 Bft) NO 51 1 min 0,000 mm 0,6 UV-I 279 W/m 8,3 C 7,0 C 25,7 km/h (4 Bft) 100,00 %
09.05.2016 07:48 12,2 C 77 % 1013,3 hPa 0,0 l/m 19,0 km/h (3 Bft) O-NO 70 1 min 0,000 mm 0,6 UV-I 282 W/m 8,3 C 6,4 C 25,7 km/h (4 Bft) 95,65 %
09.05.2016 07:49 12,2 C 77 % 1013,3 hPa 0,0 l/m 12,9 km/h (3 Bft) NO 55 1 min 0,000 mm 0,6 UV-I 285 W/m 8,3 C 8,6 C 19,3 km/h (3 Bft) 100,00 %
09.05.2016 07:50 12,2 C 77 % 1013,3 hPa 0,0 l/m 16,5 km/h (3 Bft) O-NO 67 1 min 0,000 mm 0,6 UV-I 288 W/m 8,3 C 7,3 C 20,9 km/h (4 Bft) 92,31 %
09.05.2016 07:51 12,3 C 77 % 1013,4 hPa 0,0 l/m 17,4 km/h (3 Bft) O-NO 67 1 min 0,000 mm 0,6 UV-I 292 W/m 8,4 C 7,1 C 22,5 km/h (4 Bft) 96,30 %
09.05.2016 07:52 12,3 C 77 % 1013,3 hPa 0,0 l/m 15,2 km/h (3 Bft) NO 53 1 min 0,000 mm 0,6 UV-I 294 W/m 8,4 C 7,8 C 20,9 km/h (4 Bft) 100,00 %
09.05.2016 07:53 12,3 C 77 % 1013,3 hPa 0,0 l/m 10,8 km/h (2 Bft) O-NO 59 1 min 0,000 mm 0,6 UV-I 296 W/m 8,4 C 9,7 C 16,1 km/h (3 Bft) 96,67 %
09.05.2016 07:54 12,3 C 77 % 1013,4 hPa 0,0 l/m 14,4 km/h (3 Bft) O-NO 63 1 min 0,000 mm 0,6 UV-I 300 W/m 8,4 C 8,2 C 19,3 km/h (3 Bft) 100,00 %
09.05.2016 07:55 12,4 C 77 % 1013,4 hPa 0,0 l/m 16,0 km/h (3 Bft) O-NO 78 1 min 0,000 mm 0,6 UV-I 301 W/m 8,5 C 7,7 C 20,9 km/h (4 Bft) 95,83 %
09.05.2016 07:56 12,4 C 77 % 1013,4 hPa 0,0 l/m 11,1 km/h (2 Bft) NO 54 1 min 0,000 mm 0,6 UV-I 301 W/m 8,5 C 9,7 C 17,7 km/h (3 Bft) 100,00 %
09.05.2016 07:57 12,4 C 76 % 1013,4 hPa 0,0 l/m 13,8 km/h (3 Bft) O-NO 71 1 min 0,000 mm 0,7 UV-I 301 W/m 8,3 C 8,5 C 17,7 km/h (3 Bft) 96,55 %
09.05.2016 07:58 12,5 C 77 % 1013,3 hPa 0,0 l/m 10,8 km/h (2 Bft) O-NO 76 1 min 0,000 mm 0,7 UV-I 299 W/m 8,6 C 10,0 C 14,5 km/h (3 Bft) 100,00 %
09.05.2016 07:59 12,6 C 77 % 1013,4 hPa 0,0 l/m 10,8 km/h (2 Bft) O 94 1 min 0,000 mm 0,7 UV-I 297 W/m 8,7 C 10,1 C 17,7 km/h (3 Bft) 96,15 %
09.05.2016 08:00 12,6 C 77 % 1013,4 hPa 0,0 l/m 9,6 km/h (2 Bft) O-NO 62 1 min 0,127 mm 0,7 UV-I 294 W/m 8,7 C 10,7 C 14,5 km/h (3 Bft) 91,30 %
09.05.2016 08:01 12,6 C 77 % 1013,3 hPa 0,0 l/m 17,1 km/h (3 Bft) O-NO 65 1 min 0,000 mm 0,7 UV-I 291 W/m 8,7 C 7,5 C 24,1 km/h (4 Bft) 100,00 %
09.05.2016 08:02 12,7 C 76 % 1013,3 hPa 0,0 l/m 15,4 km/h (3 Bft) O-NO 78 1 min 0,000 mm 0,7 UV-I 287 W/m 8,6 C 8,3 C 19,3 km/h (3 Bft) 100,00 %
09.05.2016 08:03 12,7 C 76 % 1013,3 hPa 0,0 l/m 15,0 km/h (3 Bft) O-NO 73 1 min 0,000 mm 0,7 UV-I 282 W/m 8,6 C 8,4 C 19,3 km/h (3 Bft) 100,00 %
09.05.2016 08:04 12,7 C 76 % 1013,4 hPa 0,0 l/m 13,2 km/h (3 Bft) O 84 1 min 0,000 mm 0,7 UV-I 278 W/m 8,6 C 9,1 C 22,5 km/h (4 Bft) 92,59 %
09.05.2016 08:05 12,8 C 75 % 1013,3 hPa 0,0 l/m 18,8 km/h (3 Bft) O 84 1 min 0,000 mm 0,7 UV-I 275 W/m 8,5 C 7,3 C 22,5 km/h (4 Bft) 98,55 %
09.05.2016 08:06 12,8 C 76 % 1013,3 hPa 0,0 l/m 16,0 km/h (3 Bft) O-NO 71 1 min 0,000 mm 0,8 UV-I 272 W/m 8,7 C 8,2 C 24,1 km/h (4 Bft) 95,45 %
09.05.2016 08:07 12,8 C 76 % 1013,4 hPa 0,0 l/m 19,4 km/h (3 Bft) O 96 1 min 0,000 mm 0,8 UV-I 272 W/m 8,7 C 7,1 C 25,7 km/h (4 Bft) 100,00 %
09.05.2016 08:08 12,9 C 75 % 1013,4 hPa 0,0 l/m 20,1 km/h (4 Bft) O-NO 72 1 min 0,000 mm 0,8 UV-I 271 W/m 8,6 C 7,0 C 29,0 km/h (5 Bft) 100,00 %
09.05.2016 08:09 12,9 C 74 % 1013,4 hPa 0,0 l/m 22,0 km/h (4 Bft) O-NO 58 1 min 0,000 mm 0,8 UV-I 273 W/m 8,4 C 6,5 C 27,4 km/h (4 Bft) 100,00 %
09.05.2016 08:10 12,9 C 74 % 1013,4 hPa 0,0 l/m 21,2 km/h (4 Bft) O-NO 77 1 min 0,000 mm 0,8 UV-I 282 W/m 8,4 C 6,7 C 25,7 km/h (4 Bft) 100,00 %
09.05.2016 08:11 12,9 C 74 % 1013,4 hPa 0,0 l/m 20,5 km/h (4 Bft) NO 50 1 min 0,000 mm 0,8 UV-I 288 W/m 8,4 C 6,9 C 25,7 km/h (4 Bft) 95,65 %
09.05.2016 08:12 12,9 C 74 % 1013,3 hPa 0,0 l/m 17,3 km/h (3 Bft) O-NO 63 1 min 0,000 mm 0,8 UV-I 288 W/m 8,4 C 7,9 C 22,5 km/h (4 Bft) 100,00 %
09.05.2016 08:13 13,0 C 75 % 1013,4 hPa 0,0 l/m 17,5 km/h (3 Bft) O-NO 64 1 min 0,000 mm 0,8 UV-I 306 W/m 8,7 C 7,9 C 22,5 km/h (4 Bft) 96,15 %
09.05.2016 08:14 13,0 C 74 % 1013,4 hPa 0,0 l/m 18,3 km/h (3 Bft) NO 44 1 min 0,000 mm 0,9 UV-I 331 W/m 8,5 C 7,7 C 20,9 km/h (4 Bft) 100,00 %
09.05.2016 08:15 13,1 C 74 % 1013,4 hPa 0,0 l/m 17,1 km/h (3 Bft) O-NO 70 1 min 0,000 mm 0,9 UV-I 342 W/m 8,6 C 8,2 C 20,9 km/h (4 Bft) 100,00 %
09.05.2016 08:16 13,1 C 75 % 1013,5 hPa 0,0 l/m 12,6 km/h (3 Bft) NO 40 1 min 0,000 mm 0,9 UV-I 353 W/m 8,8 C 9,8 C 19,3 km/h (3 Bft) 100,00 %
09.05.2016 08:17 13,2 C 75 % 1013,4 hPa 0,0 l/m 16,7 km/h (3 Bft) O-NO 69 1 min 0,000 mm 0,9 UV-I 360 W/m 8,9 C 8,4 C 22,5 km/h (4 Bft) 100,00 %
09.05.2016 08:18 13,2 C 74 % 1013,4 hPa 0,0 l/m 16,8 km/h (3 Bft) O-NO 67 1 min 0,000 mm 0,9 UV-I 364 W/m 8,7 C 8,4 C 20,9 km/h (4 Bft) 100,00 %
09.05.2016 08:19 13,2 C 73 % 1013,4 hPa 0,0 l/m 21,2 km/h (4 Bft) O 80 1 min 0,000 mm 0,9 UV-I 370 W/m 8,5 C 7,1 C 27,4 km/h (4 Bft) 100,00 %
09.05.2016 08:20 13,3 C 74 % 1013,5 hPa 0,0 l/m 16,6 km/h (3 Bft) O 80 1 min 0,000 mm 0,9 UV-I 373 W/m 8,8 C 8,6 C 22,5 km/h (4 Bft) 100,00 %
09.05.2016 08:21 13,3 C 74 % 1013,5 hPa 0,0 l/m 19,8 km/h (3 Bft) NO 53 1 min 0,000 mm 0,9 UV-I 376 W/m 8,8 C 7,6 C 22,5 km/h (4 Bft) 100,00 %
09.05.2016 08:22 13,3 C 73 % 1013,5 hPa 0,0 l/m 22,1 km/h (4 Bft) O 80 1 min 0,000 mm 1,0 UV-I 378 W/m 8,6 C 7,0 C 29,0 km/h (5 Bft) 100,00 %
09.05.2016 08:23 13,3 C 73 % 1013,4 hPa 0,0 l/m 18,3 km/h (3 Bft) O-NO 72 1 min 0,000 mm 1,0 UV-I 381 W/m 8,6 C 8,0 C 27,4 km/h (4 Bft) 100,00 %
09.05.2016 08:24 13,4 C 74 % 1013,5 hPa 0,0 l/m 11,5 km/h (2 Bft) O-NO 63 1 min 0,000 mm 1,0 UV-I 384 W/m 8,9 C 10,6 C 17,7 km/h (3 Bft) 100,00 %
09.05.2016 08:25 13,5 C 75 % 1013,5 hPa 0,0 l/m 11,4 km/h (2 Bft) O-NO 69 1 min 0,000 mm 1,0 UV-I 386 W/m 9,2 C 10,8 C 14,5 km/h (3 Bft) 100,00 %
09.05.2016 08:26 13,6 C 74 % 1013,5 hPa 0,0 l/m 11,1 km/h (2 Bft) NO 55 1 min 0,000 mm 1,0 UV-I 389 W/m 9,1 C 11,1 C 14,5 km/h (3 Bft) 100,00 %
09.05.2016 08:27 13,6 C 74 % 1013,4 hPa 0,0 l/m 14,1 km/h (3 Bft) NO 50 1 min 0,000 mm 1,0 UV-I 390 W/m 9,1 C 9,8 C 19,3 km/h (3 Bft) 100,00 %
09.05.2016 08:28 13,7 C 73 % 1013,4 hPa 0,0 l/m 13,4 km/h (3 Bft) O-NO 65 1 min 0,000 mm 1,0 UV-I 392 W/m 8,9 C 10,2 C 17,7 km/h (3 Bft) 100,00 %
09.05.2016 08:29 13,7 C 73 % 1013,4 hPa 0,0 l/m 15,4 km/h (3 Bft) O-NO 65 1 min 0,000 mm 1,1 UV-I 392 W/m 8,9 C 9,5 C 19,3 km/h (3 Bft) 100,00 %
09.05.2016 08:30 13,8 C 73 % 1013,5 hPa 0,0 l/m 12,4 km/h (3 Bft) O-NO 68 1 min 0,000 mm 1,1 UV-I 392 W/m 9,0 C 10,7 C 17,7 km/h (3 Bft) 100,00 %
09.05.2016 08:31 13,8 C 74 % 1013,5 hPa 0,0 l/m 10,0 km/h (2 Bft) O-NO 74 1 min 0,000 mm 1,1 UV-I 392 W/m 9,2 C 11,8 C 14,5 km/h (3 Bft) 100,00 %
09.05.2016 08:32 13,8 C 73 % 1013,5 hPa 0,0 l/m 13,8 km/h (3 Bft) O-NO 57 1 min 0,000 mm 1,1 UV-I 391 W/m 9,0 C 10,2 C 17,7 km/h (3 Bft) 100,00 %
09.05.2016 08:33 13,9 C 73 % 1013,5 hPa 0,0 l/m 14,3 km/h (3 Bft) N-NO 25 1 min 0,000 mm 1,1 UV-I 390 W/m 9,1 C 10,1 C 19,3 km/h (3 Bft) 100,00 %
09.05.2016 08:34 13,9 C 72 % 1013,5 hPa 0,0 l/m 10,8 km/h (2 Bft) O-NO 63 1 min 0,000 mm 1,1 UV-I 390 W/m 8,9 C 11,5 C 17,7 km/h (3 Bft) 100,00 %
09.05.2016 08:35 13,9 C 73 % 1013,5 hPa 0,0 l/m 15,9 km/h (3 Bft) NO 49 1 min 0,000 mm 1,1 UV-I 388 W/m 9,1 C 9,6 C 19,3 km/h (3 Bft) 100,00 %
09.05.2016 08:36 14,0 C 72 % 1013,6 hPa 0,0 l/m 12,6 km/h (3 Bft) NO 44 1 min 0,000 mm 1,2 UV-I 386 W/m 9,0 C 10,9 C 17,7 km/h (3 Bft) 100,00 %
09.05.2016 08:37 14,0 C 72 % 1013,5 hPa 0,0 l/m 10,7 km/h (2 Bft) NO 44 1 min 0,000 mm 1,2 UV-I 385 W/m 9,0 C 11,7 C 17,7 km/h (3 Bft) 100,00 %
09.05.2016 08:38 14,1 C 72 % 1013,5 hPa 0,0 l/m 11,1 km/h (2 Bft) NO 56 1 min 0,000 mm 1,2 UV-I 383 W/m 9,1 C 11,6 C 16,1 km/h (3 Bft) 100,00 %
09.05.2016 08:39 14,1 C 72 % 1013,5 hPa 0,0 l/m 12,2 km/h (2 Bft) O-NO 62 1 min 0,000 mm 1,2 UV-I 380 W/m 9,1 C 11,2 C 17,7 km/h (3 Bft) 100,00 %
09.05.2016 08:40 14,1 C 73 % 1013,5 hPa 0,0 l/m 11,9 km/h (2 Bft) O-NO 70 1 min 0,000 mm 1,2 UV-I 373 W/m 9,3 C 11,3 C 16,1 km/h (3 Bft) 100,00 %
09.05.2016 08:41 14,2 C 72 % 1013,5 hPa 0,0 l/m 12,5 km/h (3 Bft) NO 40 1 min 0,000 mm 1,2 UV-I 364 W/m 9,2 C 11,1 C 17,7 km/h (3 Bft) 100,00 %
09.05.2016 08:42 14,2 C 71 % 1013,5 hPa 0,0 l/m 12,6 km/h (3 Bft) N-NO 30 1 min 0,000 mm 1,2 UV-I 352 W/m 9,0 C 11,1 C 19,3 km/h (3 Bft) 100,00 %
09.05.2016 08:43 14,2 C 71 % 1013,6 hPa 0,0 l/m 14,8 km/h (3 Bft) NO 47 1 min 0,000 mm 1,3 UV-I 343 W/m 9,0 C 10,3 C 20,9 km/h (4 Bft) 100,00 %
09.05.2016 08:44 14,2 C 71 % 1013,5 hPa 0,0 l/m 18,8 km/h (3 Bft) NO 51 1 min 0,000 mm 1,3 UV-I 332 W/m 9,0 C 9,0 C 20,9 km/h (4 Bft) 96,30 %
09.05.2016 08:45 14,2 C 71 % 1013,5 hPa 0,0 l/m 19,9 km/h (4 Bft) O-NO 57 1 min 0,000 mm 1,3 UV-I 322 W/m 9,0 C 8,7 C 25,7 km/h (4 Bft) 100,00 %
09.05.2016 08:46 14,2 C 70 % 1013,5 hPa 0,0 l/m 16,9 km/h (3 Bft) O 80 1 min 0,000 mm 1,3 UV-I 308 W/m 8,8 C 9,6 C 25,7 km/h (4 Bft) 100,00 %
09.05.2016 08:47 14,2 C 70 % 1013,5 hPa 0,0 l/m 15,8 km/h (3 Bft) O-NO 74 1 min 0,000 mm 1,3 UV-I 298 W/m 8,8 C 10,0 C 20,9 km/h (4 Bft) 100,00 %
09.05.2016 08:48 14,2 C 71 % 1013,5 hPa 0,0 l/m 15,8 km/h (3 Bft) O-NO 76 1 min 0,000 mm 1,3 UV-I 290 W/m 9,0 C 10,0 C 20,9 km/h (4 Bft) 95,83 %
09.05.2016 08:49 14,3 C 71 % 1013,5 hPa 0,0 l/m 18,4 km/h (3 Bft) O 94 0 min 0,000 mm 1,3 UV-I 280 W/m 9,1 C 9,3 C 22,5 km/h (4 Bft) 100,00 %
09.05.2016 08:50 14,3 C 70 % 1013,5 hPa 0,0 l/m 16,7 km/h (3 Bft) O 88 0 min 0,000 mm 1,4 UV-I 275 W/m 8,9 C 9,8 C 20,9 km/h (4 Bft) 100,00 %
09.05.2016 08:51 14,3 C 71 % 1013,5 hPa 0,0 l/m 15,7 km/h (3 Bft) O-NO 70 0 min 0,000 mm 1,4 UV-I 275 W/m 9,1 C 10,1 C 17,7 km/h (3 Bft) 100,00 %
09.05.2016 08:52 14,3 C 71 % 1013,5 hPa 0,0 l/m 15,8 km/h (3 Bft) O-NO 76 0 min 0,000 mm 1,4 UV-I 281 W/m 9,1 C 10,1 C 19,3 km/h (3 Bft) 100,00 %
09.05.2016 08:53 14,3 C 71 % 1013,5 hPa 0,0 l/m 10,9 km/h (2 Bft) O 84 1 min 0,000 mm 1,4 UV-I 290 W/m 9,1 C 11,9 C 14,5 km/h (3 Bft) 100,00 %
09.05.2016 08:54 14,4 C 70 % 1013,5 hPa 0,0 l/m 12,7 km/h (3 Bft) O-NO 67 1 min 0,000 mm 1,4 UV-I 301 W/m 9,0 C 11,3 C 16,1 km/h (3 Bft) 95,83 %
09.05.2016 08:55 14,4 C 70 % 1013,5 hPa 0,0 l/m 15,1 km/h (3 Bft) N 11 1 min 0,000 mm 1,4 UV-I 313 W/m 9,0 C 10,4 C 22,5 km/h (4 Bft) 100,00 %
09.05.2016 08:56 14,4 C 70 % 1013,4 hPa 0,0 l/m 16,7 km/h (3 Bft) NO 42 1 min 0,000 mm 1,5 UV-I 328 W/m 9,0 C 9,9 C 20,9 km/h (4 Bft) 96,15 %
09.05.2016 08:57 14,4 C 71 % 1013,4 hPa 0,0 l/m 10,6 km/h (2 Bft) NO 53 1 min 0,000 mm 1,5 UV-I 338 W/m 9,2 C 12,2 C 16,1 km/h (3 Bft) 100,00 %
09.05.2016 08:58 14,5 C 72 % 1013,5 hPa 0,0 l/m 14,4 km/h (3 Bft) O-NO 63 1 min 0,000 mm 1,5 UV-I 352 W/m 9,5 C 10,8 C 19,3 km/h (3 Bft) 100,00 %
09.05.2016 08:59 14,6 C 71 % 1013,5 hPa 0,0 l/m 12,5 km/h (3 Bft) O-NO 63 1 min 0,000 mm 1,5 UV-I 365 W/m 9,4 C 11,6 C 17,7 km/h (3 Bft) 100,00 %
09.05.2016 09:00 14,6 C 71 % 1013,5 hPa 0,0 l/m 8,2 km/h (2 Bft) O-NO 65 1 min 0,229 mm 1,5 UV-I 374 W/m 9,4 C 13,6 C 12,9 km/h (3 Bft) 100,00 %
09.05.2016 09:02 14,7 C 71 % 1013,4 hPa 0,0 l/m 10,8 km/h (2 Bft) O-NO 70 2 min 0,000 mm 1,5 UV-I 387 W/m 9,5 C 12,4 C 17,7 km/h (3 Bft) 100,00 %
09.05.2016 09:03 14,7 C 71 % 1013,5 hPa 0,0 l/m 15,0 km/h (3 Bft) O-NO 64 1 min 0,000 mm 1,6 UV-I 401 W/m 9,5 C 10,8 C 20,9 km/h (4 Bft) 100,00 %
09.05.2016 09:04 14,8 C 70 % 1013,4 hPa 0,0 l/m 14,1 km/h (3 Bft) NO 51 1 min 0,000 mm 1,6 UV-I 408 W/m 9,4 C 11,3 C 17,7 km/h (3 Bft) 100,00 %
09.05.2016 09:05 14,8 C 70 % 1013,4 hPa 0,0 l/m 13,7 km/h (3 Bft) NO 48 1 min 0,000 mm 1,6 UV-I 416 W/m 9,4 C 11,4 C 17,7 km/h (3 Bft) 100,00 %
09.05.2016 09:06 14,8 C 70 % 1013,5 hPa 0,0 l/m 11,7 km/h (2 Bft) O-NO 58 1 min 0,000 mm 1,6 UV-I 423 W/m 9,4 C 12,2 C 16,1 km/h (3 Bft) 96,15 %
09.05.2016 09:07 14,8 C 70 % 1013,4 hPa 0,0 l/m 12,3 km/h (3 Bft) O-NO 59 1 min 0,000 mm 1,6 UV-I 431 W/m 9,4 C 11,9 C 17,7 km/h (3 Bft) 100,00 %
09.05.2016 09:08 14,8 C 71 % 1013,4 hPa 0,0 l/m 10,4 km/h (2 Bft) NO 55 1 min 0,000 mm 1,7 UV-I 438 W/m 9,6 C 12,7 C 14,5 km/h (3 Bft) 100,00 %
09.05.2016 09:09 14,9 C 71 % 1013,4 hPa 0,0 l/m 8,5 km/h (2 Bft) O-NO 65 1 min 0,000 mm 1,7 UV-I 446 W/m 9,7 C 13,7 C 14,5 km/h (3 Bft) 100,00 %
09.05.2016 09:10 15,0 C 72 % 1013,4 hPa 0,0 l/m 11,5 km/h (2 Bft) O-NO 59 1 min 0,000 mm 1,7 UV-I 454 W/m 10,0 C 12,5 C 14,5 km/h (3 Bft) 100,00 %
09.05.2016 09:11 15,1 C 71 % 1013,5 hPa 0,0 l/m 9,8 km/h (2 Bft) O-NO 63 1 min 0,000 mm 1,7 UV-I 464 W/m 9,9 C 13,3 C 16,1 km/h (3 Bft) 100,00 %
09.05.2016 09:12 15,1 C 69 % 1013,4 hPa 0,0 l/m 15,1 km/h (3 Bft) NO 51 1 min 0,000 mm 1,7 UV-I 472 W/m 9,5 C 11,3 C 20,9 km/h (4 Bft) 95,65 %
09.05.2016 09:13 15,1 C 70 % 1013,4 hPa 0,0 l/m 14,1 km/h (3 Bft) O-NO 74 1 min 0,000 mm 1,8 UV-I 480 W/m 9,7 C 11,6 C 17,7 km/h (3 Bft) 100,00 %
09.05.2016 09:14 15,1 C 69 % 1013,5 hPa 0,0 l/m 13,2 km/h (3 Bft) O-NO 65 1 min 0,000 mm 1,8 UV-I 489 W/m 9,5 C 11,9 C 16,1 km/h (3 Bft) 100,00 %
09.05.2016 09:15 15,2 C 69 % 1013,5 hPa 0,0 l/m 9,6 km/h (2 Bft) O-NO 74 1 min 0,000 mm 1,8 UV-I 498 W/m 9,6 C 13,5 C 16,1 km/h (3 Bft) 100,00 %
09.05.2016 09:16 15,2 C 69 % 1013,4 hPa 0,0 l/m 15,7 km/h (3 Bft) O 82 1 min 0,000 mm 1,8 UV-I 504 W/m 9,6 C 11,2 C 22,5 km/h (4 Bft) 100,00 %
09.05.2016 09:17 15,2 C 69 % 1013,4 hPa 0,0 l/m 17,6 km/h (3 Bft) O-NO 61 1 min 0,000 mm 1,8 UV-I 512 W/m 9,6 C 10,6 C 22,5 km/h (4 Bft) 100,00 %
09.05.2016 09:18 15,2 C 69 % 1013,5 hPa 0,0 l/m 19,6 km/h (3 Bft) O-NO 70 1 min 0,000 mm 1,9 UV-I 519 W/m 9,6 C 10,1 C 22,5 km/h (4 Bft) 96,15 %
09.05.2016 09:19 15,2 C 69 % 1013,5 hPa 0,0 l/m 14,8 km/h (3 Bft) O-NO 65 1 min 0,000 mm 1,9 UV-I 526 W/m 9,6 C 11,5 C 20,9 km/h (4 Bft) 100,00 %
09.05.2016 09:20 15,2 C 69 % 1013,5 hPa 0,0 l/m 14,7 km/h (3 Bft) O-NO 58 1 min 0,000 mm 1,9 UV-I 531 W/m 9,6 C 11,5 C 22,5 km/h (4 Bft) 96,30 %
09.05.2016 09:21 15,2 C 68 % 1013,5 hPa 0,0 l/m 19,3 km/h (3 Bft) O-NO 66 1 min 0,000 mm 1,9 UV-I 535 W/m 9,3 C 10,2 C 24,1 km/h (4 Bft) 92,31 %
09.05.2016 09:22 15,2 C 68 % 1013,5 hPa 0,0 l/m 18,2 km/h (3 Bft) O-NO 59 1 min 0,000 mm 1,9 UV-I 540 W/m 9,3 C 10,5 C 20,9 km/h (4 Bft) 96,30 %
09.05.2016 09:23 15,2 C 68 % 1013,5 hPa 0,0 l/m 16,7 km/h (3 Bft) O-NO 57 1 min 0,000 mm 1,9 UV-I 545 W/m 9,3 C 10,9 C 22,5 km/h (4 Bft) 95,65 %
09.05.2016 09:24 15,2 C 68 % 1013,5 hPa 0,0 l/m 17,4 km/h (3 Bft) O-NO 72 1 min 0,000 mm 2,0 UV-I 548 W/m 9,3 C 10,7 C 22,5 km/h (4 Bft) 100,00 %
09.05.2016 09:25 15,2 C 68 % 1013,5 hPa 0,0 l/m 17,8 km/h (3 Bft) O 85 1 min 0,000 mm 2,0 UV-I 550 W/m 9,3 C 10,6 C 20,9 km/h (4 Bft) 96,15 %
09.05.2016 09:26 15,2 C 68 % 1013,5 hPa 0,0 l/m 16,1 km/h (3 Bft) O-NO 68 1 min 0,000 mm 2,0 UV-I 554 W/m 9,3 C 11,1 C 22,5 km/h (4 Bft) 95,83 %
09.05.2016 09:27 15,3 C 70 % 1013,5 hPa 0,0 l/m 15,6 km/h (3 Bft) O-NO 63 1 min 0,000 mm 2,0 UV-I 556 W/m 9,9 C 11,4 C 20,9 km/h (4 Bft) 96,15 %
09.05.2016 09:28 15,3 C 69 % 1013,5 hPa 0,0 l/m 14,7 km/h (3 Bft) O 80 1 min 0,000 mm 2,0 UV-I 558 W/m 9,6 C 11,7 C 19,3 km/h (3 Bft) 95,83 %
09.05.2016 09:29 15,4 C 69 % 1013,5 hPa 0,0 l/m 13,4 km/h (3 Bft) O-NO 65 1 min 0,000 mm 2,0 UV-I 562 W/m 9,7 C 12,2 C 17,7 km/h (3 Bft) 100,00 %
09.05.2016 09:30 15,4 C 68 % 1013,5 hPa 0,0 l/m 18,0 km/h (3 Bft) O-NO 77 1 min 0,000 mm 2,1 UV-I 563 W/m 9,5 C 10,8 C 24,1 km/h (4 Bft) 96,30 %
09.05.2016 09:31 15,4 C 66 % 1013,5 hPa 0,0 l/m 14,0 km/h (3 Bft) NO 55 1 min 0,000 mm 2,1 UV-I 566 W/m 9,1 C 12,0 C 19,3 km/h (3 Bft) 100,00 %
09.05.2016 09:32 15,4 C 68 % 1013,5 hPa 0,0 l/m 19,2 km/h (3 Bft) O-NO 58 1 min 0,000 mm 2,1 UV-I 568 W/m 9,5 C 10,5 C 25,7 km/h (4 Bft) 91,67 %
09.05.2016 09:33 15,4 C 68 % 1013,5 hPa 0,0 l/m 16,5 km/h (3 Bft) O-NO 61 1 min 0,000 mm 2,1 UV-I 570 W/m 9,5 C 11,2 C 19,3 km/h (3 Bft) 100,00 %
09.05.2016 09:34 15,5 C 68 % 1013,6 hPa 0,0 l/m 15,6 km/h (3 Bft) O-NO 69 1 min 0,000 mm 2,1 UV-I 572 W/m 9,6 C 11,6 C 19,3 km/h (3 Bft) 96,55 %
09.05.2016 09:35 15,6 C 69 % 1013,6 hPa 0,0 l/m 10,4 km/h (2 Bft) NO 48 1 min 0,000 mm 2,2 UV-I 574 W/m 9,9 C 13,6 C 14,5 km/h (3 Bft) 100,00 %
09.05.2016 09:36 15,7 C 68 % 1013,5 hPa 0,0 l/m 15,5 km/h (3 Bft) NO 53 1 min 0,000 mm 2,2 UV-I 577 W/m 9,8 C 11,9 C 17,7 km/h (3 Bft) 96,15 %
09.05.2016 09:37 15,8 C 69 % 1013,5 hPa 0,0 l/m 16,9 km/h (3 Bft) NO 41 1 min 0,000 mm 2,2 UV-I 579 W/m 10,1 C 11,6 C 20,9 km/h (4 Bft) 100,00 %
09.05.2016 09:38 15,8 C 69 % 1013,6 hPa 0,0 l/m 14,6 km/h (3 Bft) O-NO 71 1 min 0,000 mm 2,2 UV-I 582 W/m 10,1 C 12,3 C 19,3 km/h (3 Bft) 97,56 %
09.05.2016 09:39 15,8 C 68 % 1013,5 hPa 0,0 l/m 17,0 km/h (3 Bft) O-NO 57 1 min 0,000 mm 2,2 UV-I 584 W/m 9,9 C 11,6 C 20,9 km/h (4 Bft) 91,67 %
09.05.2016 09:40 15,8 C 67 % 1013,5 hPa 0,0 l/m 15,7 km/h (3 Bft) O-NO 62 1 min 0,000 mm 2,3 UV-I 587 W/m 9,7 C 11,9 C 22,5 km/h (4 Bft) 100,00 %
09.05.2016 09:42 15,8 C 68 % 1013,5 hPa 0,0 l/m 19,3 km/h (3 Bft) O-NO 61 2 min 0,000 mm 2,3 UV-I 564 W/m 9,9 C 11,0 C 25,7 km/h (4 Bft) 98,00 %
09.05.2016 09:43 15,8 C 68 % 1013,5 hPa 0,0 l/m 15,4 km/h (3 Bft) O-NO 57 1 min 0,000 mm 2,3 UV-I 575 W/m 9,9 C 12,0 C 20,9 km/h (4 Bft) 96,30 %
09.05.2016 09:44 15,8 C 68 % 1013,5 hPa 0,0 l/m 16,8 km/h (3 Bft) NO 49 1 min 0,000 mm 2,3 UV-I 596 W/m 9,9 C 11,6 C 22,5 km/h (4 Bft) 98,62 %
09.05.2016 09:45 15,8 C 68 % 1013,5 hPa 0,0 l/m 17,2 km/h (3 Bft) NO 45 1 min 0,000 mm 2,4 UV-I 600 W/m 9,9 C 11,5 C 24,1 km/h (4 Bft) 97,56 %
09.05.2016 09:46 15,8 C 66 % 1013,5 hPa 0,0 l/m 18,8 km/h (3 Bft) NO 46 1 min 0,000 mm 2,4 UV-I 602 W/m 9,5 C 11,1 C 22,5 km/h (4 Bft) 95,65 %
09.05.2016 09:47 15,8 C 67 % 1013,5 hPa 0,0 l/m 15,9 km/h (3 Bft) NO 50 1 min 0,000 mm 2,4 UV-I 604 W/m 9,7 C 11,9 C 20,9 km/h (4 Bft) 100,00 %
09.05.2016 09:48 15,8 C 66 % 1013,5 hPa 0,0 l/m 14,6 km/h (3 Bft) O-NO 65 1 min 0,000 mm 2,4 UV-I 605 W/m 9,5 C 12,3 C 20,9 km/h (4 Bft) 91,30 %
09.05.2016 09:49 15,9 C 68 % 1013,5 hPa 0,0 l/m 16,4 km/h (3 Bft) NO 40 1 min 0,000 mm 2,4 UV-I 609 W/m 10,0 C 11,9 C 22,5 km/h (4 Bft) 100,00 %
09.05.2016 09:50 15,9 C 68 % 1013,5 hPa 0,0 l/m 16,9 km/h (3 Bft) O-NO 58 1 min 0,000 mm 2,5 UV-I 612 W/m 10,0 C 11,7 C 22,5 km/h (4 Bft) 95,65 %
09.05.2016 09:51 16,0 C 66 % 1013,5 hPa 0,0 l/m 13,5 km/h (3 Bft) O-NO 61 1 min 0,000 mm 2,5 UV-I 616 W/m 9,7 C 12,9 C 17,7 km/h (3 Bft) 95,83 %
09.05.2016 09:52 16,0 C 67 % 1013,6 hPa 0,0 l/m 9,4 km/h (2 Bft) NO 42 1 min 0,000 mm 2,5 UV-I 617 W/m 9,9 C 14,5 C 14,5 km/h (3 Bft) 100,00 %
09.05.2016 09:53 16,1 C 67 % 1013,6 hPa 0,0 l/m 12,4 km/h (3 Bft) NO 49 1 min 0,000 mm 2,5 UV-I 618 W/m 10,0 C 13,4 C 19,3 km/h (3 Bft) 95,83 %
09.05.2016 09:54 16,2 C 66 % 1013,6 hPa 0,0 l/m 15,1 km/h (3 Bft) NO 39 1 min 0,000 mm 2,5 UV-I 621 W/m 9,8 C 12,6 C 20,9 km/h (4 Bft) 100,00 %
09.05.2016 09:55 16,2 C 66 % 1013,6 hPa 0,0 l/m 14,9 km/h (3 Bft) NO 42 1 min 0,000 mm 2,6 UV-I 622 W/m 9,8 C 12,7 C 19,3 km/h (3 Bft) 100,00 %
09.05.2016 09:56 16,2 C 66 % 1013,6 hPa 0,0 l/m 12,6 km/h (3 Bft) NO 44 1 min 0,000 mm 2,6 UV-I 626 W/m 9,8 C 13,4 C 19,3 km/h (3 Bft) 96,15 %
09.05.2016 09:57 16,1 C 66 % 1013,6 hPa 0,0 l/m 10,5 km/h (2 Bft) O-NO 65 1 min 0,000 mm 2,6 UV-I 627 W/m 9,7 C 14,1 C 17,7 km/h (3 Bft) 93,33 %
09.05.2016 09:58 16,2 C 67 % 1013,6 hPa 0,0 l/m 12,7 km/h (3 Bft) O-NO 76 1 min 0,000 mm 2,6 UV-I 629 W/m 10,1 C 13,4 C 17,7 km/h (3 Bft) 100,00 %
09.05.2016 09:59 16,2 C 67 % 1013,6 hPa 0,0 l/m 10,5 km/h (2 Bft) NO 40 1 min 0,000 mm 2,6 UV-I 631 W/m 10,1 C 14,2 C 14,5 km/h (3 Bft) 100,00 %
09.05.2016 10:00 16,3 C 67 % 1013,6 hPa 0,0 l/m 9,8 km/h (2 Bft) O-NO 64 1 min 0,330 mm 2,7 UV-I 634 W/m 10,2 C 14,6 C 14,5 km/h (3 Bft) 93,10 %
09.05.2016 10:01 16,4 C 66 % 1013,6 hPa 0,0 l/m 16,1 km/h (3 Bft) NO 39 1 min 0,000 mm 2,7 UV-I 636 W/m 10,0 C 12,6 C 20,9 km/h (4 Bft) 93,33 %
09.05.2016 10:02 16,4 C 66 % 1013,6 hPa 0,0 l/m 14,6 km/h (3 Bft) NO 37 1 min 0,000 mm 2,7 UV-I 640 W/m 10,0 C 13,0 C 24,1 km/h (4 Bft) 96,30 %
09.05.2016 10:03 16,4 C 69 % 1013,6 hPa 0,0 l/m 15,0 km/h (3 Bft) NO 50 1 min 0,000 mm 2,7 UV-I 640 W/m 10,7 C 12,9 C 19,3 km/h (3 Bft) 92,86 %
09.05.2016 10:04 16,5 C 65 % 1013,6 hPa 0,0 l/m 10,7 km/h (2 Bft) NO 37 1 min 0,000 mm 2,8 UV-I 642 W/m 9,9 C 14,5 C 16,1 km/h (3 Bft) 100,00 %
09.05.2016 10:05 16,6 C 67 % 1013,6 hPa 0,0 l/m 11,0 km/h (2 Bft) O-NO 57 1 min 0,000 mm 2,8 UV-I 644 W/m 10,4 C 14,5 C 16,1 km/h (3 Bft) 100,00 %
09.05.2016 10:06 16,6 C 65 % 1013,6 hPa 0,0 l/m 12,4 km/h (3 Bft) NO 47 1 min 0,000 mm 2,8 UV-I 647 W/m 10,0 C 14,0 C 16,1 km/h (3 Bft) 100,00 %
09.05.2016 10:07 16,6 C 71 % 1013,6 hPa 0,0 l/m 12,1 km/h (2 Bft) NO 49 1 min 0,000 mm 2,8 UV-I 649 W/m 11,3 C 14,1 C 16,1 km/h (3 Bft) 100,00 %
09.05.2016 10:08 16,7 C 69 % 1013,6 hPa 0,0 l/m 14,3 km/h (3 Bft) O-NO 72 1 min 0,000 mm 2,9 UV-I 651 W/m 11,0 C 13,5 C 20,9 km/h (4 Bft) 100,00 %
09.05.2016 10:09 16,7 C 67 % 1013,6 hPa 0,0 l/m 9,1 km/h (2 Bft) O-NO 63 1 min 0,000 mm 2,9 UV-I 654 W/m 10,5 C 15,4 C 14,5 km/h (3 Bft) 100,00 %
09.05.2016 10:10 16,8 C 66 % 1013,6 hPa 0,0 l/m 7,5 km/h (2 Bft) N-NO 32 1 min 0,000 mm 2,9 UV-I 655 W/m 10,4 C 16,2 C 9,7 km/h (2 Bft) 100,00 %
09.05.2016 10:11 16,9 C 68 % 1013,6 hPa 0,0 l/m 18,0 km/h (3 Bft) NO 42 1 min 0,000 mm 2,9 UV-I 657 W/m 11,0 C 12,7 C 22,5 km/h (4 Bft) 100,00 %
09.05.2016 10:12 16,9 C 66 % 1013,6 hPa 0,0 l/m 13,0 km/h (3 Bft) O-NO 66 1 min 0,000 mm 3,0 UV-I 658 W/m 10,5 C 14,1 C 19,3 km/h (3 Bft) 100,00 %
09.05.2016 10:13 16,9 C 66 % 1013,6 hPa 0,0 l/m 12,6 km/h (3 Bft) O-NO 62 1 min 0,000 mm 3,0 UV-I 661 W/m 10,5 C 14,3 C 17,7 km/h (3 Bft) 100,00 %
09.05.2016 10:14 16,9 C 65 % 1013,6 hPa 0,0 l/m 14,0 km/h (3 Bft) NO 35 1 min 0,000 mm 3,0 UV-I 663 W/m 10,3 C 13,8 C 17,7 km/h (3 Bft) 100,00 %
09.05.2016 10:15 16,9 C 66 % 1013,6 hPa 0,0 l/m 15,7 km/h (3 Bft) NO 35 1 min 0,000 mm 3,0 UV-I 667 W/m 10,5 C 13,3 C 25,7 km/h (4 Bft) 96,15 %
09.05.2016 10:16 17,0 C 68 % 1013,7 hPa 0,0 l/m 17,3 km/h (3 Bft) NO 38 1 min 0,000 mm 3,1 UV-I 669 W/m 11,0 C 13,0 C 20,9 km/h (4 Bft) 100,00 %
09.05.2016 10:17 17,0 C 65 % 1013,7 hPa 0,0 l/m 13,1 km/h (3 Bft) NO 37 1 min 0,000 mm 3,1 UV-I 671 W/m 10,4 C 14,2 C 19,3 km/h (3 Bft) 100,00 %
09.05.2016 10:18 17,1 C 66 % 1013,6 hPa 0,0 l/m 9,9 km/h (2 Bft) NO 56 1 min 0,000 mm 3,1 UV-I 673 W/m 10,7 C 15,5 C 14,5 km/h (3 Bft) 100,00 %
09.05.2016 10:19 17,1 C 66 % 1013,6 hPa 0,0 l/m 7,3 km/h (2 Bft) O-NO 63 1 min 0,000 mm 3,2 UV-I 675 W/m 10,7 C 16,6 C 12,9 km/h (3 Bft) 100,00 %
09.05.2016 10:20 17,1 C 65 % 1013,6 hPa 0,0 l/m 14,9 km/h (3 Bft) O-NO 58 1 min 0,000 mm 3,2 UV-I 678 W/m 10,5 C 13,8 C 19,3 km/h (3 Bft) 100,00 %
09.05.2016 10:21 17,1 C 64 % 1013,6 hPa 0,0 l/m 15,1 km/h (3 Bft) NO 55 1 min 0,000 mm 3,2 UV-I 679 W/m 10,2 C 13,7 C 17,7 km/h (3 Bft) 100,00 %
09.05.2016 10:22 17,1 C 65 % 1013,6 hPa 0,0 l/m 12,1 km/h (2 Bft) O-NO 74 1 min 0,000 mm 3,2 UV-I 681 W/m 10,5 C 14,7 C 17,7 km/h (3 Bft) 100,00 %
09.05.2016 10:23 17,1 C 65 % 1013,6 hPa 0,0 l/m 13,3 km/h (3 Bft) O 85 1 min 0,000 mm 3,2 UV-I 683 W/m 10,5 C 14,3 C 19,3 km/h (3 Bft) 100,00 %
09.05.2016 10:24 17,1 C 65 % 1013,6 hPa 0,0 l/m 14,5 km/h (3 Bft) NO 53 1 min 0,000 mm 3,2 UV-I 686 W/m 10,5 C 13,9 C 17,7 km/h (3 Bft) 95,65 %
09.05.2016 10:25 17,1 C 65 % 1013,6 hPa 0,0 l/m 15,4 km/h (3 Bft) O-NO 65 1 min 0,000 mm 3,3 UV-I 692 W/m 10,5 C 13,6 C 17,7 km/h (3 Bft) 100,00 %
09.05.2016 10:26 17,1 C 65 % 1013,6 hPa 0,0 l/m 17,3 km/h (3 Bft) NO 53 1 min 0,000 mm 3,3 UV-I 693 W/m 10,5 C 13,1 C 27,4 km/h (4 Bft) 100,00 %
09.05.2016 10:27 17,1 C 64 % 1013,6 hPa 0,0 l/m 18,2 km/h (3 Bft) NO 42 1 min 0,000 mm 3,3 UV-I 694 W/m 10,2 C 12,9 C 22,5 km/h (4 Bft) 100,00 %
09.05.2016 10:28 17,1 C 65 % 1013,6 hPa 0,0 l/m 14,1 km/h (3 Bft) NO 48 1 min 0,000 mm 3,3 UV-I 695 W/m 10,5 C 14,0 C 17,7 km/h (3 Bft) 100,00 %
09.05.2016 10:29 17,2 C 67 % 1013,6 hPa 0,0 l/m 12,0 km/h (2 Bft) NO 47 1 min 0,000 mm 3,3 UV-I 698 W/m 11,0 C 14,8 C 17,7 km/h (3 Bft) 100,00 %
09.05.2016 10:30 17,2 C 64 % 1013,6 hPa 0,0 l/m 13,5 km/h (3 Bft) NO 50 1 min 0,000 mm 3,4 UV-I 698 W/m 10,3 C 14,3 C 19,3 km/h (3 Bft) 96,15 %
09.05.2016 10:31 17,3 C 64 % 1013,6 hPa 0,0 l/m 14,2 km/h (3 Bft) O-NO 59 1 min 0,000 mm 3,4 UV-I 700 W/m 10,4 C 14,2 C 22,5 km/h (4 Bft) 100,00 %
09.05.2016 10:32 17,3 C 63 % 1013,6 hPa 0,0 l/m 16,8 km/h (3 Bft) O-NO 61 1 min 0,000 mm 3,4 UV-I 701 W/m 10,2 C 13,5 C 24,1 km/h (4 Bft) 100,00 %
09.05.2016 10:33 17,3 C 62 % 1013,6 hPa 0,0 l/m 18,8 km/h (3 Bft) O-NO 62 1 min 0,000 mm 3,4 UV-I 704 W/m 9,9 C 13,0 C 27,4 km/h (4 Bft) 100,00 %
09.05.2016 10:34 17,3 C 61 % 1013,6 hPa 0,0 l/m 16,8 km/h (3 Bft) NO 44 1 min 0,000 mm 3,4 UV-I 706 W/m 9,7 C 13,5 C 22,5 km/h (4 Bft) 100,00 %
09.05.2016 10:35 17,3 C 61 % 1013,6 hPa 0,0 l/m 17,5 km/h (3 Bft) O-NO 67 1 min 0,000 mm 3,5 UV-I 709 W/m 9,7 C 13,3 C 22,5 km/h (4 Bft) 100,00 %
09.05.2016 10:36 17,3 C 62 % 1013,6 hPa 0,0 l/m 19,1 km/h (3 Bft) NO 54 1 min 0,000 mm 3,5 UV-I 708 W/m 9,9 C 12,9 C 25,7 km/h (4 Bft) 100,00 %
09.05.2016 10:37 17,3 C 63 % 1013,6 hPa 0,0 l/m 13,5 km/h (3 Bft) O 80 1 min 0,000 mm 3,5 UV-I 712 W/m 10,2 C 14,4 C 19,3 km/h (3 Bft) 100,00 %
09.05.2016 10:38 17,4 C 63 % 1013,6 hPa 0,0 l/m 17,8 km/h (3 Bft) NO 45 1 min 0,000 mm 3,5 UV-I 714 W/m 10,3 C 13,4 C 20,9 km/h (4 Bft) 100,00 %
09.05.2016 10:39 17,4 C 61 % 1013,6 hPa 0,0 l/m 17,7 km/h (3 Bft) O-NO 75 1 min 0,000 mm 3,6 UV-I 716 W/m 9,8 C 13,4 C 24,1 km/h (4 Bft) 100,00 %
09.05.2016 10:40 17,4 C 62 % 1013,6 hPa 0,0 l/m 18,7 km/h (3 Bft) NO 46 1 min 0,000 mm 3,6 UV-I 719 W/m 10,0 C 13,1 C 24,1 km/h (4 Bft) 100,00 %
09.05.2016 10:41 17,6 C 63 % 1013,5 hPa 0,0 l/m 19,8 km/h (3 Bft) O-NO 69 1 min 0,000 mm 3,6 UV-I 721 W/m 10,5 C 13,1 C 27,4 km/h (4 Bft) 100,00 %
09.05.2016 10:42 17,6 C 61 % 1013,6 hPa 0,0 l/m 21,0 km/h (4 Bft) O-NO 67 1 min 0,000 mm 3,6 UV-I 722 W/m 10,0 C 12,9 C 24,1 km/h (4 Bft) 100,00 %
09.05.2016 10:43 17,6 C 61 % 1013,6 hPa 0,0 l/m 19,2 km/h (3 Bft) O-NO 63 1 min 0,000 mm 3,6 UV-I 726 W/m 10,0 C 13,3 C 25,7 km/h (4 Bft) 96,88 %
09.05.2016 10:44 17,6 C 60 % 1013,6 hPa 0,0 l/m 18,9 km/h (3 Bft) O-NO 65 1 min 0,000 mm 3,7 UV-I 726 W/m 9,7 C 13,4 C 22,5 km/h (4 Bft) 100,00 %
09.05.2016 10:45 17,6 C 60 % 1013,6 hPa 0,0 l/m 19,1 km/h (3 Bft) O-NO 63 1 min 0,000 mm 3,7 UV-I 728 W/m 9,7 C 13,3 C 25,7 km/h (4 Bft) 98,64 %
09.05.2016 10:46 17,6 C 61 % 1013,6 hPa 0,0 l/m 16,3 km/h (3 Bft) NO 53 1 min 0,000 mm 3,7 UV-I 731 W/m 10,0 C 14,0 C 22,5 km/h (4 Bft) 100,00 %
09.05.2016 10:47 17,6 C 63 % 1013,6 hPa 0,0 l/m 14,2 km/h (3 Bft) N-NO 30 1 min 0,000 mm 3,7 UV-I 734 W/m 10,5 C 14,6 C 22,5 km/h (4 Bft) 100,00 %
09.05.2016 10:48 17,7 C 65 % 1013,7 hPa 0,0 l/m 19,6 km/h (3 Bft) O-NO 67 1 min 0,000 mm 3,7 UV-I 733 W/m 11,0 C 13,3 C 25,7 km/h (4 Bft) 100,00 %
09.05.2016 10:49 17,7 C 62 % 1013,6 hPa 0,0 l/m 17,5 km/h (3 Bft) NO 55 1 min 0,000 mm 0,5 UV-I 733 W/m 10,3 C 13,8 C 25,7 km/h (4 Bft) 100,00 %
09.05.2016 10:50 17,8 C 63 % 1013,7 hPa 0,0 l/m 19,5 km/h (3 Bft) O-NO 71 1 min 0,000 mm 3,8 UV-I 734 W/m 10,7 C 13,5 C 25,7 km/h (4 Bft) 100,00 %
09.05.2016 10:51 17,8 C 61 % 1013,7 hPa 0,0 l/m 18,2 km/h (3 Bft) O-NO 59 1 min 0,000 mm 3,8 UV-I 737 W/m 10,2 C 13,8 C 20,9 km/h (4 Bft) 100,00 %
09.05.2016 10:52 17,8 C 60 % 1013,7 hPa 0,0 l/m 18,1 km/h (3 Bft) NO 44 1 min 0,000 mm 3,8 UV-I 738 W/m 9,9 C 13,8 C 22,5 km/h (4 Bft) 100,00 %
09.05.2016 10:53 17,9 C 60 % 1013,7 hPa 0,0 l/m 16,5 km/h (3 Bft) O-NO 71 1 min 0,000 mm 3,9 UV-I 743 W/m 10,0 C 14,3 C 24,1 km/h (4 Bft) 100,00 %
09.05.2016 10:54 17,9 C 59 % 1013,7 hPa 0,0 l/m 18,8 km/h (3 Bft) O-NO 61 1 min 0,000 mm 3,9 UV-I 744 W/m 9,8 C 13,8 C 22,5 km/h (4 Bft) 100,00 %
09.05.2016 10:55 17,9 C 59 % 1013,7 hPa 0,0 l/m 19,9 km/h (4 Bft) O-NO 67 1 min 0,000 mm 3,9 UV-I 745 W/m 9,8 C 13,5 C 24,1 km/h (4 Bft) 100,00 %
09.05.2016 10:56 17,9 C 58 % 1013,7 hPa 0,0 l/m 16,7 km/h (3 Bft) O-NO 65 1 min 0,000 mm 3,9 UV-I 747 W/m 9,5 C 14,3 C 20,9 km/h (4 Bft) 100,00 %
09.05.2016 10:57 18,0 C 59 % 1013,7 hPa 0,0 l/m 17,7 km/h (3 Bft) O-NO 60 1 min 0,000 mm 3,9 UV-I 749 W/m 9,9 C 14,1 C 19,3 km/h (3 Bft) 100,00 %
09.05.2016 10:58 18,0 C 59 % 1013,7 hPa 0,0 l/m 14,5 km/h (3 Bft) O-NO 61 1 min 0,000 mm 3,9 UV-I 751 W/m 9,9 C 15,0 C 19,3 km/h (3 Bft) 100,00 %
09.05.2016 10:59 18,0 C 60 % 1013,7 hPa 0,0 l/m 17,2 km/h (3 Bft) NO 36 1 min 0,000 mm 4,0 UV-I 754 W/m 10,1 C 14,3 C 22,5 km/h (4 Bft) 100,00 %
09.05.2016 11:00 18,1 C 60 % 1013,7 hPa 0,0 l/m 12,9 km/h (3 Bft) NO 55 1 min 0,000 mm 4,0 UV-I 754 W/m 10,2 C 15,6 C 17,7 km/h (3 Bft) 100,00 %
09.05.2016 11:01 18,1 C 61 % 1013,7 hPa 0,0 l/m 17,9 km/h (3 Bft) NO 35 1 min 0,457 mm 4,0 UV-I 756 W/m 10,5 C 14,2 C 22,5 km/h (4 Bft) 100,00 %
09.05.2016 11:02 18,2 C 62 % 1013,7 hPa 0,0 l/m 15,2 km/h (3 Bft) NO 34 1 min 0,000 mm 4,0 UV-I 754 W/m 10,8 C 15,0 C 20,9 km/h (4 Bft) 100,00 %
09.05.2016 11:03 18,2 C 61 % 1013,7 hPa 0,0 l/m 20,0 km/h (4 Bft) NO 43 1 min 0,000 mm 4,0 UV-I 756 W/m 10,6 C 13,9 C 25,7 km/h (4 Bft) 100,00 %
09.05.2016 11:04 18,3 C 61 % 1013,7 hPa 0,0 l/m 15,7 km/h (3 Bft) O-NO 59 1 min 0,000 mm 4,1 UV-I 758 W/m 10,6 C 15,0 C 22,5 km/h (4 Bft) 100,00 %
09.05.2016 11:05 18,3 C 58 % 1013,7 hPa 0,0 l/m 18,8 km/h (3 Bft) O-NO 67 1 min 0,000 mm 4,1 UV-I 760 W/m 9,9 C 14,3 C 25,7 km/h (4 Bft) 95,83 %
09.05.2016 11:06 18,3 C 58 % 1013,7 hPa 0,0 l/m 19,2 km/h (3 Bft) NO 34 1 min 0,000 mm 4,1 UV-I 766 W/m 9,9 C 14,2 C 27,4 km/h (4 Bft) 100,00 %
09.05.2016 11:07 18,2 C 57 % 1013,7 hPa 0,0 l/m 18,9 km/h (3 Bft) NO 55 1 min 0,000 mm 4,2 UV-I 768 W/m 9,5 C 14,1 C 22,5 km/h (4 Bft) 100,00 %
09.05.2016 11:08 18,2 C 59 % 1013,7 hPa 0,0 l/m 22,7 km/h (4 Bft) NO 43 1 min 0,000 mm 4,2 UV-I 768 W/m 10,1 C 13,3 C 29,0 km/h (5 Bft) 100,00 %
09.05.2016 11:09 18,2 C 58 % 1013,7 hPa 0,0 l/m 19,2 km/h (3 Bft) NO 55 1 min 0,000 mm 4,2 UV-I 769 W/m 9,8 C 14,1 C 24,1 km/h (4 Bft) 100,00 %
09.05.2016 11:10 18,2 C 58 % 1013,7 hPa 0,0 l/m 21,3 km/h (4 Bft) O-NO 57 1 min 0,000 mm 4,2 UV-I 771 W/m 9,8 C 13,6 C 27,4 km/h (4 Bft) 100,00 %
09.05.2016 11:11 18,2 C 60 % 1013,7 hPa 0,0 l/m 16,4 km/h (3 Bft) O-NO 69 1 min 0,000 mm 4,2 UV-I 773 W/m 10,3 C 14,7 C 22,5 km/h (4 Bft) 98,71 %
09.05.2016 11:12 18,3 C 60 % 1013,7 hPa 0,0 l/m 18,5 km/h (3 Bft) O-NO 67 1 min 0,000 mm 4,2 UV-I 775 W/m 10,4 C 14,3 C 22,5 km/h (4 Bft) 97,87 %
09.05.2016 11:13 18,4 C 60 % 1013,6 hPa 0,0 l/m 16,3 km/h (3 Bft) O-NO 75 1 min 0,000 mm 4,3 UV-I 776 W/m 10,5 C 15,0 C 19,3 km/h (3 Bft) 100,00 %
09.05.2016 11:14 18,4 C 59 % 1013,6 hPa 0,0 l/m 16,5 km/h (3 Bft) NO 56 1 min 0,000 mm 4,3 UV-I 778 W/m 10,2 C 14,9 C 20,9 km/h (4 Bft) 93,33 %
09.05.2016 11:15 18,6 C 62 % 1013,7 hPa 0,0 l/m 20,0 km/h (4 Bft) NO 55 1 min 0,000 mm 4,3 UV-I 778 W/m 11,2 C 14,4 C 25,7 km/h (4 Bft) 100,00 %
09.05.2016 11:16 18,7 C 60 % 1013,6 hPa 0,0 l/m 20,8 km/h (4 Bft) NO 55 1 min 0,000 mm 4,3 UV-I 779 W/m 10,8 C 14,4 C 25,7 km/h (4 Bft) 98,71 %
09.05.2016 11:17 18,7 C 56 % 1013,6 hPa 0,0 l/m 21,6 km/h (4 Bft) N-NO 25 1 min 0,000 mm 4,4 UV-I 782 W/m 9,7 C 14,2 C 27,4 km/h (4 Bft) 97,56 %
09.05.2016 11:18 18,7 C 56 % 1013,6 hPa 0,0 l/m 22,0 km/h (4 Bft) NO 40 1 min 0,000 mm 4,4 UV-I 784 W/m 9,7 C 14,1 C 25,7 km/h (4 Bft) 94,44 %
09.05.2016 11:19 18,6 C 57 % 1013,6 hPa 0,0 l/m 14,2 km/h (3 Bft) O-NO 61 1 min 0,000 mm 4,4 UV-I 787 W/m 9,9 C 15,8 C 19,3 km/h (3 Bft) 100,00 %
09.05.2016 11:20 18,6 C 58 % 1013,6 hPa 0,0 l/m 12,1 km/h (2 Bft) NO 42 1 min 0,000 mm 4,4 UV-I 788 W/m 10,2 C 16,4 C 16,1 km/h (3 Bft) 95,83 %
09.05.2016 11:21 18,7 C 59 % 1013,6 hPa 0,0 l/m 14,3 km/h (3 Bft) O-NO 73 1 min 0,000 mm 4,4 UV-I 789 W/m 10,5 C 15,9 C 17,7 km/h (3 Bft) 95,65 %
09.05.2016 11:22 18,7 C 58 % 1013,7 hPa 0,0 l/m 18,9 km/h (3 Bft) NO 56 1 min 0,000 mm 4,4 UV-I 790 W/m 10,3 C 14,8 C 25,7 km/h (4 Bft) 100,00 %
09.05.2016 11:23 18,8 C 59 % 1013,6 hPa 0,0 l/m 13,3 km/h (3 Bft) O-NO 61 1 min 0,000 mm 4,5 UV-I 791 W/m 10,6 C 16,3 C 17,7 km/h (3 Bft) 92,31 %
09.05.2016 11:24 18,9 C 58 % 1013,7 hPa 0,0 l/m 15,9 km/h (3 Bft) O 84 1 min 0,000 mm 4,5 UV-I 794 W/m 10,5 C 15,7 C 22,5 km/h (4 Bft) 100,00 %
09.05.2016 11:25 18,9 C 58 % 1013,6 hPa 0,0 l/m 16,6 km/h (3 Bft) O-NO 57 1 min 0,000 mm 4,5 UV-I 794 W/m 10,5 C 15,5 C 20,9 km/h (4 Bft) 93,33 %
09.05.2016 11:26 18,9 C 56 % 1013,7 hPa 0,0 l/m 14,1 km/h (3 Bft) O 79 1 min 0,000 mm 4,5 UV-I 796 W/m 9,9 C 16,2 C 19,3 km/h (3 Bft) 100,00 %
09.05.2016 11:27 18,9 C 58 % 1013,6 hPa 0,0 l/m 15,2 km/h (3 Bft) O-NO 61 1 min 0,000 mm 4,5 UV-I 796 W/m 10,5 C 15,9 C 20,9 km/h (4 Bft) 96,15 %
09.05.2016 11:28 18,9 C 58 % 1013,6 hPa 0,0 l/m 14,2 km/h (3 Bft) N-NO 17 1 min 0,000 mm 4,6 UV-I 796 W/m 10,5 C 16,1 C 22,5 km/h (4 Bft) 100,00 %
09.05.2016 11:29 19,0 C 62 % 1013,6 hPa 0,0 l/m 16,4 km/h (3 Bft) N-NO 24 1 min 0,000 mm 4,6 UV-I 796 W/m 11,6 C 15,7 C 19,3 km/h (3 Bft) 89,66 %
09.05.2016 11:30 19,1 C 60 % 1013,5 hPa 0,0 l/m 13,7 km/h (3 Bft) NO 55 1 min 0,000 mm 4,6 UV-I 798 W/m 11,1 C 16,5 C 17,7 km/h (3 Bft) 96,30 %
09.05.2016 11:31 19,2 C 60 % 1013,6 hPa 0,0 l/m 19,1 km/h (3 Bft) N-NO 16 1 min 0,000 mm 4,6 UV-I 801 W/m 11,2 C 15,4 C 22,5 km/h (4 Bft) 100,00 %
09.05.2016 11:32 19,2 C 60 % 1013,6 hPa 0,0 l/m 19,7 km/h (3 Bft) NO 35 1 min 0,000 mm 4,6 UV-I 801 W/m 11,2 C 15,2 C 25,7 km/h (4 Bft) 96,15 %
09.05.2016 11:33 19,2 C 60 % 1013,6 hPa 0,0 l/m 11,9 km/h (2 Bft) N-NO 15 1 min 0,000 mm 4,7 UV-I 801 W/m 11,2 C 17,1 C 17,7 km/h (3 Bft) 100,00 %
09.05.2016 11:34 19,2 C 60 % 1013,6 hPa 0,0 l/m 15,5 km/h (3 Bft) NO 44 1 min 0,000 mm 4,7 UV-I 802 W/m 11,2 C 16,2 C 22,5 km/h (4 Bft) 94,44 %
09.05.2016 11:35 19,3 C 59 % 1013,5 hPa 0,0 l/m 18,8 km/h (3 Bft) NO 37 1 min 0,000 mm 4,7 UV-I 803 W/m 11,1 C 15,5 C 27,4 km/h (4 Bft) 100,00 %
09.05.2016 11:36 19,3 C 56 % 1013,5 hPa 0,0 l/m 18,7 km/h (3 Bft) NO 38 1 min 0,000 mm 4,7 UV-I 805 W/m 10,3 C 15,6 C 24,1 km/h (4 Bft) 95,65 %
09.05.2016 11:37 19,3 C 58 % 1013,5 hPa 0,0 l/m 18,7 km/h (3 Bft) NO 42 1 min 0,000 mm 4,7 UV-I 809 W/m 10,8 C 15,6 C 24,1 km/h (4 Bft) 96,30 %
09.05.2016 11:38 19,3 C 60 % 1013,5 hPa 0,0 l/m 19,3 km/h (3 Bft) O-NO 61 1 min 0,000 mm 4,8 UV-I 808 W/m 11,3 C 15,4 C 25,7 km/h (4 Bft) 96,55 %
09.05.2016 11:39 19,3 C 59 % 1013,5 hPa 0,0 l/m 18,0 km/h (3 Bft) NO 35 1 min 0,000 mm 4,7 UV-I 808 W/m 11,1 C 15,7 C 25,7 km/h (4 Bft) 100,00 %
09.05.2016 11:40 19,3 C 56 % 1013,5 hPa 0,0 l/m 16,6 km/h (3 Bft) O-NO 62 1 min 0,000 mm 4,8 UV-I 809 W/m 10,3 C 16,0 C 20,9 km/h (4 Bft) 97,14 %
09.05.2016 11:41 19,3 C 53 % 1013,5 hPa 0,0 l/m 18,9 km/h (3 Bft) O-NO 60 1 min 0,000 mm 4,8 UV-I 810 W/m 9,5 C 15,5 C 24,1 km/h (4 Bft) 91,67 %
09.05.2016 11:42 19,2 C 54 % 1013,6 hPa 0,0 l/m 16,2 km/h (3 Bft) NO 55 1 min 0,000 mm 4,8 UV-I 812 W/m 9,7 C 16,0 C 20,9 km/h (4 Bft) 100,00 %
09.05.2016 11:43 19,2 C 55 % 1013,5 hPa 0,0 l/m 19,5 km/h (3 Bft) NO 40 1 min 0,000 mm 4,8 UV-I 813 W/m 9,9 C 15,3 C 25,7 km/h (4 Bft) 100,00 %
09.05.2016 11:44 19,3 C 58 % 1013,5 hPa 0,0 l/m 19,0 km/h (3 Bft) O-NO 67 1 min 0,000 mm 4,8 UV-I 815 W/m 10,8 C 15,5 C 24,1 km/h (4 Bft) 100,00 %
09.05.2016 11:45 19,3 C 55 % 1013,6 hPa 0,0 l/m 16,9 km/h (3 Bft) NO 51 1 min 0,000 mm 4,9 UV-I 816 W/m 10,0 C 15,9 C 22,5 km/h (4 Bft) 100,00 %
09.05.2016 11:46 19,3 C 55 % 1013,5 hPa 0,0 l/m 18,7 km/h (3 Bft) NO 53 1 min 0,000 mm 4,9 UV-I 818 W/m 10,0 C 15,6 C 22,5 km/h (4 Bft) 100,00 %
09.05.2016 11:47 19,3 C 57 % 1013,5 hPa 0,0 l/m 19,4 km/h (3 Bft) O-NO 58 1 min 0,000 mm 4,9 UV-I 817 W/m 10,6 C 15,4 C 24,1 km/h (4 Bft) 100,00 %
09.05.2016 11:48 19,3 C 54 % 1013,5 hPa 0,0 l/m 19,5 km/h (3 Bft) O-NO 58 1 min 0,000 mm 4,9 UV-I 820 W/m 9,8 C 15,4 C 25,7 km/h (4 Bft) 95,65 %
09.05.2016 11:49 19,3 C 54 % 1013,5 hPa 0,0 l/m 16,4 km/h (3 Bft) O-NO 69 1 min 0,000 mm 4,9 UV-I 821 W/m 9,8 C 16,1 C 19,3 km/h (3 Bft) 100,00 %
09.05.2016 11:50 19,3 C 57 % 1013,5 hPa 0,0 l/m 18,9 km/h (3 Bft) NO 51 1 min 0,000 mm 4,9 UV-I 823 W/m 10,6 C 15,5 C 22,5 km/h (4 Bft) 95,65 %
09.05.2016 11:51 19,3 C 56 % 1013,5 hPa 0,0 l/m 15,6 km/h (3 Bft) O-NO 71 1 min 0,000 mm 4,9 UV-I 824 W/m 10,3 C 16,3 C 20,9 km/h (4 Bft) 100,00 %
09.05.2016 11:52 19,3 C 55 % 1013,5 hPa 0,0 l/m 20,9 km/h (4 Bft) O-NO 68 1 min 0,000 mm 5,0 UV-I 827 W/m 10,0 C 15,1 C 27,4 km/h (4 Bft) 100,00 %
09.05.2016 11:53 19,3 C 54 % 1013,5 hPa 0,0 l/m 19,7 km/h (3 Bft) O-NO 63 1 min 0,000 mm 5,0 UV-I 828 W/m 9,8 C 15,4 C 25,7 km/h (4 Bft) 100,00 %
09.05.2016 11:54 19,3 C 54 % 1013,5 hPa 0,0 l/m 20,6 km/h (4 Bft) NO 38 1 min 0,000 mm 5,0 UV-I 829 W/m 9,8 C 15,2 C 24,1 km/h (4 Bft) 100,00 %
09.05.2016 11:55 19,3 C 55 % 1013,5 hPa 0,0 l/m 19,6 km/h (3 Bft) O-NO 59 1 min 0,000 mm 5,0 UV-I 829 W/m 10,0 C 15,4 C 27,4 km/h (4 Bft) 100,00 %
09.05.2016 11:56 19,3 C 54 % 1013,5 hPa 0,0 l/m 17,4 km/h (3 Bft) O-NO 61 1 min 0,000 mm 5,0 UV-I 828 W/m 9,8 C 15,8 C 20,9 km/h (4 Bft) 100,00 %
09.05.2016 11:57 19,3 C 53 % 1013,5 hPa 0,0 l/m 17,3 km/h (3 Bft) O-NO 62 1 min 0,000 mm 5,0 UV-I 828 W/m 9,5 C 15,9 C 24,1 km/h (4 Bft) 100,00 %
09.05.2016 11:58 19,3 C 54 % 1013,5 hPa 0,0 l/m 17,6 km/h (3 Bft) O-NO 73 1 min 0,000 mm 5,0 UV-I 831 W/m 9,8 C 15,8 C 24,1 km/h (4 Bft) 100,00 %
09.05.2016 11:59 19,4 C 54 % 1013,5 hPa 0,0 l/m 15,9 km/h (3 Bft) NO 55 1 min 0,000 mm 5,0 UV-I 833 W/m 9,8 C 16,3 C 22,5 km/h (4 Bft) 100,00 %
09.05.2016 12:00 19,4 C 53 % 1013,5 hPa 0,0 l/m 18,4 km/h (3 Bft) NO 55 1 min 0,559 mm 5,0 UV-I 835 W/m 9,6 C 15,8 C 22,5 km/h (4 Bft) 100,00 %
09.05.2016 12:01 19,4 C 53 % 1013,4 hPa 0,0 l/m 17,4 km/h (3 Bft) N-NO 22 1 min 0,000 mm 5,0 UV-I 836 W/m 9,6 C 16,0 C 25,7 km/h (4 Bft) 100,00 %
09.05.2016 12:02 19,5 C 56 % 1013,4 hPa 0,0 l/m 17,2 km/h (3 Bft) N-NO 32 1 min 0,000 mm 5,1 UV-I 837 W/m 10,5 C 16,1 C 22,5 km/h (4 Bft) 100,00 %
09.05.2016 12:03 19,6 C 55 % 1013,4 hPa 0,0 l/m 14,9 km/h (3 Bft) O 90 1 min 0,000 mm 5,1 UV-I 837 W/m 10,3 C 16,8 C 20,9 km/h (4 Bft) 100,00 %
09.05.2016 12:04 19,7 C 54 % 1013,4 hPa 0,0 l/m 18,2 km/h (3 Bft) O 98 1 min 0,000 mm 5,1 UV-I 838 W/m 10,1 C 16,2 C 25,7 km/h (4 Bft) 100,00 %
09.05.2016 12:05 19,7 C 53 % 1013,4 hPa 0,0 l/m 16,7 km/h (3 Bft) O-NO 74 1 min 0,000 mm 5,1 UV-I 838 W/m 9,8 C 16,5 C 22,5 km/h (4 Bft) 100,00 %
09.05.2016 12:06 19,8 C 54 % 1013,4 hPa 0,0 l/m 13,8 km/h (3 Bft) O-NO 76 1 min 0,000 mm 5,1 UV-I 839 W/m 10,2 C 17,3 C 19,3 km/h (3 Bft) 100,00 %
09.05.2016 12:07 19,8 C 54 % 1013,4 hPa 0,0 l/m 18,1 km/h (3 Bft) O 98 1 min 0,000 mm 5,1 UV-I 840 W/m 10,2 C 16,3 C 22,5 km/h (4 Bft) 100,00 %
09.05.2016 12:08 19,9 C 53 % 1013,4 hPa 0,0 l/m 18,0 km/h (3 Bft) O-NO 66 1 min 0,000 mm 5,1 UV-I 840 W/m 10,0 C 16,5 C 24,1 km/h (4 Bft) 100,00 %
09.05.2016 12:09 19,9 C 52 % 1013,3 hPa 0,0 l/m 19,0 km/h (3 Bft) O-NO 64 1 min 0,000 mm 3,9 UV-I 842 W/m 9,7 C 16,3 C 25,7 km/h (4 Bft) 100,00 %
09.05.2016 12:10 19,9 C 52 % 1013,3 hPa 0,0 l/m 16,4 km/h (3 Bft) O-NO 76 1 min 0,000 mm 4,2 UV-I 842 W/m 9,7 C 16,8 C 25,7 km/h (4 Bft) 100,00 %
09.05.2016 12:11 19,9 C 53 % 1013,4 hPa 0,0 l/m 17,9 km/h (3 Bft) O-NO 59 1 min 0,000 mm 5,0 UV-I 840 W/m 10,0 C 16,5 C 27,4 km/h (4 Bft) 100,00 %
09.05.2016 12:12 19,9 C 52 % 1013,3 hPa 0,0 l/m 20,8 km/h (4 Bft) NO 41 1 min 0,000 mm 5,0 UV-I 842 W/m 9,7 C 15,9 C 25,7 km/h (4 Bft) 100,00 %
09.05.2016 12:13 19,9 C 54 % 1013,3 hPa 0,0 l/m 19,5 km/h (3 Bft) NO 38 1 min 0,000 mm 5,0 UV-I 842 W/m 10,3 C 16,2 C 22,5 km/h (4 Bft) 100,00 %
09.05.2016 12:14 19,9 C 60 % 1013,3 hPa 0,0 l/m 15,6 km/h (3 Bft) NO 53 1 min 0,000 mm 5,0 UV-I 842 W/m 11,9 C 17,0 C 19,3 km/h (3 Bft) 100,00 %
09.05.2016 12:15 19,9 C 57 % 1013,3 hPa 0,0 l/m 18,5 km/h (3 Bft) O-NO 67 1 min 0,000 mm 5,1 UV-I 842 W/m 11,1 C 16,4 C 20,9 km/h (4 Bft) 100,00 %
09.05.2016 12:16 20,0 C 60 % 1013,3 hPa 0,0 l/m 21,8 km/h (4 Bft) NO 50 1 min 0,000 mm 5,1 UV-I 842 W/m 12,0 C 15,9 C 27,4 km/h (4 Bft) 94,12 %
09.05.2016 12:17 20,1 C 60 % 1013,3 hPa 0,0 l/m 21,9 km/h (4 Bft) NO 44 1 min 0,000 mm 5,1 UV-I 842 W/m 12,1 C 16,0 C 25,7 km/h (4 Bft) 100,00 %
09.05.2016 12:18 20,1 C 59 % 1013,3 hPa 0,0 l/m 20,2 km/h (4 Bft) NO 47 1 min 0,000 mm 5,1 UV-I 843 W/m 11,8 C 16,3 C 24,1 km/h (4 Bft) 100,00 %
09.05.2016 12:19 20,1 C 58 % 1013,3 hPa 0,0 l/m 18,3 km/h (3 Bft) N-NO 22 1 min 0,000 mm 5,1 UV-I 844 W/m 11,6 C 16,7 C 24,1 km/h (4 Bft) 100,00 %
09.05.2016 12:20 20,1 C 60 % 1013,3 hPa 0,0 l/m 19,1 km/h (3 Bft) O-NO 68 1 min 0,000 mm 5,1 UV-I 844 W/m 12,1 C 16,5 C 24,1 km/h (4 Bft) 100,00 %
09.05.2016 12:21 20,1 C 58 % 1013,3 hPa 0,0 l/m 15,6 km/h (3 Bft) NO 44 1 min 0,000 mm 5,1 UV-I 841 W/m 11,6 C 17,2 C 19,3 km/h (3 Bft) 100,00 %
09.05.2016 12:22 20,1 C 59 % 1013,3 hPa 0,0 l/m 16,6 km/h (3 Bft) N-NO 31 1 min 0,000 mm 5,1 UV-I 841 W/m 11,8 C 17,0 C 20,9 km/h (4 Bft) 100,00 %
09.05.2016 12:23 20,2 C 59 % 1013,3 hPa 0,0 l/m 14,4 km/h (3 Bft) NO 49 1 min 0,000 mm 5,1 UV-I 839 W/m 11,9 C 17,6 C 17,7 km/h (3 Bft) 100,00 %
09.05.2016 12:24 20,2 C 60 % 1013,3 hPa 0,0 l/m 22,9 km/h (4 Bft) NO 34 1 min 0,000 mm 5,1 UV-I 841 W/m 12,2 C 16,0 C 30,6 km/h (5 Bft) 100,00 %
09.05.2016 12:25 20,2 C 55 % 1013,3 hPa 0,0 l/m 16,0 km/h (3 Bft) O-NO 57 1 min 0,000 mm 5,1 UV-I 842 W/m 10,9 C 17,3 C 24,1 km/h (4 Bft) 98,70 %
09.05.2016 12:26 20,2 C 55 % 1013,3 hPa 0,0 l/m 8,0 km/h (2 Bft) NO 40 1 min 0,000 mm 5,2 UV-I 846 W/m 10,9 C 19,6 C 11,3 km/h (2 Bft) 100,00 %
09.05.2016 12:27 20,2 C 59 % 1013,2 hPa 0,0 l/m 18,2 km/h (3 Bft) N-NO 22 1 min 0,000 mm 5,2 UV-I 849 W/m 11,9 C 16,8 C 30,6 km/h (5 Bft) 100,00 %
09.05.2016 12:28 20,3 C 61 % 1013,2 hPa 0,0 l/m 20,1 km/h (4 Bft) N-NO 32 1 min 0,000 mm 5,2 UV-I 849 W/m 12,5 C 16,6 C 27,4 km/h (4 Bft) 100,00 %
09.05.2016 12:29 20,3 C 55 % 1013,2 hPa 0,0 l/m 20,1 km/h (4 Bft) NO 43 1 min 0,000 mm 5,2 UV-I 850 W/m 11,0 C 16,6 C 32,2 km/h (5 Bft) 100,00 %
09.05.2016 12:30 20,3 C 54 % 1013,4 hPa 0,0 l/m 16,7 km/h (3 Bft) O-NO 62 1 min 0,000 mm 5,2 UV-I 848 W/m 10,7 C 17,2 C 22,5 km/h (4 Bft) 100,00 %
09.05.2016 12:31 20,2 C 54 % 1013,3 hPa 0,0 l/m 13,2 km/h (3 Bft) N 351 1 min 0,000 mm 5,2 UV-I 849 W/m 10,6 C 17,9 C 16,1 km/h (3 Bft) 100,00 %
09.05.2016 12:32 20,3 C 54 % 1013,2 hPa 0,0 l/m 12,3 km/h (3 Bft) NO 39 1 min 0,000 mm 5,2 UV-I 849 W/m 10,7 C 18,3 C 19,3 km/h (3 Bft) 100,00 %
09.05.2016 12:33 20,3 C 54 % 1013,3 hPa 0,0 l/m 21,1 km/h (4 Bft) NO 49 1 min 0,000 mm 5,2 UV-I 852 W/m 10,7 C 16,4 C 29,0 km/h (5 Bft) 100,00 %
09.05.2016 12:34 20,3 C 55 % 1013,2 hPa 0,0 l/m 22,5 km/h (4 Bft) NO 40 1 min 0,000 mm 5,2 UV-I 856 W/m 11,0 C 16,2 C 29,0 km/h (5 Bft) 100,00 %
09.05.2016 12:35 20,3 C 57 % 1013,3 hPa 0,0 l/m 19,5 km/h (3 Bft) N-NO 28 1 min 0,000 mm 5,2 UV-I 853 W/m 11,5 C 16,7 C 25,7 km/h (4 Bft) 100,00 %
09.05.2016 12:36 20,3 C 58 % 1013,2 hPa 0,0 l/m 21,5 km/h (4 Bft) NO 41 1 min 0,000 mm 5,1 UV-I 852 W/m 11,8 C 16,3 C 30,6 km/h (5 Bft) 100,00 %
09.05.2016 12:37 20,2 C 58 % 1013,2 hPa 0,0 l/m 17,0 km/h (3 Bft) NO 38 1 min 0,000 mm 4,6 UV-I 854 W/m 11,7 C 17,0 C 22,5 km/h (4 Bft) 100,00 %
09.05.2016 12:38 20,3 C 59 % 1013,2 hPa 0,0 l/m 11,3 km/h (2 Bft) NO 36 1 min 0,000 mm 5,3 UV-I 855 W/m 12,0 C 18,6 C 19,3 km/h (3 Bft) 100,00 %
09.05.2016 12:39 20,3 C 58 % 1013,2 hPa 0,0 l/m 18,3 km/h (3 Bft) O-NO 62 1 min 0,000 mm 5,2 UV-I 854 W/m 11,8 C 16,9 C 29,0 km/h (5 Bft) 100,00 %
09.05.2016 12:40 20,4 C 55 % 1013,2 hPa 0,0 l/m 17,7 km/h (3 Bft) O-NO 62 1 min 0,000 mm 5,3 UV-I 858 W/m 11,1 C 17,2 C 24,1 km/h (4 Bft) 96,30 %
09.05.2016 12:41 20,4 C 52 % 1013,2 hPa 0,0 l/m 16,3 km/h (3 Bft) O-NO 72 1 min 0,000 mm 5,3 UV-I 858 W/m 10,2 C 17,4 C 20,9 km/h (4 Bft) 100,00 %
09.05.2016 12:42 20,4 C 54 % 1013,1 hPa 0,0 l/m 19,6 km/h (3 Bft) N 355 1 min 0,000 mm 5,2 UV-I 856 W/m 10,8 C 16,8 C 32,2 km/h (5 Bft) 100,00 %
09.05.2016 12:43 20,5 C 58 % 1013,1 hPa 0,0 l/m 19,6 km/h (3 Bft) O-NO 60 1 min 0,000 mm 5,2 UV-I 855 W/m 11,9 C 16,9 C 29,0 km/h (5 Bft) 90,91 %
09.05.2016 12:44 20,5 C 53 % 1013,2 hPa 0,0 l/m 18,1 km/h (3 Bft) N-NO 18 1 min 0,000 mm 5,2 UV-I 853 W/m 10,6 C 17,2 C 25,7 km/h (4 Bft) 100,00 %
09.05.2016 12:45 20,5 C 55 % 1013,2 hPa 0,0 l/m 17,6 km/h (3 Bft) NO 36 1 min 0,000 mm 5,2 UV-I 855 W/m 11,1 C 17,3 C 24,1 km/h (4 Bft) 100,00 %
09.05.2016 12:46 20,6 C 56 % 1013,2 hPa 0,0 l/m 17,8 km/h (3 Bft) N-NO 24 1 min 0,000 mm 5,2 UV-I 853 W/m 11,5 C 17,4 C 25,7 km/h (4 Bft) 100,00 %
09.05.2016 12:47 20,6 C 58 % 1013,1 hPa 0,0 l/m 20,1 km/h (4 Bft) O-NO 61 1 min 0,000 mm 5,2 UV-I 853 W/m 12,0 C 17,0 C 27,4 km/h (4 Bft) 100,00 %
09.05.2016 12:48 20,6 C 57 % 1013,2 hPa 0,0 l/m 14,6 km/h (3 Bft) NO 56 1 min 0,000 mm 5,2 UV-I 855 W/m 11,8 C 18,1 C 20,9 km/h (4 Bft) 100,00 %
09.05.2016 12:49 20,6 C 56 % 1013,2 hPa 0,0 l/m 17,4 km/h (3 Bft) NO 48 1 min 0,000 mm 5,3 UV-I 857 W/m 11,5 C 17,5 C 29,0 km/h (5 Bft) 100,00 %
09.05.2016 12:50 20,6 C 56 % 1013,1 hPa 0,0 l/m 16,9 km/h (3 Bft) NO 55 1 min 0,000 mm 5,3 UV-I 858 W/m 11,5 C 17,6 C 25,7 km/h (4 Bft) 98,74 %
09.05.2016 12:51 20,7 C 59 % 1013,1 hPa 0,0 l/m 24,0 km/h (4 Bft) NO 38 1 min 0,000 mm 5,3 UV-I 856 W/m 12,4 C 16,5 C 32,2 km/h (5 Bft) 100,00 %
09.05.2016 12:52 20,7 C 55 % 1013,2 hPa 0,0 l/m 19,2 km/h (3 Bft) O-NO 57 1 min 0,000 mm 5,2 UV-I 854 W/m 11,3 C 17,3 C 25,7 km/h (4 Bft) 100,00 %
09.05.2016 12:53 20,7 C 54 % 1013,2 hPa 0,0 l/m 16,9 km/h (3 Bft) NO 35 1 min 0,000 mm 5,2 UV-I 854 W/m 11,1 C 17,7 C 24,1 km/h (4 Bft) 100,00 %
09.05.2016 12:54 20,7 C 55 % 1013,2 hPa 0,0 l/m 17,0 km/h (3 Bft) N-NO 19 1 min 0,000 mm 5,3 UV-I 854 W/m 11,3 C 17,7 C 22,5 km/h (4 Bft) 100,00 %
09.05.2016 12:55 20,7 C 56 % 1013,2 hPa 0,0 l/m 21,1 km/h (4 Bft) O-NO 66 1 min 0,000 mm 5,2 UV-I 853 W/m 11,6 C 16,9 C 25,7 km/h (4 Bft) 100,00 %
09.05.2016 12:56 20,6 C 52 % 1013,2 hPa 0,0 l/m 15,0 km/h (3 Bft) NO 49 1 min 0,000 mm 5,2 UV-I 853 W/m 10,4 C 18,0 C 22,5 km/h (4 Bft) 96,15 %
09.05.2016 12:57 20,6 C 53 % 1013,2 hPa 0,0 l/m 12,7 km/h (3 Bft) O-NO 67 1 min 0,000 mm 5,3 UV-I 856 W/m 10,7 C 18,5 C 20,9 km/h (4 Bft) 100,00 %
09.05.2016 12:58 20,7 C 58 % 1013,1 hPa 0,0 l/m 20,0 km/h (4 Bft) O-NO 78 1 min 0,000 mm 5,2 UV-I 855 W/m 12,1 C 17,1 C 25,7 km/h (4 Bft) 100,00 %
09.05.2016 12:59 20,7 C 53 % 1013,1 hPa 0,0 l/m 20,7 km/h (4 Bft) NO 44 1 min 0,000 mm 5,3 UV-I 858 W/m 10,8 C 17,0 C 27,4 km/h (4 Bft) 96,30 %
09.05.2016 13:00 20,7 C 52 % 1013,1 hPa 0,0 l/m 13,8 km/h (3 Bft) NO 46 1 min 0,584 mm 5,3 UV-I 860 W/m 10,5 C 18,4 C 20,9 km/h (4 Bft) 100,00 %
09.05.2016 13:01 20,7 C 53 % 1013,1 hPa 0,0 l/m 15,0 km/h (3 Bft) NO 51 1 min 0,000 mm 5,2 UV-I 860 W/m 10,8 C 18,1 C 27,4 km/h (4 Bft) 96,30 %
09.05.2016 13:02 20,8 C 52 % 1013,2 hPa 0,0 l/m 23,9 km/h (4 Bft) O-NO 61 1 min 0,000 mm 5,2 UV-I 858 W/m 10,6 C 16,6 C 35,4 km/h (5 Bft) 91,30 %
09.05.2016 13:03 20,7 C 52 % 1013,1 hPa 0,0 l/m 19,1 km/h (3 Bft) N-NO 27 1 min 0,000 mm 5,3 UV-I 858 W/m 10,5 C 17,3 C 27,4 km/h (4 Bft) 91,67 %
09.05.2016 13:04 20,7 C 53 % 1013,1 hPa 0,0 l/m 26,3 km/h (4 Bft) N-NO 32 1 min 0,000 mm 5,2 UV-I 857 W/m 10,8 C 16,2 C 33,8 km/h (5 Bft) 100,00 %
09.05.2016 13:05 20,7 C 57 % 1013,1 hPa 0,0 l/m 18,4 km/h (3 Bft) NO 41 1 min 0,000 mm 5,3 UV-I 858 W/m 11,9 C 17,4 C 24,1 km/h (4 Bft) 95,83 %
09.05.2016 13:06 20,7 C 56 % 1013,1 hPa 0,0 l/m 16,9 km/h (3 Bft) NO 34 1 min 0,000 mm 5,2 UV-I 857 W/m 11,6 C 17,7 C 20,9 km/h (4 Bft) 95,65 %
09.05.2016 13:07 20,8 C 56 % 1013,1 hPa 0,0 l/m 17,4 km/h (3 Bft) N-NO 27 1 min 0,000 mm 5,2 UV-I 858 W/m 11,7 C 17,7 C 22,5 km/h (4 Bft) 95,83 %
09.05.2016 13:08 20,9 C 54 % 1013,1 hPa 0,0 l/m 18,4 km/h (3 Bft) NO 42 1 min 0,000 mm 5,2 UV-I 856 W/m 11,2 C 17,7 C 25,7 km/h (4 Bft) 96,15 %
09.05.2016 13:09 20,9 C 51 % 1013,1 hPa 0,0 l/m 20,7 km/h (4 Bft) N-NO 30 1 min 0,000 mm 5,2 UV-I 856 W/m 10,4 C 17,3 C 29,0 km/h (5 Bft) 96,67 %
09.05.2016 13:10 20,9 C 51 % 1013,1 hPa 0,0 l/m 18,1 km/h (3 Bft) O-NO 75 1 min 0,000 mm 5,2 UV-I 856 W/m 10,4 C 17,7 C 24,1 km/h (4 Bft) 100,00 %
09.05.2016 13:11 20,9 C 52 % 1013,0 hPa 0,0 l/m 20,8 km/h (4 Bft) O-NO 75 1 min 0,000 mm 5,2 UV-I 856 W/m 10,7 C 17,2 C 27,4 km/h (4 Bft) 96,15 %
09.05.2016 13:12 20,9 C 54 % 1013,1 hPa 0,0 l/m 12,3 km/h (3 Bft) N-NO 24 1 min 0,000 mm 5,2 UV-I 856 W/m 11,2 C 19,0 C 22,5 km/h (4 Bft) 92,59 %
09.05.2016 13:13 20,9 C 55 % 1013,0 hPa 0,0 l/m 15,5 km/h (3 Bft) N-NO 15 1 min 0,000 mm 5,2 UV-I 855 W/m 11,5 C 18,2 C 25,7 km/h (4 Bft) 100,00 %
09.05.2016 13:14 21,1 C 56 % 1013,1 hPa 0,0 l/m 24,0 km/h (4 Bft) NO 53 1 min 0,000 mm 5,2 UV-I 854 W/m 12,0 C 17,0 C 37,0 km/h (5 Bft) 98,68 %
09.05.2016 13:15 21,1 C 55 % 1013,1 hPa 0,0 l/m 22,3 km/h (4 Bft) NO 56 1 min 0,000 mm 5,2 UV-I 854 W/m 11,7 C 17,3 C 27,4 km/h (4 Bft) 97,56 %
09.05.2016 13:16 21,1 C 58 % 1013,1 hPa 0,0 l/m 15,2 km/h (3 Bft) O-NO 66 1 min 0,000 mm 5,3 UV-I 856 W/m 12,5 C 18,5 C 25,7 km/h (4 Bft) 95,83 %
09.05.2016 13:17 21,1 C 53 % 1013,1 hPa 0,0 l/m 23,4 km/h (4 Bft) NO 35 1 min 0,000 mm 5,3 UV-I 856 W/m 11,1 C 17,1 C 30,6 km/h (5 Bft) 100,00 %
09.05.2016 13:18 21,0 C 52 % 1013,1 hPa 0,0 l/m 14,3 km/h (3 Bft) O 80 1 min 0,000 mm 5,2 UV-I 854 W/m 10,8 C 18,6 C 19,3 km/h (3 Bft) 96,67 %
09.05.2016 13:19 21,0 C 54 % 1013,1 hPa 0,0 l/m 16,4 km/h (3 Bft) NO 42 1 min 0,000 mm 5,2 UV-I 854 W/m 11,3 C 18,2 C 24,1 km/h (4 Bft) 95,65 %
09.05.2016 13:20 21,1 C 53 % 1013,1 hPa 0,0 l/m 18,6 km/h (3 Bft) NO 35 1 min 0,000 mm 5,2 UV-I 853 W/m 11,1 C 17,9 C 24,1 km/h (4 Bft) 100,00 %
09.05.2016 13:21 21,1 C 55 % 1013,1 hPa 0,0 l/m 23,8 km/h (4 Bft) O-NO 62 1 min 0,000 mm 5,2 UV-I 853 W/m 11,7 C 17,0 C 30,6 km/h (5 Bft) 100,00 %
09.05.2016 13:22 21,1 C 52 % 1013,1 hPa 0,0 l/m 24,5 km/h (4 Bft) NO 34 1 min 0,000 mm 5,2 UV-I 857 W/m 10,9 C 16,9 C 32,2 km/h (5 Bft) 96,97 %
09.05.2016 13:23 21,1 C 54 % 1013,1 hPa 0,0 l/m 21,7 km/h (4 Bft) NO 37 1 min 0,000 mm 5,2 UV-I 859 W/m 11,4 C 17,4 C 27,4 km/h (4 Bft) 95,65 %
09.05.2016 13:24 21,1 C 53 % 1013,1 hPa 0,0 l/m 21,1 km/h (4 Bft) NO 34 1 min 0,000 mm 5,2 UV-I 859 W/m 11,1 C 17,4 C 25,7 km/h (4 Bft) 100,00 %
09.05.2016 13:25 21,1 C 57 % 1013,0 hPa 0,0 l/m 16,6 km/h (3 Bft) NO 37 1 min 0,000 mm 5,2 UV-I 858 W/m 12,2 C 18,2 C 22,5 km/h (4 Bft) 95,00 %
09.05.2016 13:26 21,0 C 57 % 1013,0 hPa 0,0 l/m 23,3 km/h (4 Bft) O-NO 71 1 min 0,000 mm 5,2 UV-I 851 W/m 12,1 C 17,0 C 30,6 km/h (5 Bft) 92,59 %
09.05.2016 13:27 21,0 C 52 % 1013,0 hPa 0,0 l/m 21,6 km/h (4 Bft) NO 42 1 min 0,000 mm 5,1 UV-I 859 W/m 10,8 C 17,2 C 32,2 km/h (5 Bft) 92,86 %
09.05.2016 13:28 21,1 C 56 % 1013,0 hPa 0,0 l/m 26,8 km/h (4 Bft) NO 48 1 min 0,000 mm 5,2 UV-I 857 W/m 12,0 C 16,6 C 33,8 km/h (5 Bft) 100,00 %
09.05.2016 13:29 21,1 C 54 % 1013,0 hPa 0,0 l/m 21,3 km/h (4 Bft) N-NO 30 1 min 0,000 mm 5,2 UV-I 857 W/m 11,4 C 17,4 C 27,4 km/h (4 Bft) 94,44 %
09.05.2016 13:30 21,1 C 57 % 1013,0 hPa 0,0 l/m 19,6 km/h (3 Bft) NO 39 1 min 0,000 mm 5,1 UV-I 850 W/m 12,2 C 17,7 C 29,0 km/h (5 Bft) 96,55 %
09.05.2016 13:31 21,1 C 52 % 1012,9 hPa 0,0 l/m 20,4 km/h (4 Bft) O-NO 58 1 min 0,000 mm 5,0 UV-I 809 W/m 10,9 C 17,6 C 25,7 km/h (4 Bft) 100,00 %
09.05.2016 13:32 21,1 C 50 % 1013,0 hPa 0,0 l/m 23,8 km/h (4 Bft) NO 35 1 min 0,000 mm 5,0 UV-I 812 W/m 10,3 C 17,0 C 30,6 km/h (5 Bft) 91,67 %
09.05.2016 13:33 21,1 C 50 % 1013,0 hPa 0,0 l/m 21,3 km/h (4 Bft) N-NO 28 1 min 0,000 mm 5,1 UV-I 850 W/m 10,3 C 17,4 C 27,4 km/h (4 Bft) 100,00 %
09.05.2016 13:34 21,1 C 50 % 1012,9 hPa 0,0 l/m 22,4 km/h (4 Bft) O-NO 65 1 min 0,000 mm 5,1 UV-I 851 W/m 10,3 C 17,2 C 30,6 km/h (5 Bft) 93,33 %
09.05.2016 13:35 21,1 C 50 % 1013,0 hPa 0,0 l/m 23,2 km/h (4 Bft) NO 40 1 min 0,000 mm 5,2 UV-I 853 W/m 10,3 C 17,1 C 29,0 km/h (5 Bft) 96,30 %
09.05.2016 13:36 21,1 C 51 % 1012,9 hPa 0,0 l/m 23,2 km/h (4 Bft) NO 34 1 min 0,000 mm 5,2 UV-I 853 W/m 10,6 C 17,1 C 29,0 km/h (5 Bft) 95,65 %
09.05.2016 13:37 21,2 C 53 % 1012,9 hPa 0,0 l/m 14,2 km/h (3 Bft) NO 34 1 min 0,000 mm 5,2 UV-I 853 W/m 11,2 C 18,9 C 17,7 km/h (3 Bft) 100,00 %
09.05.2016 13:38 21,3 C 51 % 1013,0 hPa 0,0 l/m 19,1 km/h (3 Bft) O-NO 67 1 min 0,000 mm 5,2 UV-I 854 W/m 10,7 C 18,0 C 24,1 km/h (4 Bft) 100,00 %
09.05.2016 13:39 21,3 C 50 % 1013,0 hPa 0,0 l/m 22,3 km/h (4 Bft) N-NO 18 1 min 0,000 mm 5,1 UV-I 853 W/m 10,4 C 17,5 C 30,6 km/h (5 Bft) 100,00 %
09.05.2016 13:40 21,3 C 50 % 1013,0 hPa 0,0 l/m 20,7 km/h (4 Bft) O-NO 69 1 min 0,000 mm 5,1 UV-I 853 W/m 10,4 C 17,8 C 27,4 km/h (4 Bft) 100,00 %
09.05.2016 13:41 21,3 C 50 % 1013,0 hPa 0,0 l/m 15,9 km/h (3 Bft) O 92 1 min 0,000 mm 5,2 UV-I 853 W/m 10,4 C 18,6 C 25,7 km/h (4 Bft) 100,00 %
09.05.2016 13:42 21,3 C 53 % 1013,0 hPa 0,0 l/m 14,0 km/h (3 Bft) O-NO 63 1 min 0,000 mm 5,2 UV-I 852 W/m 11,3 C 19,0 C 25,7 km/h (4 Bft) 100,00 %
09.05.2016 13:43 21,4 C 51 % 1013,0 hPa 0,0 l/m 22,1 km/h (4 Bft) O-NO 67 1 min 0,000 mm 5,1 UV-I 849 W/m 10,8 C 17,7 C 29,0 km/h (5 Bft) 100,00 %
09.05.2016 13:44 21,4 C 50 % 1012,9 hPa 0,0 l/m 18,7 km/h (3 Bft) NO 39 1 min 0,000 mm 5,1 UV-I 850 W/m 10,5 C 18,2 C 29,0 km/h (5 Bft) 96,55 %
09.05.2016 13:45 21,4 C 54 % 1012,9 hPa 0,0 l/m 27,4 km/h (4 Bft) O-NO 65 1 min 0,000 mm 5,1 UV-I 847 W/m 11,7 C 17,0 C 35,4 km/h (5 Bft) 95,83 %
09.05.2016 13:46 21,4 C 52 % 1012,9 hPa 0,0 l/m 26,2 km/h (4 Bft) NO 40 1 min 0,000 mm 5,1 UV-I 846 W/m 11,1 C 17,1 C 32,2 km/h (5 Bft) 100,00 %
09.05.2016 13:47 21,4 C 52 % 1012,9 hPa 0,0 l/m 22,7 km/h (4 Bft) NO 53 1 min 0,000 mm 5,1 UV-I 844 W/m 11,1 C 17,6 C 30,6 km/h (5 Bft) 100,00 %
09.05.2016 13:48 21,4 C 51 % 1013,0 hPa 0,0 l/m 20,0 km/h (4 Bft) NO 38 1 min 0,000 mm 5,0 UV-I 843 W/m 10,8 C 18,0 C 25,7 km/h (4 Bft) 96,15 %
09.05.2016 13:49 21,4 C 50 % 1013,0 hPa 0,0 l/m 22,1 km/h (4 Bft) O-NO 63 1 min 0,000 mm 5,0 UV-I 842 W/m 10,5 C 17,7 C 30,6 km/h (5 Bft) 100,00 %
09.05.2016 13:50 21,3 C 50 % 1013,0 hPa 0,0 l/m 18,7 km/h (3 Bft) O-NO 65 1 min 0,000 mm 5,0 UV-I 842 W/m 10,4 C 18,1 C 25,7 km/h (4 Bft) 100,00 %
09.05.2016 13:51 21,4 C 52 % 1013,0 hPa 0,0 l/m 16,6 km/h (3 Bft) O-NO 71 1 min 0,000 mm 5,0 UV-I 844 W/m 11,1 C 18,6 C 30,6 km/h (5 Bft) 100,00 %
09.05.2016 13:52 21,4 C 51 % 1013,0 hPa 0,0 l/m 20,8 km/h (4 Bft) NO 46 1 min 0,000 mm 5,0 UV-I 844 W/m 10,8 C 17,9 C 27,4 km/h (4 Bft) 100,00 %
09.05.2016 13:53 21,5 C 50 % 1012,9 hPa 0,0 l/m 20,5 km/h (4 Bft) O-NO 62 1 min 0,000 mm 5,0 UV-I 845 W/m 10,6 C 18,1 C 29,0 km/h (5 Bft) 100,00 %
09.05.2016 13:54 21,5 C 49 % 1012,9 hPa 0,0 l/m 17,4 km/h (3 Bft) NO 42 1 min 0,000 mm 5,0 UV-I 847 W/m 10,3 C 18,6 C 29,0 km/h (5 Bft) 96,15 %
09.05.2016 13:55 21,6 C 51 % 1012,9 hPa 0,0 l/m 17,0 km/h (3 Bft) NO 46 1 min 0,000 mm 5,0 UV-I 846 W/m 11,0 C 18,8 C 24,1 km/h (4 Bft) 100,00 %
09.05.2016 13:56 21,6 C 48 % 1012,9 hPa 0,0 l/m 16,0 km/h (3 Bft) NO 44 1 min 0,000 mm 5,0 UV-I 844 W/m 10,1 C 19,0 C 24,1 km/h (4 Bft) 100,00 %
09.05.2016 13:57 21,6 C 51 % 1012,9 hPa 0,0 l/m 15,6 km/h (3 Bft) NO 54 1 min 0,000 mm 5,0 UV-I 843 W/m 11,0 C 19,1 C 22,5 km/h (4 Bft) 100,00 %
09.05.2016 13:58 21,6 C 50 % 1012,9 hPa 0,0 l/m 12,2 km/h (2 Bft) NO 55 1 min 0,000 mm 5,0 UV-I 843 W/m 10,7 C 19,8 C 19,3 km/h (3 Bft) 100,00 %
09.05.2016 13:59 21,7 C 56 % 1012,9 hPa 0,0 l/m 16,5 km/h (3 Bft) NO 38 1 min 0,000 mm 5,0 UV-I 839 W/m 12,5 C 19,0 C 25,7 km/h (4 Bft) 100,00 %
09.05.2016 14:00 21,8 C 56 % 1012,9 hPa 0,0 l/m 22,2 km/h (4 Bft) O-NO 62 1 min 0,635 mm 4,9 UV-I 832 W/m 12,6 C 18,2 C 29,0 km/h (5 Bft) 96,30 %
09.05.2016 14:01 21,8 C 51 % 1012,9 hPa 0,0 l/m 18,7 km/h (3 Bft) NO 53 1 min 0,000 mm 4,9 UV-I 837 W/m 11,2 C 18,7 C 22,5 km/h (4 Bft) 100,00 %
09.05.2016 14:02 21,8 C 50 % 1012,9 hPa 0,0 l/m 21,9 km/h (4 Bft) NO 49 1 min 0,000 mm 4,9 UV-I 835 W/m 10,9 C 18,2 C 30,6 km/h (5 Bft) 100,00 %
09.05.2016 14:03 21,8 C 50 % 1012,9 hPa 0,0 l/m 19,3 km/h (3 Bft) O-NO 59 1 min 0,000 mm 4,9 UV-I 836 W/m 10,9 C 18,6 C 24,1 km/h (4 Bft) 100,00 %
09.05.2016 14:04 21,7 C 49 % 1012,9 hPa 0,0 l/m 17,7 km/h (3 Bft) NO 55 1 min 0,000 mm 4,9 UV-I 835 W/m 10,5 C 18,8 C 25,7 km/h (4 Bft) 95,83 %
09.05.2016 14:05 21,7 C 51 % 1012,9 hPa 0,0 l/m 18,4 km/h (3 Bft) NO 44 1 min 0,000 mm 4,9 UV-I 833 W/m 11,1 C 18,7 C 27,4 km/h (4 Bft) 100,00 %
09.05.2016 14:06 21,7 C 49 % 1012,8 hPa 0,0 l/m 25,7 km/h (4 Bft) O 84 1 min 0,000 mm 4,8 UV-I 833 W/m 10,5 C 17,6 C 30,6 km/h (5 Bft) 100,00 %
09.05.2016 14:07 21,7 C 47 % 1012,9 hPa 0,0 l/m 26,9 km/h (4 Bft) O 83 1 min 0,000 mm 4,8 UV-I 831 W/m 9,9 C 17,5 C 33,8 km/h (5 Bft) 100,00 %
09.05.2016 14:08 21,7 C 47 % 1012,9 hPa 0,0 l/m 20,8 km/h (4 Bft) O 80 1 min 0,000 mm 4,9 UV-I 835 W/m 9,9 C 18,3 C 24,1 km/h (4 Bft) 100,00 %
09.05.2016 14:09 21,7 C 49 % 1012,9 hPa 0,0 l/m 15,8 km/h (3 Bft) O-NO 75 1 min 0,000 mm 4,9 UV-I 835 W/m 10,5 C 19,1 C 22,5 km/h (4 Bft) 100,00 %
09.05.2016 14:10 21,7 C 49 % 1012,9 hPa 0,0 l/m 13,2 km/h (3 Bft) O-NO 68 1 min 0,000 mm 4,8 UV-I 834 W/m 10,5 C 19,7 C 22,5 km/h (4 Bft) 100,00 %
09.05.2016 14:11 21,7 C 49 % 1012,9 hPa 0,0 l/m 23,0 km/h (4 Bft) NO 53 1 min 0,000 mm 4,8 UV-I 831 W/m 10,5 C 18,0 C 30,6 km/h (5 Bft) 100,00 %
09.05.2016 14:12 21,7 C 48 % 1012,9 hPa 0,0 l/m 22,7 km/h (4 Bft) NO 46 1 min 0,000 mm 4,8 UV-I 830 W/m 10,2 C 18,0 C 27,4 km/h (4 Bft) 100,00 %
09.05.2016 14:13 21,7 C 51 % 1012,9 hPa 0,0 l/m 18,2 km/h (3 Bft) NO 55 1 min 0,000 mm 4,8 UV-I 830 W/m 11,1 C 18,7 C 24,1 km/h (4 Bft) 100,00 %
09.05.2016 14:14 21,7 C 51 % 1012,9 hPa 0,0 l/m 17,0 km/h (3 Bft) N-NO 27 1 min 0,000 mm 4,8 UV-I 829 W/m 11,1 C 18,9 C 22,5 km/h (4 Bft) 100,00 %
09.05.2016 14:15 21,7 C 52 % 1012,8 hPa 0,0 l/m 20,7 km/h (4 Bft) N-NO 31 1 min 0,000 mm 4,8 UV-I 827 W/m 11,4 C 18,3 C 29,0 km/h (5 Bft) 100,00 %
09.05.2016 14:16 21,8 C 51 % 1012,8 hPa 0,0 l/m 25,3 km/h (4 Bft) O-NO 62 1 min 0,000 mm 4,7 UV-I 826 W/m 11,2 C 17,8 C 32,2 km/h (5 Bft) 100,00 %
09.05.2016 14:17 21,8 C 51 % 1012,9 hPa 0,0 l/m 22,2 km/h (4 Bft) O-NO 62 1 min 0,000 mm 4,7 UV-I 826 W/m 11,2 C 18,2 C 30,6 km/h (5 Bft) 100,00 %
09.05.2016 14:18 21,8 C 51 % 1012,9 hPa 0,0 l/m 19,6 km/h (3 Bft) O-NO 63 1 min 0,000 mm 4,7 UV-I 823 W/m 11,2 C 18,6 C 25,7 km/h (4 Bft) 100,00 %
09.05.2016 14:19 21,9 C 49 % 1012,8 hPa 0,0 l/m 20,0 km/h (4 Bft) O-NO 57 1 min 0,000 mm 4,7 UV-I 821 W/m 10,7 C 18,7 C 29,0 km/h (5 Bft) 100,00 %
09.05.2016 14:20 21,9 C 50 % 1012,8 hPa 0,0 l/m 16,9 km/h (3 Bft) O-NO 69 1 min 0,000 mm 4,7 UV-I 822 W/m 11,0 C 19,2 C 25,7 km/h (4 Bft) 100,00 %
09.05.2016 14:21 21,9 C 51 % 1012,8 hPa 0,0 l/m 15,4 km/h (3 Bft) NO 51 1 min 0,000 mm 4,7 UV-I 821 W/m 11,3 C 19,5 C 19,3 km/h (3 Bft) 100,00 %
09.05.2016 14:22 22,0 C 51 % 1012,8 hPa 0,0 l/m 25,3 km/h (4 Bft) O-NO 59 1 min 0,000 mm 4,7 UV-I 822 W/m 11,4 C 18,1 C 33,8 km/h (5 Bft) 100,00 %
09.05.2016 14:23 22,0 C 48 % 1012,8 hPa 0,0 l/m 26,7 km/h (4 Bft) O-NO 78 1 min 0,000 mm 4,6 UV-I 821 W/m 10,5 C 17,9 C 33,8 km/h (5 Bft) 100,00 %
09.05.2016 14:24 22,1 C 49 % 1012,8 hPa 0,0 l/m 25,5 km/h (4 Bft) O-NO 58 1 min 0,000 mm 4,6 UV-I 821 W/m 10,9 C 18,2 C 32,2 km/h (5 Bft) 100,00 %
09.05.2016 14:25 22,0 C 48 % 1012,8 hPa 0,0 l/m 22,6 km/h (4 Bft) O-NO 58 1 min 0,000 mm 4,5 UV-I 804 W/m 10,5 C 18,4 C 27,4 km/h (4 Bft) 98,68 %
09.05.2016 14:26 21,9 C 49 % 1012,8 hPa 0,0 l/m 19,9 km/h (4 Bft) O-NO 60 1 min 0,000 mm 4,4 UV-I 777 W/m 10,7 C 18,7 C 24,1 km/h (4 Bft) 100,00 %
09.05.2016 14:27 22,0 C 50 % 1012,8 hPa 0,0 l/m 19,7 km/h (3 Bft) NO 52 1 min 0,000 mm 4,5 UV-I 779 W/m 11,1 C 18,8 C 27,4 km/h (4 Bft) 100,00 %
09.05.2016 14:28 22,0 C 49 % 1012,8 hPa 0,0 l/m 21,2 km/h (4 Bft) O-NO 65 1 min 0,000 mm 4,5 UV-I 808 W/m 10,8 C 18,6 C 25,7 km/h (4 Bft) 100,00 %
09.05.2016 14:29 22,0 C 50 % 1012,8 hPa 0,0 l/m 26,3 km/h (4 Bft) O-NO 72 1 min 0,000 mm 4,5 UV-I 814 W/m 11,1 C 17,9 C 30,6 km/h (5 Bft) 98,69 %
09.05.2016 14:30 21,9 C 49 % 1012,8 hPa 0,0 l/m 22,3 km/h (4 Bft) O-NO 65 1 min 0,000 mm 4,5 UV-I 817 W/m 10,7 C 18,3 C 25,7 km/h (4 Bft) 98,00 %
09.05.2016 14:31 21,9 C 51 % 1012,8 hPa 0,0 l/m 14,4 km/h (3 Bft) N-NO 22 1 min 0,000 mm 4,5 UV-I 819 W/m 11,3 C 19,7 C 20,9 km/h (4 Bft) 100,00 %
09.05.2016 14:32 22,1 C 53 % 1012,8 hPa 0,0 l/m 21,1 km/h (4 Bft) NO 39 1 min 0,000 mm 4,3 UV-I 814 W/m 12,1 C 18,8 C 25,7 km/h (4 Bft) 100,00 %
09.05.2016 14:33 22,1 C 53 % 1012,8 hPa 0,0 l/m 22,0 km/h (4 Bft) NO 51 1 min 0,000 mm 4,5 UV-I 808 W/m 12,1 C 18,6 C 29,0 km/h (5 Bft) 100,00 %
09.05.2016 14:34 22,1 C 50 % 1012,7 hPa 0,0 l/m 20,1 km/h (4 Bft) NO 34 1 min 0,000 mm 4,4 UV-I 807 W/m 11,2 C 18,9 C 24,1 km/h (4 Bft) 100,00 %
09.05.2016 14:35 22,1 C 49 % 1012,8 hPa 0,0 l/m 22,1 km/h (4 Bft) NO 54 1 min 0,000 mm 4,4 UV-I 803 W/m 10,9 C 18,6 C 33,8 km/h (5 Bft) 100,00 %
09.05.2016 14:36 22,1 C 48 % 1012,8 hPa 0,0 l/m 26,6 km/h (4 Bft) O-NO 65 1 min 0,000 mm 4,4 UV-I 803 W/m 10,6 C 18,0 C 32,2 km/h (5 Bft) 100,00 %
09.05.2016 14:37 22,0 C 47 % 1012,7 hPa 0,0 l/m 14,5 km/h (3 Bft) NO 51 1 min 0,000 mm 4,4 UV-I 803 W/m 10,2 C 19,8 C 24,1 km/h (4 Bft) 100,00 %
09.05.2016 14:38 22,0 C 50 % 1012,8 hPa 0,0 l/m 18,4 km/h (3 Bft) NO 55 1 min 0,000 mm 4,4 UV-I 803 W/m 11,1 C 19,0 C 22,5 km/h (4 Bft) 100,00 %
09.05.2016 14:39 22,0 C 50 % 1012,7 hPa 0,0 l/m 23,6 km/h (4 Bft) O-NO 67 1 min 0,000 mm 4,4 UV-I 801 W/m 11,1 C 18,3 C 30,6 km/h (5 Bft) 100,00 %
09.05.2016 14:40 22,1 C 50 % 1012,7 hPa 0,0 l/m 19,2 km/h (3 Bft) NO 52 1 min 0,000 mm 4,4 UV-I 798 W/m 11,2 C 19,0 C 27,4 km/h (4 Bft) 100,00 %
09.05.2016 14:41 22,1 C 48 % 1012,7 hPa 0,0 l/m 24,8 km/h (4 Bft) NO 50 1 min 0,000 mm 4,3 UV-I 798 W/m 10,6 C 18,3 C 32,2 km/h (5 Bft) 96,15 %
09.05.2016 14:42 22,1 C 52 % 1012,7 hPa 0,0 l/m 25,1 km/h (4 Bft) NO 45 1 min 0,000 mm 4,3 UV-I 798 W/m 11,8 C 18,2 C 30,6 km/h (5 Bft) 93,33 %
09.05.2016 14:43 22,1 C 52 % 1012,7 hPa 0,0 l/m 21,7 km/h (4 Bft) NO 52 1 min 0,000 mm 4,3 UV-I 795 W/m 11,8 C 18,7 C 27,4 km/h (4 Bft) 100,00 %
09.05.2016 14:44 22,1 C 50 % 1012,7 hPa 0,0 l/m 20,2 km/h (4 Bft) NO 55 1 min 0,000 mm 4,3 UV-I 795 W/m 11,2 C 18,9 C 25,7 km/h (4 Bft) 95,83 %
09.05.2016 14:45 22,2 C 51 % 1012,8 hPa 0,0 l/m 19,6 km/h (3 Bft) O-NO 65 1 min 0,000 mm 4,3 UV-I 796 W/m 11,6 C 19,1 C 25,7 km/h (4 Bft) 100,00 %
09.05.2016 14:46 22,2 C 49 % 1012,7 hPa 0,0 l/m 23,9 km/h (4 Bft) O-NO 63 1 min 0,000 mm 4,3 UV-I 788 W/m 11,0 C 18,5 C 32,2 km/h (5 Bft) 100,00 %
09.05.2016 14:47 22,2 C 48 % 1012,8 hPa 0,0 l/m 25,7 km/h (4 Bft) O-NO 67 1 min 0,000 mm 4,2 UV-I 787 W/m 10,7 C 18,3 C 32,2 km/h (5 Bft) 95,65 %
09.05.2016 14:48 22,1 C 49 % 1012,8 hPa 0,0 l/m 18,1 km/h (3 Bft) O-NO 76 1 min 0,000 mm 4,2 UV-I 788 W/m 10,9 C 19,2 C 27,4 km/h (4 Bft) 100,00 %
09.05.2016 14:49 22,1 C 50 % 1012,7 hPa 0,0 l/m 19,9 km/h (4 Bft) O-NO 69 1 min 0,000 mm 4,2 UV-I 788 W/m 11,2 C 18,9 C 24,1 km/h (4 Bft) 100,00 %
09.05.2016 14:50 22,1 C 50 % 1012,7 hPa 0,0 l/m 15,7 km/h (3 Bft) NO 49 1 min 0,000 mm 4,1 UV-I 771 W/m 11,2 C 19,7 C 20,9 km/h (4 Bft) 97,56 %
09.05.2016 14:51 22,2 C 50 % 1012,7 hPa 0,0 l/m 20,2 km/h (4 Bft) O-NO 69 1 min 0,000 mm 4,1 UV-I 767 W/m 11,3 C 19,0 C 32,2 km/h (5 Bft) 100,00 %
09.05.2016 14:52 22,2 C 49 % 1012,7 hPa 0,0 l/m 26,1 km/h (4 Bft) NO 55 1 min 0,000 mm 4,1 UV-I 784 W/m 11,0 C 18,2 C 33,8 km/h (5 Bft) 98,70 %
09.05.2016 14:53 22,2 C 50 % 1012,7 hPa 0,0 l/m 25,1 km/h (4 Bft) O-NO 57 1 min 0,000 mm 4,0 UV-I 781 W/m 11,3 C 18,4 C 32,2 km/h (5 Bft) 100,00 %
09.05.2016 14:54 22,2 C 51 % 1012,7 hPa 0,0 l/m 17,9 km/h (3 Bft) NO 40 1 min 0,000 mm 4,0 UV-I 779 W/m 11,6 C 19,4 C 22,5 km/h (4 Bft) 100,00 %
09.05.2016 14:55 22,3 C 50 % 1012,7 hPa 0,0 l/m 13,9 km/h (3 Bft) O-NO 76 1 min 0,000 mm 4,1 UV-I 782 W/m 11,4 C 20,3 C 17,7 km/h (3 Bft) 92,59 %
09.05.2016 14:56 22,3 C 48 % 1012,7 hPa 0,0 l/m 23,5 km/h (4 Bft) O-NO 61 1 min 0,000 mm 4,1 UV-I 718 W/m 10,8 C 18,7 C 30,6 km/h (5 Bft) 100,00 %
09.05.2016 14:57 22,3 C 46 % 1012,6 hPa 0,0 l/m 22,6 km/h (4 Bft) O-NO 69 1 min 0,000 mm 4,0 UV-I 628 W/m 10,1 C 18,8 C 30,6 km/h (5 Bft) 96,30 %
09.05.2016 14:58 22,3 C 47 % 1012,6 hPa 0,0 l/m 18,3 km/h (3 Bft) O-NO 68 1 min 0,000 mm 4,0 UV-I 646 W/m 10,4 C 19,4 C 25,7 km/h (4 Bft) 95,65 %
09.05.2016 14:59 22,3 C 48 % 1012,7 hPa 0,0 l/m 23,7 km/h (4 Bft) O-NO 71 1 min 0,000 mm 4,0 UV-I 624 W/m 10,8 C 18,7 C 30,6 km/h (5 Bft) 96,30 %
09.05.2016 15:00 22,3 C 47 % 1012,6 hPa 0,0 l/m 25,0 km/h (4 Bft) NO 53 1 min 0,000 mm 4,0 UV-I 627 W/m 10,4 C 18,5 C 30,6 km/h (5 Bft) 95,65 %
09.05.2016 15:01 22,2 C 47 % 1012,6 hPa 0,0 l/m 22,4 km/h (4 Bft) NO 53 1 min 0,635 mm 4,0 UV-I 785 W/m 10,3 C 18,7 C 29,0 km/h (5 Bft) 100,00 %
09.05.2016 15:02 22,2 C 47 % 1012,7 hPa 0,0 l/m 22,7 km/h (4 Bft) NO 55 1 min 0,000 mm 4,0 UV-I 775 W/m 10,3 C 18,7 C 30,6 km/h (5 Bft) 95,65 %
09.05.2016 15:03 22,2 C 48 % 1012,6 hPa 0,0 l/m 22,0 km/h (4 Bft) NO 51 1 min 0,000 mm 3,9 UV-I 763 W/m 10,7 C 18,8 C 29,0 km/h (5 Bft) 100,00 %
09.05.2016 15:04 22,2 C 49 % 1012,7 hPa 0,0 l/m 25,3 km/h (4 Bft) NO 41 1 min 0,000 mm 3,9 UV-I 765 W/m 11,0 C 18,3 C 32,2 km/h (5 Bft) 95,65 %
09.05.2016 15:05 22,2 C 49 % 1012,6 hPa 0,0 l/m 21,5 km/h (4 Bft) NO 54 1 min 0,000 mm 3,8 UV-I 724 W/m 11,0 C 18,8 C 29,0 km/h (5 Bft) 96,30 %
09.05.2016 15:06 22,2 C 51 % 1012,7 hPa 0,0 l/m 20,2 km/h (4 Bft) NO 51 1 min 0,000 mm 3,8 UV-I 707 W/m 11,6 C 19,0 C 27,4 km/h (4 Bft) 100,00 %
09.05.2016 15:07 22,2 C 48 % 1012,6 hPa 0,0 l/m 20,8 km/h (4 Bft) NO 50 1 min 0,000 mm 3,7 UV-I 742 W/m 10,7 C 18,9 C 25,7 km/h (4 Bft) 86,67 %
09.05.2016 15:08 22,2 C 51 % 1012,6 hPa 0,0 l/m 19,2 km/h (3 Bft) NO 53 1 min 0,000 mm 3,7 UV-I 732 W/m 11,6 C 19,2 C 24,1 km/h (4 Bft) 100,00 %
09.05.2016 15:09 22,3 C 48 % 1012,7 hPa 0,0 l/m 22,1 km/h (4 Bft) O 80 1 min 0,000 mm 3,7 UV-I 742 W/m 10,8 C 18,9 C 25,7 km/h (4 Bft) 96,15 %
09.05.2016 15:10 22,3 C 48 % 1012,7 hPa 0,0 l/m 25,6 km/h (4 Bft) O-NO 59 1 min 0,000 mm 3,8 UV-I 754 W/m 10,8 C 18,4 C 32,2 km/h (5 Bft) 100,00 %
09.05.2016 15:11 22,3 C 47 % 1012,7 hPa 0,0 l/m 22,4 km/h (4 Bft) O-NO 63 1 min 0,000 mm 3,7 UV-I 734 W/m 10,4 C 18,8 C 35,4 km/h (5 Bft) 96,55 %
09.05.2016 15:12 22,3 C 46 % 1012,7 hPa 0,0 l/m 18,0 km/h (3 Bft) O-NO 57 1 min 0,000 mm 3,7 UV-I 742 W/m 10,1 C 19,5 C 22,5 km/h (4 Bft) 96,30 %
09.05.2016 15:13 22,3 C 47 % 1012,7 hPa 0,0 l/m 15,8 km/h (3 Bft) NO 44 1 min 0,000 mm 3,7 UV-I 748 W/m 10,4 C 19,9 C 20,9 km/h (4 Bft) 100,00 %
09.05.2016 15:14 22,3 C 48 % 1012,6 hPa 0,0 l/m 20,4 km/h (4 Bft) NO 53 1 min 0,000 mm 3,7 UV-I 734 W/m 10,8 C 19,1 C 27,4 km/h (4 Bft) 95,24 %
09.05.2016 15:15 22,4 C 48 % 1012,6 hPa 0,0 l/m 22,3 km/h (4 Bft) NO 50 1 min 0,000 mm 3,7 UV-I 732 W/m 10,8 C 19,0 C 25,7 km/h (4 Bft) 100,00 %
09.05.2016 15:16 22,4 C 51 % 1012,6 hPa 0,0 l/m 22,4 km/h (4 Bft) O-NO 65 1 min 0,000 mm 3,6 UV-I 731 W/m 11,8 C 19,0 C 29,0 km/h (5 Bft) 95,83 %
09.05.2016 15:17 22,4 C 47 % 1012,6 hPa 0,0 l/m 23,8 km/h (4 Bft) NO 55 1 min 0,000 mm 3,6 UV-I 731 W/m 10,5 C 18,8 C 27,4 km/h (4 Bft) 100,00 %
09.05.2016 15:18 22,4 C 48 % 1012,6 hPa 0,0 l/m 18,2 km/h (3 Bft) NO 44 1 min 0,000 mm 3,6 UV-I 738 W/m 10,8 C 19,6 C 22,5 km/h (4 Bft) 94,44 %
09.05.2016 15:19 22,4 C 47 % 1012,6 hPa 0,0 l/m 20,0 km/h (4 Bft) O 90 1 min 0,000 mm 3,6 UV-I 711 W/m 10,5 C 19,3 C 25,7 km/h (4 Bft) 100,00 %
09.05.2016 15:20 22,4 C 47 % 1012,6 hPa 0,0 l/m 16,9 km/h (3 Bft) O-NO 76 1 min 0,000 mm 3,5 UV-I 664 W/m 10,5 C 19,8 C 22,5 km/h (4 Bft) 96,30 %
09.05.2016 15:21 22,4 C 48 % 1012,6 hPa 0,0 l/m 18,1 km/h (3 Bft) O-NO 65 1 min 0,000 mm 3,4 UV-I 680 W/m 10,8 C 19,6 C 24,1 km/h (4 Bft) 100,00 %
09.05.2016 15:22 22,4 C 47 % 1012,5 hPa 0,0 l/m 21,4 km/h (4 Bft) O-NO 63 1 min 0,000 mm 3,4 UV-I 709 W/m 10,5 C 19,1 C 25,7 km/h (4 Bft) 97,22 %
09.05.2016 15:23 22,4 C 46 % 1012,6 hPa 0,0 l/m 19,9 km/h (4 Bft) NO 44 1 min 0,000 mm 3,5 UV-I 708 W/m 10,2 C 19,3 C 24,1 km/h (4 Bft) 92,86 %
09.05.2016 15:24 22,4 C 47 % 1012,5 hPa 0,0 l/m 21,7 km/h (4 Bft) O-NO 76 1 min 0,000 mm 3,5 UV-I 719 W/m 10,5 C 19,1 C 27,4 km/h (4 Bft) 100,00 %
09.05.2016 15:25 22,4 C 47 % 1012,5 hPa 0,0 l/m 21,1 km/h (4 Bft) O-NO 64 1 min 0,000 mm 3,5 UV-I 715 W/m 10,5 C 19,1 C 25,7 km/h (4 Bft) 94,12 %
09.05.2016 15:26 22,4 C 46 % 1012,5 hPa 0,0 l/m 19,2 km/h (3 Bft) O 88 1 min 0,000 mm 3,4 UV-I 710 W/m 10,2 C 19,4 C 27,4 km/h (4 Bft) 100,00 %
09.05.2016 15:27 22,5 C 45 % 1012,6 hPa 0,0 l/m 22,6 km/h (4 Bft) O-NO 70 1 min 0,000 mm 3,5 UV-I 720 W/m 10,0 C 19,1 C 29,0 km/h (5 Bft) 95,65 %
09.05.2016 15:28 22,4 C 46 % 1012,5 hPa 0,0 l/m 16,8 km/h (3 Bft) O-NO 74 1 min 0,000 mm 3,4 UV-I 712 W/m 10,2 C 19,8 C 29,0 km/h (5 Bft) 100,00 %
09.05.2016 15:29 22,5 C 45 % 1012,5 hPa 0,0 l/m 19,6 km/h (3 Bft) O 90 1 min 0,000 mm 3,4 UV-I 707 W/m 10,0 C 19,5 C 29,0 km/h (5 Bft) 100,00 %
09.05.2016 15:30 22,4 C 45 % 1012,5 hPa 0,0 l/m 19,6 km/h (3 Bft) O-NO 57 1 min 0,000 mm 3,4 UV-I 711 W/m 9,9 C 19,4 C 30,6 km/h (5 Bft) 96,15 %
09.05.2016 15:31 22,4 C 47 % 1012,5 hPa 0,0 l/m 20,8 km/h (4 Bft) NO 42 1 min 0,000 mm 3,4 UV-I 730 W/m 10,5 C 19,2 C 29,0 km/h (5 Bft) 100,00 %
09.05.2016 15:32 22,5 C 48 % 1012,5 hPa 0,0 l/m 22,0 km/h (4 Bft) NO 49 1 min 0,000 mm 3,4 UV-I 727 W/m 10,9 C 19,2 C 30,6 km/h (5 Bft) 97,14 %
09.05.2016 15:33 22,5 C 48 % 1012,5 hPa 0,0 l/m 17,8 km/h (3 Bft) NO 40 1 min 0,000 mm 3,4 UV-I 716 W/m 10,9 C 19,8 C 29,0 km/h (5 Bft) 100,00 %
09.05.2016 15:34 22,5 C 52 % 1012,5 hPa 0,0 l/m 17,2 km/h (3 Bft) N 9 1 min 0,000 mm 3,3 UV-I 712 W/m 12,1 C 19,9 C 24,1 km/h (4 Bft) 100,00 %
09.05.2016 15:35 22,4 C 51 % 1012,5 hPa 0,0 l/m 22,0 km/h (4 Bft) NO 38 1 min 0,000 mm 3,3 UV-I 693 W/m 11,8 C 19,0 C 29,0 km/h (5 Bft) 100,00 %
09.05.2016 15:36 22,4 C 48 % 1012,5 hPa 0,0 l/m 18,3 km/h (3 Bft) NO 46 1 min 0,000 mm 3,2 UV-I 676 W/m 10,8 C 19,6 C 24,1 km/h (4 Bft) 100,00 %
09.05.2016 15:37 22,4 C 52 % 1012,5 hPa 0,0 l/m 22,6 km/h (4 Bft) N-NO 26 1 min 0,000 mm 3,3 UV-I 694 W/m 12,1 C 18,9 C 32,2 km/h (5 Bft) 100,00 %
09.05.2016 15:38 22,4 C 49 % 1012,4 hPa 0,0 l/m 16,3 km/h (3 Bft) N-NO 31 1 min 0,000 mm 3,2 UV-I 694 W/m 11,2 C 19,9 C 24,1 km/h (4 Bft) 100,00 %
09.05.2016 15:39 22,4 C 51 % 1012,5 hPa 0,0 l/m 17,9 km/h (3 Bft) O-NO 57 1 min 0,000 mm 3,2 UV-I 705 W/m 11,8 C 19,6 C 22,5 km/h (4 Bft) 100,00 %
09.05.2016 15:40 22,4 C 49 % 1012,4 hPa 0,0 l/m 17,1 km/h (3 Bft) NO 51 1 min 0,000 mm 3,2 UV-I 696 W/m 11,2 C 19,8 C 25,7 km/h (4 Bft) 100,00 %
09.05.2016 15:41 22,4 C 46 % 1012,5 hPa 0,0 l/m 23,2 km/h (4 Bft) O-NO 72 1 min 0,000 mm 3,2 UV-I 706 W/m 10,2 C 18,9 C 33,8 km/h (5 Bft) 100,00 %
09.05.2016 15:42 22,6 C 47 % 1012,5 hPa 0,0 l/m 22,0 km/h (4 Bft) O-NO 74 1 min 0,000 mm 3,2 UV-I 700 W/m 10,7 C 19,3 C 29,0 km/h (5 Bft) 100,00 %
09.05.2016 15:43 22,6 C 47 % 1012,5 hPa 0,0 l/m 24,9 km/h (4 Bft) O-NO 66 1 min 0,000 mm 3,2 UV-I 699 W/m 10,7 C 18,9 C 30,6 km/h (5 Bft) 100,00 %
09.05.2016 15:44 22,6 C 45 % 1012,5 hPa 0,0 l/m 23,9 km/h (4 Bft) O 86 1 min 0,000 mm 3,2 UV-I 707 W/m 10,1 C 19,0 C 29,0 km/h (5 Bft) 100,00 %
09.05.2016 15:45 22,6 C 45 % 1012,5 hPa 0,0 l/m 23,7 km/h (4 Bft) O-NO 60 1 min 0,000 mm 3,1 UV-I 699 W/m 10,1 C 19,1 C 33,8 km/h (5 Bft) 100,00 %
09.05.2016 15:46 22,6 C 46 % 1012,5 hPa 0,0 l/m 24,5 km/h (4 Bft) O-NO 71 1 min 0,000 mm 3,0 UV-I 680 W/m 10,4 C 19,0 C 29,0 km/h (5 Bft) 100,00 %
09.05.2016 15:47 22,6 C 47 % 1012,5 hPa 0,0 l/m 21,5 km/h (4 Bft) O-NO 65 1 min 0,000 mm 3,0 UV-I 654 W/m 10,7 C 19,4 C 27,4 km/h (4 Bft) 100,00 %
09.05.2016 15:48 22,6 C 45 % 1012,5 hPa 0,0 l/m 26,6 km/h (4 Bft) NO 55 1 min 0,000 mm 3,0 UV-I 674 W/m 10,1 C 18,7 C 32,2 km/h (5 Bft) 100,00 %
09.05.2016 15:49 22,7 C 45 % 1012,5 hPa 0,0 l/m 24,5 km/h (4 Bft) O-NO 65 1 min 0,000 mm 3,0 UV-I 671 W/m 10,1 C 19,1 C 30,6 km/h (5 Bft) 100,00 %
09.05.2016 15:50 22,6 C 45 % 1012,5 hPa 0,0 l/m 17,8 km/h (3 Bft) O-NO 75 1 min 0,000 mm 2,9 UV-I 641 W/m 10,1 C 19,9 C 25,7 km/h (4 Bft) 100,00 %
09.05.2016 15:51 22,6 C 45 % 1012,5 hPa 0,0 l/m 19,8 km/h (3 Bft) O-NO 58 1 min 0,000 mm 2,8 UV-I 596 W/m 10,1 C 19,6 C 27,4 km/h (4 Bft) 100,00 %
09.05.2016 15:52 22,6 C 47 % 1012,4 hPa 0,0 l/m 17,6 km/h (3 Bft) O-NO 75 1 min 0,000 mm 2,9 UV-I 656 W/m 10,7 C 19,9 C 22,5 km/h (4 Bft) 100,00 %
09.05.2016 15:53 22,6 C 48 % 1012,4 hPa 0,0 l/m 20,0 km/h (4 Bft) N-NO 30 1 min 0,000 mm 2,8 UV-I 628 W/m 11,0 C 19,6 C 29,0 km/h (5 Bft) 100,00 %
09.05.2016 15:54 22,6 C 48 % 1012,4 hPa 0,0 l/m 20,1 km/h (4 Bft) O-NO 70 1 min 0,000 mm 2,6 UV-I 568 W/m 11,0 C 19,5 C 25,7 km/h (4 Bft) 100,00 %
09.05.2016 15:55 22,5 C 48 % 1012,4 hPa 0,0 l/m 23,3 km/h (4 Bft) NO 37 1 min 0,000 mm 2,6 UV-I 567 W/m 10,9 C 19,0 C 30,6 km/h (5 Bft) 93,33 %
09.05.2016 15:56 22,4 C 47 % 1012,4 hPa 0,0 l/m 24,7 km/h (4 Bft) O-NO 64 1 min 0,000 mm 2,7 UV-I 580 W/m 10,5 C 18,7 C 32,2 km/h (5 Bft) 100,00 %
09.05.2016 15:57 22,4 C 46 % 1012,4 hPa 0,0 l/m 23,5 km/h (4 Bft) O-NO 57 1 min 0,000 mm 2,6 UV-I 592 W/m 10,2 C 18,8 C 29,0 km/h (5 Bft) 100,00 %
09.05.2016 15:58 22,4 C 45 % 1012,4 hPa 0,0 l/m 26,0 km/h (4 Bft) O-NO 59 1 min 0,000 mm 2,5 UV-I 557 W/m 9,9 C 18,5 C 33,8 km/h (5 Bft) 100,00 %
09.05.2016 15:59 22,4 C 45 % 1012,5 hPa 0,0 l/m 19,4 km/h (3 Bft) O-NO 61 1 min 0,000 mm 2,6 UV-I 580 W/m 9,9 C 19,4 C 24,1 km/h (4 Bft) 100,00 %
09.05.2016 16:00 22,4 C 47 % 1012,4 hPa 0,0 l/m 20,7 km/h (4 Bft) NO 54 1 min 0,000 mm 1,7 UV-I 635 W/m 10,5 C 19,2 C 24,1 km/h (4 Bft) 100,00 %
09.05.2016 16:01 22,5 C 47 % 1012,4 hPa 0,0 l/m 23,3 km/h (4 Bft) NO 43 1 min 0,585 mm 2,7 UV-I 630 W/m 10,6 C 19,0 C 29,0 km/h (5 Bft) 100,00 %
09.05.2016 16:02 22,6 C 46 % 1012,4 hPa 0,0 l/m 22,9 km/h (4 Bft) O-NO 63 1 min 0,000 mm 2,6 UV-I 600 W/m 10,4 C 19,2 C 33,8 km/h (5 Bft) 96,30 %
09.05.2016 16:03 22,6 C 46 % 1012,4 hPa 0,0 l/m 24,3 km/h (4 Bft) N-NO 28 1 min 0,000 mm 2,7 UV-I 627 W/m 10,4 C 19,0 C 33,8 km/h (5 Bft) 100,00 %
09.05.2016 16:04 22,5 C 50 % 1012,4 hPa 0,0 l/m 20,1 km/h (4 Bft) N-NO 30 1 min 0,000 mm 2,7 UV-I 662 W/m 11,5 C 19,4 C 24,1 km/h (4 Bft) 100,00 %
09.05.2016 16:05 22,5 C 50 % 1012,4 hPa 0,0 l/m 17,9 km/h (3 Bft) N-NO 32 1 min 0,000 mm 2,6 UV-I 619 W/m 11,5 C 19,8 C 24,1 km/h (4 Bft) 100,00 %
09.05.2016 16:06 22,4 C 48 % 1012,3 hPa 0,0 l/m 23,1 km/h (4 Bft) NO 47 1 min 0,000 mm 2,2 UV-I 578 W/m 10,8 C 18,9 C 29,0 km/h (5 Bft) 100,00 %
09.05.2016 16:07 22,3 C 49 % 1012,4 hPa 0,0 l/m 20,2 km/h (4 Bft) O-NO 62 1 min 0,000 mm 2,4 UV-I 552 W/m 11,1 C 19,1 C 27,4 km/h (4 Bft) 100,00 %
09.05.2016 16:08 22,3 C 46 % 1012,4 hPa 0,0 l/m 19,9 km/h (4 Bft) O-NO 65 1 min 0,000 mm 2,6 UV-I 622 W/m 10,1 C 19,2 C 27,4 km/h (4 Bft) 100,00 %
09.05.2016 16:09 22,3 C 46 % 1012,4 hPa 0,0 l/m 16,7 km/h (3 Bft) O-NO 68 1 min 0,000 mm 2,6 UV-I 655 W/m 10,1 C 19,7 C 20,9 km/h (4 Bft) 100,00 %
09.05.2016 16:10 22,4 C 47 % 1012,4 hPa 0,0 l/m 22,5 km/h (4 Bft) O-NO 65 1 min 0,000 mm 2,6 UV-I 637 W/m 10,5 C 19,0 C 30,6 km/h (5 Bft) 100,00 %
09.05.2016 16:11 22,4 C 46 % 1012,4 hPa 0,0 l/m 20,4 km/h (4 Bft) N-NO 24 1 min 0,000 mm 2,6 UV-I 637 W/m 10,2 C 19,2 C 25,7 km/h (4 Bft) 100,00 %
09.05.2016 16:12 22,4 C 49 % 1012,4 hPa 0,0 l/m 27,1 km/h (4 Bft) NO 38 1 min 0,000 mm 2,5 UV-I 631 W/m 11,2 C 18,4 C 38,6 km/h (5 Bft) 100,00 %
09.05.2016 16:13 22,4 C 49 % 1012,4 hPa 0,0 l/m 21,4 km/h (4 Bft) O-NO 66 1 min 0,000 mm 2,5 UV-I 640 W/m 11,2 C 19,1 C 29,0 km/h (5 Bft) 100,00 %
09.05.2016 16:14 22,5 C 47 % 1012,4 hPa 0,0 l/m 29,2 km/h (5 Bft) NO 47 1 min 0,000 mm 2,5 UV-I 621 W/m 10,6 C 18,3 C 35,4 km/h (5 Bft) 100,00 %
09.05.2016 16:15 22,6 C 46 % 1012,4 hPa 0,0 l/m 26,6 km/h (4 Bft) NO 53 1 min 0,000 mm 2,4 UV-I 583 W/m 10,4 C 18,7 C 33,8 km/h (5 Bft) 100,00 %
09.05.2016 16:16 22,6 C 46 % 1012,4 hPa 0,0 l/m 27,8 km/h (4 Bft) O-NO 74 1 min 0,000 mm 2,3 UV-I 511 W/m 10,4 C 18,6 C 32,2 km/h (5 Bft) 100,00 %
09.05.2016 16:17 22,6 C 45 % 1012,4 hPa 0,0 l/m 23,6 km/h (4 Bft) O-NO 59 1 min 0,000 mm 2,2 UV-I 510 W/m 10,1 C 19,1 C 30,6 km/h (5 Bft) 100,00 %
09.05.2016 16:18 22,5 C 46 % 1012,4 hPa 0,0 l/m 17,9 km/h (3 Bft) O-NO 69 1 min 0,000 mm 2,2 UV-I 508 W/m 10,3 C 19,8 C 24,1 km/h (4 Bft) 100,00 %
09.05.2016 16:19 22,4 C 46 % 1012,4 hPa 0,0 l/m 15,7 km/h (3 Bft) O-NO 63 1 min 0,000 mm 2,1 UV-I 495 W/m 10,2 C 20,0 C 20,9 km/h (4 Bft) 100,00 %
09.05.2016 16:20 22,4 C 47 % 1012,4 hPa 0,0 l/m 20,6 km/h (4 Bft) O 84 1 min 0,000 mm 2,2 UV-I 565 W/m 10,5 C 19,2 C 25,7 km/h (4 Bft) 100,00 %
09.05.2016 16:21 22,4 C 47 % 1012,4 hPa 0,0 l/m 26,6 km/h (4 Bft) O-NO 66 1 min 0,000 mm 2,3 UV-I 607 W/m 10,5 C 18,5 C 32,2 km/h (5 Bft) 100,00 %
09.05.2016 16:22 22,4 C 45 % 1012,3 hPa 0,0 l/m 16,7 km/h (3 Bft) O-NO 61 1 min 0,000 mm 2,2 UV-I 605 W/m 9,9 C 19,8 C 20,9 km/h (4 Bft) 97,14 %
09.05.2016 16:23 22,5 C 45 % 1012,4 hPa 0,0 l/m 17,4 km/h (3 Bft) N-NO 32 1 min 0,000 mm 2,2 UV-I 564 W/m 10,0 C 19,8 C 24,1 km/h (4 Bft) 100,00 %
09.05.2016 16:24 22,4 C 50 % 1012,3 hPa 0,0 l/m 21,9 km/h (4 Bft) NO 51 1 min 0,000 mm 2,2 UV-I 556 W/m 11,5 C 19,0 C 32,2 km/h (5 Bft) 100,00 %
09.05.2016 16:25 22,4 C 47 % 1012,3 hPa 0,0 l/m 22,4 km/h (4 Bft) NO 37 1 min 0,000 mm 2,2 UV-I 568 W/m 10,5 C 19,0 C 29,0 km/h (5 Bft) 98,70 %
09.05.2016 16:26 22,5 C 47 % 1012,3 hPa 0,0 l/m 18,7 km/h (3 Bft) NO 44 1 min 0,000 mm 2,2 UV-I 586 W/m 10,6 C 19,6 C 25,7 km/h (4 Bft) 100,00 %
09.05.2016 16:27 22,6 C 46 % 1012,3 hPa 0,0 l/m 20,2 km/h (4 Bft) NO 48 1 min 0,000 mm 2,2 UV-I 582 W/m 10,4 C 19,5 C 25,7 km/h (4 Bft) 97,56 %
09.05.2016 16:28 22,6 C 46 % 1012,4 hPa 0,0 l/m 20,7 km/h (4 Bft) O-NO 57 1 min 0,000 mm 2,2 UV-I 598 W/m 10,4 C 19,5 C 25,7 km/h (4 Bft) 100,00 %
09.05.2016 16:29 22,6 C 46 % 1012,3 hPa 0,0 l/m 24,1 km/h (4 Bft) NO 46 1 min 0,000 mm 2,1 UV-I 534 W/m 10,4 C 19,0 C 30,6 km/h (5 Bft) 100,00 %
09.05.2016 16:30 22,6 C 46 % 1012,4 hPa 0,0 l/m 21,1 km/h (4 Bft) NO 46 1 min 0,000 mm 2,2 UV-I 579 W/m 10,4 C 19,4 C 27,4 km/h (4 Bft) 100,00 %
09.05.2016 16:31 22,6 C 45 % 1012,3 hPa 0,0 l/m 20,4 km/h (4 Bft) NO 35 1 min 0,000 mm 2,2 UV-I 599 W/m 10,1 C 19,5 C 29,0 km/h (5 Bft) 96,15 %
09.05.2016 16:32 22,7 C 45 % 1012,3 hPa 0,0 l/m 18,5 km/h (3 Bft) NO 45 1 min 0,000 mm 2,2 UV-I 594 W/m 10,1 C 19,9 C 24,1 km/h (4 Bft) 100,00 %
09.05.2016 16:33 22,7 C 45 % 1012,4 hPa 0,0 l/m 22,2 km/h (4 Bft) O-NO 59 1 min 0,000 mm 2,1 UV-I 585 W/m 10,1 C 19,4 C 30,6 km/h (5 Bft) 100,00 %
09.05.2016 16:34 22,7 C 45 % 1012,4 hPa 0,0 l/m 20,9 km/h (4 Bft) O-NO 61 1 min 0,000 mm 2,1 UV-I 580 W/m 10,1 C 19,6 C 27,4 km/h (4 Bft) 100,00 %
09.05.2016 16:35 22,7 C 47 % 1012,5 hPa 0,0 l/m 16,4 km/h (3 Bft) O-NO 68 1 min 0,000 mm 2,1 UV-I 568 W/m 10,8 C 20,3 C 24,1 km/h (4 Bft) 100,00 %
09.05.2016 16:36 22,7 C 46 % 1012,5 hPa 0,0 l/m 19,6 km/h (3 Bft) O-NO 69 1 min 0,000 mm 2,1 UV-I 560 W/m 10,5 C 19,8 C 25,7 km/h (4 Bft) 100,00 %
09.05.2016 16:37 22,8 C 45 % 1012,4 hPa 0,0 l/m 16,9 km/h (3 Bft) O-NO 57 1 min 0,000 mm 2,0 UV-I 568 W/m 10,2 C 20,3 C 22,5 km/h (4 Bft) 100,00 %
09.05.2016 16:38 22,8 C 47 % 1012,4 hPa 0,0 l/m 12,7 km/h (3 Bft) O-NO 69 1 min 0,000 mm 2,0 UV-I 584 W/m 10,9 C 21,1 C 17,7 km/h (3 Bft) 100,00 %
09.05.2016 16:39 22,8 C 47 % 1012,4 hPa 0,0 l/m 21,7 km/h (4 Bft) O 89 1 min 0,000 mm 2,0 UV-I 560 W/m 10,9 C 19,6 C 27,4 km/h (4 Bft) 94,12 %
09.05.2016 16:40 22,8 C 45 % 1012,4 hPa 0,0 l/m 20,2 km/h (4 Bft) O-NO 59 1 min 0,000 mm 1,8 UV-I 455 W/m 10,2 C 19,8 C 27,4 km/h (4 Bft) 100,00 %
09.05.2016 16:41 22,8 C 45 % 1012,4 hPa 0,0 l/m 19,2 km/h (3 Bft) O-NO 64 1 min 0,000 mm 1,7 UV-I 414 W/m 10,2 C 19,9 C 25,7 km/h (4 Bft) 100,00 %
09.05.2016 16:42 22,7 C 45 % 1012,3 hPa 0,0 l/m 23,7 km/h (4 Bft) NO 51 1 min 0,000 mm 1,8 UV-I 461 W/m 10,1 C 19,2 C 35,4 km/h (5 Bft) 100,00 %
09.05.2016 16:43 22,7 C 44 % 1012,3 hPa 0,0 l/m 25,6 km/h (4 Bft) NO 55 1 min 0,000 mm 1,8 UV-I 497 W/m 9,8 C 19,0 C 32,2 km/h (5 Bft) 100,00 %
09.05.2016 16:44 22,7 C 44 % 1012,4 hPa 0,0 l/m 23,7 km/h (4 Bft) NO 40 1 min 0,000 mm 1,9 UV-I 510 W/m 9,8 C 19,2 C 29,0 km/h (5 Bft) 96,30 %
09.05.2016 16:45 22,6 C 44 % 1012,4 hPa 0,0 l/m 19,9 km/h (4 Bft) NO 34 1 min 0,000 mm 1,9 UV-I 545 W/m 9,7 C 19,6 C 25,7 km/h (4 Bft) 100,00 %
09.05.2016 16:46 22,6 C 45 % 1012,4 hPa 0,0 l/m 24,0 km/h (4 Bft) O-NO 72 1 min 0,000 mm 1,9 UV-I 557 W/m 10,1 C 19,0 C 29,0 km/h (5 Bft) 100,00 %
09.05.2016 16:47 22,6 C 45 % 1012,4 hPa 0,0 l/m 14,4 km/h (3 Bft) O-NO 70 1 min 0,000 mm 1,9 UV-I 542 W/m 10,1 C 20,5 C 19,3 km/h (3 Bft) 96,55 %
09.05.2016 16:48 22,6 C 45 % 1012,3 hPa 0,0 l/m 20,1 km/h (4 Bft) O-NO 64 1 min 0,000 mm 1,9 UV-I 551 W/m 10,1 C 19,5 C 24,1 km/h (4 Bft) 100,00 %
09.05.2016 16:49 22,6 C 45 % 1012,3 hPa 0,0 l/m 17,3 km/h (3 Bft) NO 55 1 min 0,000 mm 1,9 UV-I 557 W/m 10,1 C 20,0 C 20,9 km/h (4 Bft) 100,00 %
09.05.2016 16:50 22,6 C 48 % 1012,3 hPa 0,0 l/m 23,3 km/h (4 Bft) NO 38 1 min 0,000 mm 1,8 UV-I 544 W/m 11,0 C 19,1 C 35,4 km/h (5 Bft) 96,15 %
09.05.2016 16:51 22,6 C 46 % 1012,3 hPa 0,0 l/m 20,4 km/h (4 Bft) NO 53 1 min 0,000 mm 1,8 UV-I 550 W/m 10,4 C 19,5 C 29,0 km/h (5 Bft) 96,67 %
09.05.2016 16:52 22,7 C 47 % 1012,4 hPa 0,0 l/m 25,3 km/h (4 Bft) O-SO 105 1 min 0,000 mm 1,8 UV-I 550 W/m 10,8 C 19,0 C 32,2 km/h (5 Bft) 100,00 %
09.05.2016 16:53 22,7 C 44 % 1012,3 hPa 0,0 l/m 22,2 km/h (4 Bft) O-NO 63 1 min 0,000 mm 1,8 UV-I 548 W/m 9,8 C 19,4 C 29,0 km/h (5 Bft) 96,30 %
09.05.2016 16:54 22,7 C 45 % 1012,3 hPa 0,0 l/m 20,3 km/h (4 Bft) O-NO 59 1 min 0,000 mm 1,8 UV-I 546 W/m 10,1 C 19,7 C 27,4 km/h (4 Bft) 100,00 %
09.05.2016 16:55 22,7 C 45 % 1012,3 hPa 0,0 l/m 17,5 km/h (3 Bft) O-NO 78 1 min 0,000 mm 1,8 UV-I 540 W/m 10,1 C 20,1 C 24,1 km/h (4 Bft) 95,83 %
09.05.2016 16:56 22,7 C 46 % 1012,3 hPa 0,0 l/m 14,1 km/h (3 Bft) NO 45 1 min 0,000 mm 1,7 UV-I 538 W/m 10,5 C 20,7 C 20,9 km/h (4 Bft) 95,65 %
09.05.2016 16:57 22,7 C 46 % 1012,3 hPa 0,0 l/m 18,0 km/h (3 Bft) O-NO 63 1 min 0,000 mm 1,7 UV-I 510 W/m 10,5 C 20,0 C 27,4 km/h (4 Bft) 95,83 %
09.05.2016 16:58 22,7 C 46 % 1012,2 hPa 0,0 l/m 20,2 km/h (4 Bft) NO 44 1 min 0,000 mm 1,6 UV-I 502 W/m 10,5 C 19,7 C 24,1 km/h (4 Bft) 100,00 %
09.05.2016 16:59 22,7 C 45 % 1012,2 hPa 0,0 l/m 21,9 km/h (4 Bft) O-NO 76 1 min 0,000 mm 1,6 UV-I 503 W/m 10,1 C 19,4 C 29,0 km/h (5 Bft) 96,67 %
09.05.2016 17:00 22,7 C 44 % 1012,3 hPa 0,0 l/m 19,8 km/h (3 Bft) NO 51 1 min 0,508 mm 1,6 UV-I 506 W/m 9,8 C 19,7 C 32,2 km/h (5 Bft) 95,65 %
09.05.2016 17:01 22,7 C 46 % 1012,2 hPa 0,0 l/m 14,5 km/h (3 Bft) NO 55 1 min 0,000 mm 1,6 UV-I 512 W/m 10,5 C 20,6 C 20,9 km/h (4 Bft) 100,00 %
09.05.2016 17:02 22,7 C 45 % 1012,2 hPa 0,0 l/m 13,6 km/h (3 Bft) N 11 1 min 0,000 mm 1,6 UV-I 513 W/m 10,1 C 20,8 C 27,4 km/h (4 Bft) 98,69 %
09.05.2016 17:03 22,6 C 47 % 1012,2 hPa 0,0 l/m 20,7 km/h (4 Bft) NO 38 1 min 0,000 mm 1,6 UV-I 504 W/m 10,7 C 19,5 C 27,4 km/h (4 Bft) 95,45 %
09.05.2016 17:04 22,6 C 46 % 1012,2 hPa 0,0 l/m 20,8 km/h (4 Bft) O-NO 60 1 min 0,000 mm 1,6 UV-I 503 W/m 10,4 C 19,4 C 27,4 km/h (4 Bft) 96,15 %
09.05.2016 17:05 22,6 C 45 % 1012,2 hPa 0,0 l/m 25,9 km/h (4 Bft) NO 46 1 min 0,000 mm 1,5 UV-I 498 W/m 10,1 C 18,8 C 32,2 km/h (5 Bft) 100,00 %
09.05.2016 17:06 22,6 C 44 % 1012,1 hPa 0,0 l/m 24,1 km/h (4 Bft) O-NO 60 1 min 0,000 mm 1,5 UV-I 492 W/m 9,7 C 19,0 C 32,2 km/h (5 Bft) 96,30 %
09.05.2016 17:07 22,6 C 44 % 1012,2 hPa 0,0 l/m 26,8 km/h (4 Bft) NO 56 1 min 0,000 mm 1,4 UV-I 462 W/m 9,7 C 18,7 C 33,8 km/h (5 Bft) 93,10 %
09.05.2016 17:08 22,5 C 45 % 1012,1 hPa 0,0 l/m 22,4 km/h (4 Bft) O-NO 74 1 min 0,000 mm 1,3 UV-I 388 W/m 10,0 C 19,1 C 29,0 km/h (5 Bft) 100,00 %
09.05.2016 17:09 22,5 C 45 % 1012,3 hPa 0,0 l/m 23,4 km/h (4 Bft) O-NO 62 1 min 0,000 mm 1,4 UV-I 390 W/m 10,0 C 19,0 C 33,8 km/h (5 Bft) 96,55 %
09.05.2016 17:10 22,4 C 44 % 1012,2 hPa 0,0 l/m 26,9 km/h (4 Bft) O-NO 58 1 min 0,000 mm 1,5 UV-I 497 W/m 9,5 C 18,4 C 32,2 km/h (5 Bft) 100,00 %
09.05.2016 17:11 22,4 C 45 % 1012,2 hPa 0,0 l/m 26,7 km/h (4 Bft) O-NO 62 1 min 0,000 mm 1,5 UV-I 503 W/m 9,9 C 18,4 C 33,8 km/h (5 Bft) 96,55 %
09.05.2016 17:12 22,4 C 45 % 1012,2 hPa 0,0 l/m 23,9 km/h (4 Bft) NO 55 1 min 0,000 mm 1,4 UV-I 506 W/m 9,9 C 18,8 C 29,0 km/h (5 Bft) 96,67 %
09.05.2016 17:13 22,4 C 44 % 1012,2 hPa 0,0 l/m 24,5 km/h (4 Bft) O-NO 78 1 min 0,000 mm 1,4 UV-I 503 W/m 9,5 C 18,7 C 32,2 km/h (5 Bft) 100,00 %
09.05.2016 17:14 22,4 C 44 % 1012,2 hPa 0,0 l/m 24,1 km/h (4 Bft) O-NO 68 1 min 0,000 mm 1,4 UV-I 475 W/m 9,5 C 18,7 C 29,0 km/h (5 Bft) 94,44 %
09.05.2016 17:15 22,4 C 45 % 1012,1 hPa 0,0 l/m 16,7 km/h (3 Bft) NO 48 1 min 0,000 mm 1,3 UV-I 411 W/m 9,9 C 19,8 C 25,7 km/h (4 Bft) 100,00 %
09.05.2016 17:16 22,4 C 45 % 1012,1 hPa 0,0 l/m 22,5 km/h (4 Bft) O-NO 78 1 min 0,000 mm 1,3 UV-I 436 W/m 9,9 C 19,0 C 29,0 km/h (5 Bft) 95,83 %
09.05.2016 17:17 22,4 C 45 % 1012,1 hPa 0,0 l/m 17,6 km/h (3 Bft) O-NO 58 1 min 0,000 mm 1,3 UV-I 429 W/m 9,9 C 19,7 C 22,5 km/h (4 Bft) 100,00 %
09.05.2016 17:18 22,5 C 45 % 1012,1 hPa 0,0 l/m 19,0 km/h (3 Bft) O 97 1 min 0,000 mm 1,3 UV-I 468 W/m 10,0 C 19,6 C 25,7 km/h (4 Bft) 96,67 %
09.05.2016 17:19 22,5 C 45 % 1012,2 hPa 0,0 l/m 17,3 km/h (3 Bft) O-NO 75 1 min 0,000 mm 1,3 UV-I 484 W/m 10,0 C 19,9 C 22,5 km/h (4 Bft) 100,00 %
09.05.2016 17:20 22,6 C 46 % 1012,1 hPa 0,0 l/m 15,0 km/h (3 Bft) O-NO 62 1 min 0,000 mm 1,3 UV-I 482 W/m 10,4 C 20,4 C 20,9 km/h (4 Bft) 96,15 %
09.05.2016 17:21 22,6 C 46 % 1012,1 hPa 0,0 l/m 16,6 km/h (3 Bft) O-NO 61 1 min 0,000 mm 1,3 UV-I 473 W/m 10,4 C 20,1 C 24,1 km/h (4 Bft) 100,00 %
09.05.2016 17:22 22,6 C 46 % 1012,2 hPa 0,0 l/m 19,7 km/h (3 Bft) O-NO 57 1 min 0,000 mm 1,3 UV-I 468 W/m 10,4 C 19,6 C 25,7 km/h (4 Bft) 100,00 %
09.05.2016 17:23 22,6 C 44 % 1012,1 hPa 0,0 l/m 18,7 km/h (3 Bft) NO 43 1 min 0,000 mm 1,3 UV-I 460 W/m 9,7 C 19,8 C 22,5 km/h (4 Bft) 100,00 %
09.05.2016 17:24 22,6 C 44 % 1012,1 hPa 0,0 l/m 21,7 km/h (4 Bft) O-NO 63 1 min 0,000 mm 1,3 UV-I 444 W/m 9,7 C 19,3 C 29,0 km/h (5 Bft) 100,00 %
09.05.2016 17:25 22,6 C 45 % 1012,1 hPa 0,0 l/m 18,1 km/h (3 Bft) O-NO 61 1 min 0,000 mm 1,2 UV-I 416 W/m 10,1 C 19,9 C 20,9 km/h (4 Bft) 98,66 %
09.05.2016 17:26 22,5 C 46 % 1012,1 hPa 0,0 l/m 17,0 km/h (3 Bft) NO 44 1 min 0,000 mm 1,1 UV-I 410 W/m 10,3 C 19,9 C 25,7 km/h (4 Bft) 100,00 %
09.05.2016 17:27 22,4 C 47 % 1012,1 hPa 0,0 l/m 22,2 km/h (4 Bft) O-NO 65 1 min 0,000 mm 1,1 UV-I 316 W/m 10,5 C 19,0 C 30,6 km/h (5 Bft) 100,00 %
09.05.2016 17:28 22,3 C 44 % 1012,1 hPa 0,0 l/m 21,5 km/h (4 Bft) O-NO 60 1 min 0,000 mm 1,1 UV-I 354 W/m 9,5 C 19,0 C 24,1 km/h (4 Bft) 100,00 %
09.05.2016 17:29 22,3 C 44 % 1012,1 hPa 0,0 l/m 17,6 km/h (3 Bft) NO 46 1 min 0,000 mm 1,1 UV-I 408 W/m 9,5 C 19,6 C 22,5 km/h (4 Bft) 94,44 %
09.05.2016 17:30 22,2 C 46 % 1012,1 hPa 0,0 l/m 21,5 km/h (4 Bft) NO 45 1 min 0,000 mm 1,1 UV-I 407 W/m 10,0 C 18,8 C 32,2 km/h (5 Bft) 98,66 %
09.05.2016 17:31 22,2 C 45 % 1012,1 hPa 0,0 l/m 22,0 km/h (4 Bft) NO 39 1 min 0,000 mm 1,1 UV-I 415 W/m 9,7 C 18,8 C 27,4 km/h (4 Bft) 97,56 %
09.05.2016 17:32 22,2 C 47 % 1012,1 hPa 0,0 l/m 15,5 km/h (3 Bft) NO 56 1 min 0,000 mm 1,1 UV-I 418 W/m 10,3 C 19,8 C 22,5 km/h (4 Bft) 100,00 %
09.05.2016 17:33 22,2 C 46 % 1012,1 hPa 0,0 l/m 21,2 km/h (4 Bft) NO 39 1 min 0,000 mm 1,1 UV-I 419 W/m 10,0 C 18,9 C 27,4 km/h (4 Bft) 100,00 %
09.05.2016 17:34 22,2 C 47 % 1012,1 hPa 0,0 l/m 13,3 km/h (3 Bft) O-NO 71 1 min 0,000 mm 1,1 UV-I 414 W/m 10,3 C 20,3 C 17,7 km/h (3 Bft) 100,00 %
09.05.2016 17:35 22,3 C 46 % 1012,1 hPa 0,0 l/m 15,0 km/h (3 Bft) NO 47 1 min 0,000 mm 1,1 UV-I 413 W/m 10,1 C 20,0 C 20,9 km/h (4 Bft) 100,00 %
09.05.2016 17:36 22,3 C 44 % 1012,1 hPa 0,0 l/m 19,7 km/h (3 Bft) NO 44 1 min 0,000 mm 1,1 UV-I 408 W/m 9,5 C 19,2 C 25,7 km/h (4 Bft) 96,15 %
09.05.2016 17:37 22,3 C 45 % 1012,1 hPa 0,0 l/m 23,0 km/h (4 Bft) O-NO 67 1 min 0,000 mm 1,0 UV-I 392 W/m 9,8 C 18,8 C 27,4 km/h (4 Bft) 100,00 %
09.05.2016 17:38 22,3 C 44 % 1012,0 hPa 0,0 l/m 25,4 km/h (4 Bft) O-NO 61 1 min 0,000 mm 1,0 UV-I 387 W/m 9,5 C 18,5 C 32,2 km/h (5 Bft) 100,00 %
09.05.2016 17:39 22,3 C 44 % 1012,0 hPa 0,0 l/m 19,1 km/h (3 Bft) O-NO 58 1 min 0,000 mm 1,0 UV-I 384 W/m 9,5 C 19,3 C 22,5 km/h (4 Bft) 100,00 %
09.05.2016 17:40 22,3 C 45 % 1012,0 hPa 0,0 l/m 18,8 km/h (3 Bft) O-NO 63 1 min 0,000 mm 1,0 UV-I 382 W/m 9,8 C 19,4 C 25,7 km/h (4 Bft) 100,00 %
09.05.2016 17:41 22,3 C 45 % 1012,1 hPa 0,0 l/m 25,0 km/h (4 Bft) NO 51 1 min 0,000 mm 1,0 UV-I 387 W/m 9,8 C 18,5 C 30,6 km/h (5 Bft) 100,00 %
09.05.2016 17:42 22,3 C 43 % 1012,1 hPa 0,0 l/m 23,3 km/h (4 Bft) NO 51 1 min 0,000 mm 1,0 UV-I 393 W/m 9,1 C 18,7 C 30,6 km/h (5 Bft) 100,00 %
09.05.2016 17:43 22,3 C 43 % 1012,0 hPa 0,0 l/m 24,3 km/h (4 Bft) NO 41 1 min 0,000 mm 1,0 UV-I 396 W/m 9,1 C 18,6 C 32,2 km/h (5 Bft) 100,00 %
09.05.2016 17:44 22,3 C 43 % 1012,0 hPa 0,0 l/m 22,1 km/h (4 Bft) NO 53 1 min 0,000 mm 1,0 UV-I 392 W/m 9,1 C 18,9 C 27,4 km/h (4 Bft) 100,00 %
09.05.2016 17:45 22,3 C 44 % 1012,0 hPa 0,0 l/m 22,0 km/h (4 Bft) NO 47 1 min 0,000 mm 0,9 UV-I 389 W/m 9,5 C 18,9 C 33,8 km/h (5 Bft) 100,00 %
09.05.2016 17:46 22,3 C 44 % 1012,0 hPa 0,0 l/m 24,7 km/h (4 Bft) O-NO 69 1 min 0,000 mm 0,9 UV-I 386 W/m 9,5 C 18,5 C 35,4 km/h (5 Bft) 100,00 %
09.05.2016 17:47 22,3 C 44 % 1012,0 hPa 0,0 l/m 23,3 km/h (4 Bft) NO 39 1 min 0,000 mm 0,9 UV-I 383 W/m 9,5 C 18,7 C 30,6 km/h (5 Bft) 100,00 %
09.05.2016 17:48 22,2 C 44 % 1012,0 hPa 0,0 l/m 21,1 km/h (4 Bft) NO 51 1 min 0,000 mm 0,9 UV-I 379 W/m 9,4 C 18,9 C 27,4 km/h (4 Bft) 96,30 %
09.05.2016 17:49 22,2 C 44 % 1012,0 hPa 0,0 l/m 22,9 km/h (4 Bft) O-NO 58 1 min 0,000 mm 0,9 UV-I 375 W/m 9,4 C 18,6 C 30,6 km/h (5 Bft) 95,65 %
09.05.2016 17:50 22,2 C 44 % 1012,0 hPa 0,0 l/m 24,1 km/h (4 Bft) O-NO 73 1 min 0,000 mm 0,9 UV-I 373 W/m 9,4 C 18,5 C 29,0 km/h (5 Bft) 100,00 %
09.05.2016 17:51 22,2 C 44 % 1012,0 hPa 0,0 l/m 17,7 km/h (3 Bft) O-NO 57 1 min 0,000 mm 0,9 UV-I 371 W/m 9,4 C 19,4 C 22,5 km/h (4 Bft) 100,00 %
09.05.2016 17:52 22,2 C 44 % 1012,0 hPa 0,0 l/m 12,3 km/h (3 Bft) O-NO 71 1 min 0,000 mm 0,9 UV-I 366 W/m 9,4 C 20,5 C 17,7 km/h (3 Bft) 100,00 %
09.05.2016 17:53 22,2 C 46 % 1011,9 hPa 0,0 l/m 14,4 km/h (3 Bft) O-NO 60 1 min 0,000 mm 0,9 UV-I 363 W/m 10,0 C 20,0 C 20,9 km/h (4 Bft) 100,00 %
09.05.2016 17:54 22,2 C 46 % 1012,0 hPa 0,0 l/m 22,9 km/h (4 Bft) NO 53 1 min 0,000 mm 0,8 UV-I 360 W/m 10,0 C 18,6 C 30,6 km/h (5 Bft) 100,00 %
09.05.2016 17:55 22,2 C 46 % 1011,9 hPa 0,0 l/m 21,1 km/h (4 Bft) NO 50 1 min 0,000 mm 0,8 UV-I 357 W/m 10,0 C 18,9 C 27,4 km/h (4 Bft) 100,00 %
09.05.2016 17:56 22,2 C 45 % 1011,9 hPa 0,0 l/m 22,0 km/h (4 Bft) O-NO 69 1 min 0,000 mm 0,8 UV-I 352 W/m 9,7 C 18,8 C 27,4 km/h (4 Bft) 100,00 %
09.05.2016 17:57 22,2 C 45 % 1011,9 hPa 0,0 l/m 24,3 km/h (4 Bft) NO 51 1 min 0,000 mm 0,8 UV-I 348 W/m 9,7 C 18,5 C 29,0 km/h (5 Bft) 100,00 %
09.05.2016 17:58 22,2 C 44 % 1012,0 hPa 0,0 l/m 24,4 km/h (4 Bft) O-NO 66 1 min 0,000 mm 0,8 UV-I 346 W/m 9,4 C 18,4 C 35,4 km/h (5 Bft) 100,00 %
09.05.2016 17:59 22,2 C 43 % 1011,9 hPa 0,0 l/m 24,9 km/h (4 Bft) O-NO 57 1 min 0,000 mm 0,8 UV-I 344 W/m 9,0 C 18,4 C 32,2 km/h (5 Bft) 100,00 %
09.05.2016 18:00 22,2 C 44 % 1011,9 hPa 0,0 l/m 22,3 km/h (4 Bft) NO 43 1 min 0,000 mm 0,8 UV-I 339 W/m 9,4 C 18,7 C 27,4 km/h (4 Bft) 100,00 %
09.05.2016 18:01 22,1 C 44 % 1011,9 hPa 0,0 l/m 26,5 km/h (4 Bft) O-NO 65 1 min 0,431 mm 0,7 UV-I 336 W/m 9,3 C 18,0 C 30,6 km/h (5 Bft) 100,00 %
09.05.2016 18:02 22,1 C 44 % 1012,0 hPa 0,0 l/m 23,9 km/h (4 Bft) NO 52 1 min 0,000 mm 0,7 UV-I 331 W/m 9,3 C 18,4 C 30,6 km/h (5 Bft) 100,00 %
09.05.2016 18:03 22,1 C 44 % 1011,9 hPa 0,0 l/m 20,1 km/h (4 Bft) NO 38 1 min 0,000 mm 0,7 UV-I 328 W/m 9,3 C 18,9 C 27,4 km/h (4 Bft) 100,00 %
09.05.2016 18:04 22,1 C 44 % 1012,0 hPa 0,0 l/m 24,6 km/h (4 Bft) O-NO 63 1 min 0,000 mm 0,7 UV-I 325 W/m 9,3 C 18,3 C 32,2 km/h (5 Bft) 86,67 %
09.05.2016 18:05 22,1 C 44 % 1011,9 hPa 0,0 l/m 24,6 km/h (4 Bft) O-NO 72 1 min 0,000 mm 0,7 UV-I 322 W/m 9,3 C 18,3 C 33,8 km/h (5 Bft) 100,00 %
09.05.2016 18:06 22,1 C 44 % 1011,9 hPa 0,0 l/m 26,7 km/h (4 Bft) O-NO 73 1 min 0,000 mm 0,7 UV-I 321 W/m 9,3 C 18,0 C 30,6 km/h (5 Bft) 100,00 %
09.05.2016 18:07 22,1 C 44 % 1011,9 hPa 0,0 l/m 22,7 km/h (4 Bft) O-NO 70 1 min 0,000 mm 0,7 UV-I 316 W/m 9,3 C 18,5 C 29,0 km/h (5 Bft) 100,00 %
09.05.2016 18:08 22,0 C 45 % 1011,9 hPa 0,0 l/m 24,1 km/h (4 Bft) NO 53 1 min 0,000 mm 0,7 UV-I 314 W/m 9,5 C 18,2 C 29,0 km/h (5 Bft) 100,00 %
09.05.2016 18:09 22,0 C 45 % 1011,9 hPa 0,0 l/m 19,6 km/h (3 Bft) NO 47 1 min 0,000 mm 0,6 UV-I 310 W/m 9,5 C 18,9 C 25,7 km/h (4 Bft) 100,00 %
09.05.2016 18:10 22,0 C 45 % 1011,9 hPa 0,0 l/m 20,0 km/h (4 Bft) NO 53 1 min 0,000 mm 0,6 UV-I 307 W/m 9,5 C 18,8 C 30,6 km/h (5 Bft) 96,15 %
09.05.2016 18:11 21,9 C 45 % 1011,9 hPa 0,0 l/m 24,9 km/h (4 Bft) O-NO 60 1 min 0,000 mm 0,6 UV-I 304 W/m 9,4 C 18,0 C 33,8 km/h (5 Bft) 100,00 %
09.05.2016 18:12 21,9 C 44 % 1011,9 hPa 0,0 l/m 24,5 km/h (4 Bft) O 82 1 min 0,000 mm 0,6 UV-I 302 W/m 9,1 C 18,0 C 30,6 km/h (5 Bft) 100,00 %
09.05.2016 18:13 21,9 C 44 % 1011,9 hPa 0,0 l/m 24,4 km/h (4 Bft) O-NO 59 1 min 0,000 mm 0,6 UV-I 299 W/m 9,1 C 18,0 C 32,2 km/h (5 Bft) 100,00 %
09.05.2016 18:14 21,9 C 45 % 1011,9 hPa 0,0 l/m 19,4 km/h (3 Bft) N-NO 33 1 min 0,000 mm 0,6 UV-I 295 W/m 9,4 C 18,8 C 24,1 km/h (4 Bft) 96,55 %
09.05.2016 18:15 21,9 C 45 % 1011,9 hPa 0,0 l/m 25,5 km/h (4 Bft) O-NO 64 1 min 0,000 mm 0,6 UV-I 293 W/m 9,4 C 17,9 C 33,8 km/h (5 Bft) 100,00 %
09.05.2016 18:16 21,9 C 44 % 1011,9 hPa 0,0 l/m 31,9 km/h (5 Bft) O-NO 58 1 min 0,000 mm 0,6 UV-I 291 W/m 9,1 C 17,2 C 43,5 km/h (6 Bft) 100,00 %
09.05.2016 18:17 21,9 C 45 % 1011,8 hPa 0,0 l/m 22,2 km/h (4 Bft) O-NO 61 1 min 0,000 mm 0,6 UV-I 289 W/m 9,4 C 18,3 C 30,6 km/h (5 Bft) 100,00 %
09.05.2016 18:18 21,8 C 44 % 1011,9 hPa 0,0 l/m 28,7 km/h (4 Bft) NO 40 1 min 0,000 mm 0,5 UV-I 286 W/m 9,0 C 17,4 C 33,8 km/h (5 Bft) 100,00 %
09.05.2016 18:19 21,8 C 44 % 1011,8 hPa 0,0 l/m 22,5 km/h (4 Bft) O-NO 65 1 min 0,000 mm 0,5 UV-I 283 W/m 9,0 C 18,2 C 27,4 km/h (4 Bft) 100,00 %
09.05.2016 18:20 21,8 C 45 % 1011,9 hPa 0,0 l/m 27,9 km/h (4 Bft) O-NO 76 1 min 0,000 mm 0,5 UV-I 279 W/m 9,3 C 17,5 C 33,8 km/h (5 Bft) 100,00 %
09.05.2016 18:21 21,8 C 45 % 1011,8 hPa 0,0 l/m 31,1 km/h (5 Bft) O-NO 63 1 min 0,000 mm 0,5 UV-I 278 W/m 9,3 C 17,1 C 40,2 km/h (6 Bft) 100,00 %
09.05.2016 18:22 21,8 C 44 % 1011,9 hPa 0,0 l/m 21,3 km/h (4 Bft) O-NO 58 1 min 0,000 mm 0,5 UV-I 275 W/m 9,0 C 18,3 C 29,0 km/h (5 Bft) 100,00 %
09.05.2016 18:23 21,7 C 45 % 1011,8 hPa 0,0 l/m 23,9 km/h (4 Bft) NO 48 1 min 0,000 mm 0,5 UV-I 272 W/m 9,2 C 17,8 C 30,6 km/h (5 Bft) 100,00 %
09.05.2016 18:24 21,7 C 45 % 1011,8 hPa 0,0 l/m 29,9 km/h (5 Bft) O-NO 68 1 min 0,000 mm 0,5 UV-I 269 W/m 9,2 C 17,1 C 38,6 km/h (5 Bft) 100,00 %
09.05.2016 18:25 21,7 C 45 % 1011,9 hPa 0,0 l/m 23,4 km/h (4 Bft) O-NO 71 1 min 0,000 mm 0,5 UV-I 266 W/m 9,2 C 17,9 C 25,7 km/h (4 Bft) 100,00 %
09.05.2016 18:26 21,7 C 46 % 1011,8 hPa 0,0 l/m 22,9 km/h (4 Bft) O-NO 58 1 min 0,000 mm 0,5 UV-I 264 W/m 9,6 C 18,0 C 29,0 km/h (5 Bft) 100,00 %
09.05.2016 18:27 21,7 C 45 % 1011,8 hPa 0,0 l/m 25,1 km/h (4 Bft) O-NO 68 1 min 0,000 mm 0,5 UV-I 260 W/m 9,2 C 17,7 C 33,8 km/h (5 Bft) 100,00 %
09.05.2016 18:28 21,7 C 45 % 1011,8 hPa 0,0 l/m 26,5 km/h (4 Bft) O-NO 65 1 min 0,000 mm 0,5 UV-I 258 W/m 9,2 C 17,5 C 35,4 km/h (5 Bft) 100,00 %
09.05.2016 18:29 21,7 C 45 % 1011,9 hPa 0,0 l/m 25,2 km/h (4 Bft) NO 55 1 min 0,000 mm 0,2 UV-I 254 W/m 9,2 C 17,7 C 32,2 km/h (5 Bft) 100,00 %
09.05.2016 18:30 21,6 C 45 % 1011,8 hPa 0,0 l/m 22,4 km/h (4 Bft) O-NO 64 1 min 0,000 mm 0,0 UV-I 251 W/m 9,2 C 17,9 C 29,0 km/h (5 Bft) 100,00 %
09.05.2016 18:31 21,6 C 46 % 1011,8 hPa 0,0 l/m 17,3 km/h (3 Bft) O-NO 70 1 min 0,000 mm 0,0 UV-I 250 W/m 9,5 C 18,7 C 22,5 km/h (4 Bft) 100,00 %
09.05.2016 18:32 21,6 C 46 % 1011,8 hPa 0,0 l/m 20,8 km/h (4 Bft) O-NO 66 1 min 0,000 mm 0,0 UV-I 247 W/m 9,5 C 18,1 C 25,7 km/h (4 Bft) 100,00 %
09.05.2016 18:33 21,6 C 46 % 1011,8 hPa 0,0 l/m 21,9 km/h (4 Bft) O-NO 58 1 min 0,000 mm 0,0 UV-I 244 W/m 9,5 C 18,0 C 30,6 km/h (5 Bft) 100,00 %
09.05.2016 18:34 21,6 C 47 % 1011,8 hPa 0,0 l/m 18,3 km/h (3 Bft) O-NO 75 1 min 0,000 mm 0,0 UV-I 241 W/m 9,8 C 18,6 C 25,7 km/h (4 Bft) 100,00 %
09.05.2016 18:35 21,6 C 46 % 1011,8 hPa 0,0 l/m 21,6 km/h (4 Bft) O-NO 73 1 min 0,000 mm 0,0 UV-I 237 W/m 9,5 C 18,0 C 32,2 km/h (5 Bft) 100,00 %
09.05.2016 18:36 21,6 C 46 % 1011,8 hPa 0,0 l/m 17,7 km/h (3 Bft) O-NO 58 1 min 0,000 mm 0,0 UV-I 232 W/m 9,5 C 18,7 C 22,5 km/h (4 Bft) 96,67 %
09.05.2016 18:37 21,5 C 47 % 1011,8 hPa 0,0 l/m 18,8 km/h (3 Bft) O-NO 63 1 min 0,000 mm 0,0 UV-I 228 W/m 9,7 C 18,3 C 27,4 km/h (4 Bft) 100,00 %
09.05.2016 18:38 21,5 C 47 % 1011,8 hPa 0,0 l/m 16,6 km/h (3 Bft) O 91 1 min 0,000 mm 0,0 UV-I 222 W/m 9,7 C 18,7 C 20,9 km/h (4 Bft) 100,00 %
09.05.2016 18:39 21,4 C 47 % 1011,8 hPa 0,0 l/m 16,4 km/h (3 Bft) NO 56 1 min 0,000 mm 0,0 UV-I 220 W/m 9,6 C 18,7 C 22,5 km/h (4 Bft) 100,00 %
09.05.2016 18:40 21,4 C 48 % 1011,8 hPa 0,0 l/m 18,5 km/h (3 Bft) O 87 1 min 0,000 mm 0,0 UV-I 219 W/m 9,9 C 18,3 C 22,5 km/h (4 Bft) 100,00 %
09.05.2016 18:41 21,4 C 46 % 1011,8 hPa 0,0 l/m 26,6 km/h (4 Bft) NO 46 1 min 0,000 mm 0,0 UV-I 215 W/m 9,3 C 17,1 C 37,0 km/h (5 Bft) 100,00 %
09.05.2016 18:42 21,3 C 45 % 1011,8 hPa 0,0 l/m 24,6 km/h (4 Bft) O-NO 61 1 min 0,000 mm 0,0 UV-I 213 W/m 8,9 C 17,2 C 30,6 km/h (5 Bft) 100,00 %
09.05.2016 18:43 21,3 C 45 % 1011,8 hPa 0,0 l/m 27,1 km/h (4 Bft) O-NO 64 1 min 0,000 mm 0,0 UV-I 210 W/m 8,9 C 16,9 C 32,2 km/h (5 Bft) 100,00 %
09.05.2016 18:44 21,3 C 45 % 1011,8 hPa 0,0 l/m 22,0 km/h (4 Bft) O-NO 65 1 min 0,000 mm 0,0 UV-I 206 W/m 8,9 C 17,6 C 29,0 km/h (5 Bft) 100,00 %
09.05.2016 18:45 21,3 C 45 % 1011,9 hPa 0,0 l/m 20,5 km/h (4 Bft) NO 52 1 min 0,000 mm 0,0 UV-I 203 W/m 8,9 C 17,8 C 33,8 km/h (5 Bft) 96,67 %
09.05.2016 18:46 21,3 C 45 % 1011,8 hPa 0,0 l/m 24,6 km/h (4 Bft) O-NO 65 1 min 0,000 mm 0,0 UV-I 200 W/m 8,9 C 17,2 C 30,6 km/h (5 Bft) 96,15 %
09.05.2016 18:47 21,3 C 45 % 1011,8 hPa 0,0 l/m 21,3 km/h (4 Bft) O-NO 71 1 min 0,000 mm 0,0 UV-I 197 W/m 8,9 C 17,7 C 27,4 km/h (4 Bft) 100,00 %
09.05.2016 18:48 21,3 C 45 % 1011,8 hPa 0,0 l/m 20,5 km/h (4 Bft) NO 53 1 min 0,000 mm 0,0 UV-I 193 W/m 8,9 C 17,8 C 27,4 km/h (4 Bft) 96,15 %
09.05.2016 18:49 21,3 C 46 % 1011,9 hPa 0,0 l/m 21,4 km/h (4 Bft) O-NO 62 1 min 0,000 mm 0,0 UV-I 190 W/m 9,2 C 17,7 C 24,1 km/h (4 Bft) 100,00 %
09.05.2016 18:50 21,3 C 46 % 1011,9 hPa 0,0 l/m 16,4 km/h (3 Bft) O-NO 64 1 min 0,000 mm 0,0 UV-I 187 W/m 9,2 C 18,5 C 20,9 km/h (4 Bft) 96,55 %
09.05.2016 18:51 21,3 C 46 % 1011,9 hPa 0,0 l/m 21,3 km/h (4 Bft) NO 53 1 min 0,000 mm 0,0 UV-I 183 W/m 9,2 C 17,7 C 29,0 km/h (5 Bft) 96,30 %
09.05.2016 18:52 21,3 C 46 % 1011,9 hPa 0,0 l/m 16,0 km/h (3 Bft) NO 56 1 min 0,000 mm 0,0 UV-I 179 W/m 9,2 C 18,6 C 20,9 km/h (4 Bft) 100,00 %
09.05.2016 18:53 21,3 C 47 % 1011,9 hPa 0,0 l/m 14,4 km/h (3 Bft) O-NO 71 1 min 0,000 mm 0,0 UV-I 176 W/m 9,5 C 19,0 C 19,3 km/h (3 Bft) 95,83 %
09.05.2016 18:54 21,3 C 48 % 1011,9 hPa 0,0 l/m 14,6 km/h (3 Bft) O-NO 64 1 min 0,000 mm 0,0 UV-I 172 W/m 9,8 C 18,9 C 17,7 km/h (3 Bft) 96,15 %
09.05.2016 18:55 21,2 C 48 % 1011,9 hPa 0,0 l/m 15,4 km/h (3 Bft) O-NO 69 1 min 0,000 mm 0,0 UV-I 170 W/m 9,7 C 18,6 C 25,7 km/h (4 Bft) 93,33 %
09.05.2016 18:56 21,2 C 48 % 1011,9 hPa 0,0 l/m 15,0 km/h (3 Bft) O-NO 72 1 min 0,000 mm 0,0 UV-I 166 W/m 9,7 C 18,7 C 24,1 km/h (4 Bft) 100,00 %
09.05.2016 18:57 21,2 C 48 % 1011,9 hPa 0,0 l/m 16,6 km/h (3 Bft) O 86 1 min 0,000 mm 0,0 UV-I 164 W/m 9,7 C 18,4 C 25,7 km/h (4 Bft) 95,45 %
09.05.2016 18:58 21,1 C 48 % 1011,9 hPa 0,0 l/m 20,0 km/h (4 Bft) O-NO 57 1 min 0,000 mm 0,0 UV-I 161 W/m 9,7 C 17,6 C 25,7 km/h (4 Bft) 91,30 %
09.05.2016 18:59 21,1 C 48 % 1011,9 hPa 0,0 l/m 16,6 km/h (3 Bft) NO 46 1 min 0,000 mm 0,0 UV-I 157 W/m 9,7 C 18,2 C 24,1 km/h (4 Bft) 100,00 %
09.05.2016 19:00 21,1 C 48 % 1011,9 hPa 0,0 l/m 16,7 km/h (3 Bft) O-NO 74 1 min 0,000 mm 0,0 UV-I 155 W/m 9,7 C 18,2 C 22,5 km/h (4 Bft) 96,30 %
09.05.2016 19:02 21,1 C 48 % 1011,9 hPa 0,0 l/m 18,1 km/h (3 Bft) O-NO 71 2 min 0,331 mm 0,0 UV-I 149 W/m 9,7 C 18,0 C 27,4 km/h (4 Bft) 98,18 %
09.05.2016 19:03 21,1 C 47 % 1011,9 hPa 0,0 l/m 11,5 km/h (2 Bft) NO 37 1 min 0,000 mm 0,0 UV-I 144 W/m 9,3 C 19,4 C 20,9 km/h (4 Bft) 100,00 %
09.05.2016 19:04 21,1 C 48 % 1011,9 hPa 0,0 l/m 15,4 km/h (3 Bft) O-NO 64 1 min 0,000 mm 0,0 UV-I 141 W/m 9,7 C 18,5 C 22,5 km/h (4 Bft) 88,46 %
09.05.2016 19:05 21,1 C 47 % 1011,9 hPa 0,0 l/m 21,2 km/h (4 Bft) NO 54 1 min 0,000 mm 0,0 UV-I 140 W/m 9,3 C 17,4 C 29,0 km/h (5 Bft) 96,30 %
09.05.2016 19:06 21,0 C 48 % 1011,9 hPa 0,0 l/m 21,6 km/h (4 Bft) NO 46 1 min 0,000 mm 0,0 UV-I 135 W/m 9,6 C 17,2 C 30,6 km/h (5 Bft) 100,00 %
09.05.2016 19:07 21,0 C 47 % 1011,9 hPa 0,0 l/m 21,4 km/h (4 Bft) O-NO 63 1 min 0,000 mm 0,0 UV-I 133 W/m 9,3 C 17,3 C 25,7 km/h (4 Bft) 100,00 %
09.05.2016 19:08 21,0 C 48 % 1011,9 hPa 0,0 l/m 14,1 km/h (3 Bft) O-NO 65 1 min 0,000 mm 0,0 UV-I 129 W/m 9,6 C 18,7 C 17,7 km/h (3 Bft) 95,83 %
09.05.2016 19:09 20,9 C 49 % 1011,9 hPa 0,0 l/m 11,3 km/h (2 Bft) NO 46 1 min 0,000 mm 0,0 UV-I 126 W/m 9,8 C 19,3 C 17,7 km/h (3 Bft) 92,31 %
09.05.2016 19:10 20,9 C 49 % 1011,9 hPa 0,0 l/m 14,9 km/h (3 Bft) O-NO 71 1 min 0,000 mm 0,0 UV-I 125 W/m 9,8 C 18,4 C 17,7 km/h (3 Bft) 96,30 %
09.05.2016 19:11 20,9 C 48 % 1011,9 hPa 0,0 l/m 15,3 km/h (3 Bft) O-NO 59 1 min 0,000 mm 0,0 UV-I 122 W/m 9,5 C 18,3 C 24,1 km/h (4 Bft) 95,65 %
09.05.2016 19:12 20,8 C 48 % 1011,9 hPa 0,0 l/m 17,1 km/h (3 Bft) O-NO 63 1 min 0,000 mm 0,0 UV-I 118 W/m 9,4 C 17,8 C 20,9 km/h (4 Bft) 100,00 %
09.05.2016 19:13 20,8 C 49 % 1011,9 hPa 0,0 l/m 16,6 km/h (3 Bft) O-NO 70 1 min 0,000 mm 0,0 UV-I 115 W/m 9,7 C 17,9 C 20,9 km/h (4 Bft) 92,86 %
09.05.2016 19:14 20,8 C 49 % 1011,9 hPa 0,0 l/m 17,4 km/h (3 Bft) O-NO 69 1 min 0,000 mm 0,0 UV-I 112 W/m 9,7 C 17,7 C 22,5 km/h (4 Bft) 96,67 %
09.05.2016 19:15 20,8 C 49 % 1012,0 hPa 0,0 l/m 20,1 km/h (4 Bft) O-NO 69 1 min 0,000 mm 0,0 UV-I 108 W/m 9,7 C 17,2 C 30,6 km/h (5 Bft) 92,86 %
09.05.2016 19:16 20,7 C 48 % 1011,9 hPa 0,0 l/m 24,8 km/h (4 Bft) NO 46 1 min 0,000 mm 0,0 UV-I 105 W/m 9,3 C 16,4 C 30,6 km/h (5 Bft) 100,00 %
09.05.2016 19:17 20,7 C 48 % 1011,9 hPa 0,0 l/m 19,6 km/h (3 Bft) NO 49 1 min 0,000 mm 0,0 UV-I 104 W/m 9,3 C 17,2 C 27,4 km/h (4 Bft) 96,15 %
09.05.2016 19:18 20,7 C 49 % 1011,9 hPa 0,0 l/m 20,0 km/h (4 Bft) NO 54 1 min 0,000 mm 0,0 UV-I 100 W/m 9,6 C 17,1 C 25,7 km/h (4 Bft) 100,00 %
09.05.2016 19:19 20,7 C 49 % 1011,9 hPa 0,0 l/m 19,0 km/h (3 Bft) NO 43 1 min 0,000 mm 0,0 UV-I 98 W/m 9,6 C 17,3 C 22,5 km/h (4 Bft) 100,00 %
09.05.2016 19:20 20,7 C 50 % 1011,9 hPa 0,0 l/m 17,3 km/h (3 Bft) O-NO 67 1 min 0,000 mm 0,0 UV-I 96 W/m 9,9 C 17,6 C 22,5 km/h (4 Bft) 100,00 %
09.05.2016 19:21 20,6 C 49 % 1011,9 hPa 0,0 l/m 17,6 km/h (3 Bft) NO 50 1 min 0,000 mm 0,0 UV-I 92 W/m 9,5 C 17,4 C 25,7 km/h (4 Bft) 100,00 %
09.05.2016 19:22 20,6 C 49 % 1011,9 hPa 0,0 l/m 20,4 km/h (4 Bft) NO 44 1 min 0,000 mm 0,0 UV-I 90 W/m 9,5 C 16,9 C 29,0 km/h (5 Bft) 100,00 %
09.05.2016 19:23 20,6 C 50 % 1012,0 hPa 0,0 l/m 17,4 km/h (3 Bft) NO 51 1 min 0,000 mm 0,0 UV-I 88 W/m 9,8 C 17,5 C 20,9 km/h (4 Bft) 100,00 %
09.05.2016 19:24 20,5 C 50 % 1012,0 hPa 0,0 l/m 19,0 km/h (3 Bft) NO 53 0 min 0,000 mm 0,0 UV-I 84 W/m 9,7 C 17,0 C 25,7 km/h (4 Bft) 100,00 %
09.05.2016 19:25 20,5 C 49 % 1012,0 hPa 0,0 l/m 14,8 km/h (3 Bft) O-NO 67 0 min 0,000 mm 0,0 UV-I 82 W/m 9,4 C 17,9 C 20,9 km/h (4 Bft) 97,14 %
09.05.2016 19:26 20,4 C 50 % 1012,0 hPa 0,0 l/m 17,9 km/h (3 Bft) O-NO 65 0 min 0,000 mm 0,0 UV-I 80 W/m 9,6 C 17,1 C 27,4 km/h (4 Bft) 100,00 %
09.05.2016 19:27 20,4 C 50 % 1012,0 hPa 0,0 l/m 16,5 km/h (3 Bft) O-NO 67 0 min 0,000 mm 0,0 UV-I 78 W/m 9,6 C 17,4 C 27,4 km/h (4 Bft) 100,00 %
09.05.2016 19:28 20,4 C 50 % 1012,0 hPa 0,0 l/m 22,5 km/h (4 Bft) NO 55 0 min 0,000 mm 0,0 UV-I 76 W/m 9,6 C 16,3 C 27,4 km/h (4 Bft) 100,00 %
09.05.2016 19:29 20,4 C 50 % 1012,1 hPa 0,0 l/m 16,7 km/h (3 Bft) O-SO 105 0 min 0,000 mm 0,0 UV-I 72 W/m 9,6 C 17,4 C 19,3 km/h (3 Bft) 98,66 %
09.05.2016 19:30 20,3 C 50 % 1012,1 hPa 0,0 l/m 22,4 km/h (4 Bft) O-SO 108 0 min 0,000 mm 0,0 UV-I 70 W/m 9,5 C 16,2 C 27,4 km/h (4 Bft) 100,00 %
09.05.2016 19:31 20,3 C 50 % 1012,0 hPa 0,0 l/m 20,9 km/h (4 Bft) O-NO 75 0 min 0,000 mm 0,0 UV-I 68 W/m 9,5 C 16,4 C 27,4 km/h (4 Bft) 100,00 %
09.05.2016 19:32 20,3 C 50 % 1012,1 hPa 0,0 l/m 17,2 km/h (3 Bft) O-NO 60 0 min 0,000 mm 0,0 UV-I 66 W/m 9,5 C 17,1 C 24,1 km/h (4 Bft) 100,00 %
09.05.2016 19:33 20,3 C 51 % 1012,1 hPa 0,0 l/m 16,4 km/h (3 Bft) O-NO 69 0 min 0,000 mm 0,0 UV-I 64 W/m 9,8 C 17,3 C 22,5 km/h (4 Bft) 100,00 %
09.05.2016 19:34 20,2 C 51 % 1012,1 hPa 0,0 l/m 17,3 km/h (3 Bft) NO 52 0 min 0,000 mm 0,0 UV-I 62 W/m 9,7 C 17,0 C 24,1 km/h (4 Bft) 100,00 %
09.05.2016 19:35 20,2 C 51 % 1012,1 hPa 0,0 l/m 15,9 km/h (3 Bft) O-NO 69 0 min 0,000 mm 0,0 UV-I 60 W/m 9,7 C 17,3 C 19,3 km/h (3 Bft) 100,00 %
09.05.2016 19:36 20,2 C 51 % 1012,1 hPa 0,0 l/m 13,5 km/h (3 Bft) O-NO 73 0 min 0,000 mm 0,0 UV-I 57 W/m 9,7 C 17,9 C 19,3 km/h (3 Bft) 100,00 %
09.05.2016 19:37 20,1 C 51 % 1012,1 hPa 0,0 l/m 16,5 km/h (3 Bft) O-NO 72 0 min 0,000 mm 0,0 UV-I 55 W/m 9,6 C 17,0 C 22,5 km/h (4 Bft) 100,00 %
09.05.2016 19:38 20,1 C 52 % 1012,1 hPa 0,0 l/m 14,8 km/h (3 Bft) O-NO 69 0 min 0,000 mm 0,0 UV-I 54 W/m 9,9 C 17,4 C 20,9 km/h (4 Bft) 100,00 %
09.05.2016 19:39 20,1 C 51 % 1012,2 hPa 0,0 l/m 18,8 km/h (3 Bft) O-NO 57 0 min 0,000 mm 0,0 UV-I 52 W/m 9,6 C 16,6 C 24,1 km/h (4 Bft) 100,00 %
09.05.2016 19:40 20,0 C 51 % 1012,1 hPa 0,0 l/m 20,2 km/h (4 Bft) O-NO 69 0 min 0,000 mm 0,0 UV-I 49 W/m 9,6 C 16,2 C 25,7 km/h (4 Bft) 100,00 %
09.05.2016 19:41 20,0 C 51 % 1012,1 hPa 0,0 l/m 22,3 km/h (4 Bft) O-NO 61 0 min 0,000 mm 0,0 UV-I 47 W/m 9,6 C 15,8 C 29,0 km/h (5 Bft) 100,00 %
09.05.2016 19:42 20,0 C 51 % 1012,1 hPa 0,0 l/m 17,8 km/h (3 Bft) NO 55 0 min 0,000 mm 0,0 UV-I 46 W/m 9,6 C 16,6 C 25,7 km/h (4 Bft) 100,00 %
09.05.2016 19:43 20,0 C 52 % 1012,1 hPa 0,0 l/m 16,9 km/h (3 Bft) O-NO 61 0 min 0,000 mm 0,0 UV-I 43 W/m 9,8 C 16,8 C 20,9 km/h (4 Bft) 100,00 %
09.05.2016 19:44 19,9 C 52 % 1012,2 hPa 0,0 l/m 16,4 km/h (3 Bft) O-NO 59 0 min 0,000 mm 0,0 UV-I 41 W/m 9,7 C 16,8 C 19,3 km/h (3 Bft) 100,00 %
09.05.2016 19:45 19,9 C 52 % 1012,2 hPa 0,0 l/m 19,9 km/h (4 Bft) NO 44 0 min 0,000 mm 0,0 UV-I 40 W/m 9,7 C 16,1 C 25,7 km/h (4 Bft) 100,00 %
09.05.2016 19:46 19,9 C 52 % 1012,2 hPa 0,0 l/m 15,8 km/h (3 Bft) NO 50 0 min 0,000 mm 0,0 UV-I 39 W/m 9,7 C 16,9 C 24,1 km/h (4 Bft) 100,00 %
09.05.2016 19:47 19,8 C 52 % 1012,2 hPa 0,0 l/m 22,4 km/h (4 Bft) O 84 0 min 0,000 mm 0,0 UV-I 37 W/m 9,7 C 15,5 C 27,4 km/h (4 Bft) 100,00 %
09.05.2016 19:48 19,8 C 52 % 1012,2 hPa 0,0 l/m 20,4 km/h (4 Bft) O-NO 69 0 min 0,000 mm 0,0 UV-I 34 W/m 9,7 C 15,9 C 27,4 km/h (4 Bft) 100,00 %
09.05.2016 19:49 19,8 C 52 % 1012,2 hPa 0,0 l/m 22,7 km/h (4 Bft) O-NO 78 0 min 0,000 mm 0,0 UV-I 33 W/m 9,7 C 15,5 C 32,2 km/h (5 Bft) 100,00 %
09.05.2016 19:50 19,8 C 51 % 1012,3 hPa 0,0 l/m 18,8 km/h (3 Bft) NO 53 0 min 0,000 mm 0,0 UV-I 32 W/m 9,4 C 16,2 C 25,7 km/h (4 Bft) 100,00 %
09.05.2016 19:51 19,8 C 52 % 1012,2 hPa 0,0 l/m 20,1 km/h (4 Bft) NO 38 0 min 0,000 mm 0,0 UV-I 31 W/m 9,7 C 15,9 C 25,7 km/h (4 Bft) 100,00 %
09.05.2016 19:52 19,8 C 52 % 1012,3 hPa 0,0 l/m 19,5 km/h (3 Bft) O-NO 73 0 min 0,000 mm 0,0 UV-I 30 W/m 9,7 C 16,0 C 25,7 km/h (4 Bft) 100,00 %
09.05.2016 19:53 19,8 C 52 % 1012,3 hPa 0,0 l/m 21,1 km/h (4 Bft) NO 54 0 min 0,000 mm 0,0 UV-I 28 W/m 9,7 C 15,7 C 30,6 km/h (5 Bft) 100,00 %
09.05.2016 19:54 19,7 C 52 % 1012,3 hPa 0,0 l/m 17,4 km/h (3 Bft) NO 56 0 min 0,000 mm 0,0 UV-I 26 W/m 9,6 C 16,3 C 24,1 km/h (4 Bft) 95,83 %
09.05.2016 19:55 19,7 C 52 % 1012,3 hPa 0,0 l/m 14,8 km/h (3 Bft) NO 49 0 min 0,000 mm 0,0 UV-I 26 W/m 9,6 C 16,9 C 19,3 km/h (3 Bft) 96,15 %
09.05.2016 19:56 19,7 C 52 % 1012,3 hPa 0,0 l/m 20,2 km/h (4 Bft) O-NO 63 0 min 0,000 mm 0,0 UV-I 24 W/m 9,6 C 15,8 C 27,4 km/h (4 Bft) 100,00 %
09.05.2016 19:57 19,7 C 53 % 1012,3 hPa 0,0 l/m 15,4 km/h (3 Bft) NO 56 0 min 0,000 mm 0,0 UV-I 22 W/m 9,8 C 16,8 C 22,5 km/h (4 Bft) 100,00 %
09.05.2016 19:58 19,6 C 52 % 1012,3 hPa 0,0 l/m 17,4 km/h (3 Bft) O-NO 64 0 min 0,000 mm 0,0 UV-I 21 W/m 9,5 C 16,2 C 25,7 km/h (4 Bft) 96,67 %
09.05.2016 19:59 19,6 C 52 % 1012,3 hPa 0,0 l/m 15,8 km/h (3 Bft) O-NO 63 0 min 0,000 mm 0,0 UV-I 19 W/m 9,5 C 16,6 C 22,5 km/h (4 Bft) 100,00 %
09.05.2016 20:00 19,6 C 53 % 1012,4 hPa 0,0 l/m 16,8 km/h (3 Bft) O-NO 74 0 min 0,000 mm 0,0 UV-I 19 W/m 9,8 C 16,3 C 19,3 km/h (3 Bft) 100,00 %
09.05.2016 20:01 19,5 C 53 % 1012,3 hPa 0,0 l/m 16,8 km/h (3 Bft) O-NO 74 0 min 0,177 mm 0,0 UV-I 19 W/m 9,7 C 16,2 C 22,5 km/h (4 Bft) 100,00 %
09.05.2016 20:02 19,4 C 53 % 1012,4 hPa 0,0 l/m 19,2 km/h (3 Bft) N-NO 33 0 min 0,000 mm 0,0 UV-I 19 W/m 9,6 C 15,6 C 24,1 km/h (4 Bft) 100,00 %
09.05.2016 20:03 19,4 C 54 % 1012,3 hPa 0,0 l/m 18,7 km/h (3 Bft) O-NO 76 0 min 0,000 mm 0,0 UV-I 18 W/m 9,8 C 15,7 C 22,5 km/h (4 Bft) 100,00 %
09.05.2016 20:04 19,3 C 54 % 1012,3 hPa 0,0 l/m 15,8 km/h (3 Bft) O-NO 63 0 min 0,000 mm 0,0 UV-I 18 W/m 9,8 C 16,2 C 20,9 km/h (4 Bft) 91,67 %
09.05.2016 20:05 19,3 C 54 % 1012,3 hPa 0,0 l/m 18,4 km/h (3 Bft) O-NO 64 0 min 0,000 mm 0,0 UV-I 16 W/m 9,8 C 15,6 C 22,5 km/h (4 Bft) 100,00 %
09.05.2016 20:06 19,3 C 53 % 1012,4 hPa 0,0 l/m 13,2 km/h (3 Bft) NO 47 0 min 0,000 mm 0,0 UV-I 16 W/m 9,5 C 16,9 C 17,7 km/h (3 Bft) 100,00 %
09.05.2016 20:07 19,3 C 54 % 1012,4 hPa 0,0 l/m 15,2 km/h (3 Bft) O-NO 60 0 min 0,000 mm 0,0 UV-I 16 W/m 9,8 C 16,4 C 20,9 km/h (4 Bft) 100,00 %
09.05.2016 20:08 19,2 C 54 % 1012,4 hPa 0,0 l/m 16,9 km/h (3 Bft) O-NO 60 0 min 0,000 mm 0,0 UV-I 16 W/m 9,7 C 15,8 C 20,9 km/h (4 Bft) 100,00 %
09.05.2016 20:09 19,2 C 54 % 1012,4 hPa 0,0 l/m 16,1 km/h (3 Bft) O-NO 63 0 min 0,000 mm 0,0 UV-I 15 W/m 9,7 C 16,0 C 22,5 km/h (4 Bft) 100,00 %
09.05.2016 20:10 19,2 C 54 % 1012,4 hPa 0,0 l/m 16,2 km/h (3 Bft) O-NO 60 0 min 0,000 mm 0,0 UV-I 14 W/m 9,7 C 16,0 C 22,5 km/h (4 Bft) 100,00 %
09.05.2016 20:11 19,1 C 54 % 1012,4 hPa 0,0 l/m 15,4 km/h (3 Bft) O 94 0 min 0,000 mm 0,0 UV-I 14 W/m 9,6 C 16,1 C 19,3 km/h (3 Bft) 93,33 %
09.05.2016 20:12 19,1 C 54 % 1012,4 hPa 0,0 l/m 10,9 km/h (2 Bft) NO 56 0 min 0,000 mm 0,0 UV-I 12 W/m 9,6 C 17,3 C 14,5 km/h (3 Bft) 100,00 %
09.05.2016 20:13 19,1 C 55 % 1012,4 hPa 0,0 l/m 9,9 km/h (2 Bft) O-NO 78 0 min 0,000 mm 0,0 UV-I 12 W/m 9,8 C 17,7 C 12,9 km/h (3 Bft) 100,00 %
09.05.2016 20:14 19,0 C 55 % 1012,4 hPa 0,0 l/m 11,3 km/h (2 Bft) O 86 0 min 0,000 mm 0,0 UV-I 12 W/m 9,8 C 17,1 C 16,1 km/h (3 Bft) 95,65 %
09.05.2016 20:15 18,9 C 55 % 1012,4 hPa 0,0 l/m 10,6 km/h (2 Bft) O-NO 62 0 min 0,000 mm 0,0 UV-I 11 W/m 9,7 C 17,2 C 16,1 km/h (3 Bft) 100,00 %
09.05.2016 20:16 18,9 C 55 % 1012,4 hPa 0,0 l/m 13,5 km/h (3 Bft) O-NO 62 1 min 0,000 mm 0,0 UV-I 11 W/m 9,7 C 16,3 C 17,7 km/h (3 Bft) 100,00 %
09.05.2016 20:17 18,8 C 56 % 1012,4 hPa 0,0 l/m 10,7 km/h (2 Bft) NO 53 1 min 0,000 mm 0,0 UV-I 9 W/m 9,8 C 17,1 C 14,5 km/h (3 Bft) 100,00 %
09.05.2016 20:18 18,8 C 56 % 1012,4 hPa 0,0 l/m 10,9 km/h (2 Bft) NO 50 0 min 0,000 mm 0,0 UV-I 9 W/m 9,8 C 17,0 C 14,5 km/h (3 Bft) 100,00 %
09.05.2016 20:19 18,8 C 56 % 1012,4 hPa 0,0 l/m 9,1 km/h (2 Bft) O-NO 61 0 min 0,000 mm 0,0 UV-I 9 W/m 9,8 C 17,6 C 11,3 km/h (2 Bft) 100,00 %
09.05.2016 20:20 18,7 C 56 % 1012,4 hPa 0,0 l/m 10,4 km/h (2 Bft) NO 46 0 min 0,000 mm 0,0 UV-I 8 W/m 9,7 C 17,1 C 14,5 km/h (3 Bft) 100,00 %
09.05.2016 20:21 18,7 C 56 % 1012,4 hPa 0,0 l/m 12,2 km/h (2 Bft) O-NO 57 0 min 0,000 mm 0,0 UV-I 7 W/m 9,7 C 16,5 C 16,1 km/h (3 Bft) 95,83 %
09.05.2016 20:22 18,6 C 56 % 1012,4 hPa 0,0 l/m 11,2 km/h (2 Bft) NO 42 0 min 0,000 mm 0,0 UV-I 7 W/m 9,6 C 16,7 C 16,1 km/h (3 Bft) 100,00 %
09.05.2016 20:23 18,6 C 57 % 1012,4 hPa 0,0 l/m 12,1 km/h (2 Bft) NO 55 0 min 0,000 mm 0,0 UV-I 7 W/m 9,9 C 16,4 C 16,1 km/h (3 Bft) 100,00 %
09.05.2016 20:24 18,5 C 57 % 1012,4 hPa 0,0 l/m 10,2 km/h (2 Bft) NO 46 0 min 0,000 mm 0,0 UV-I 7 W/m 9,8 C 16,9 C 14,5 km/h (3 Bft) 100,00 %
09.05.2016 20:25 18,4 C 57 % 1012,5 hPa 0,0 l/m 14,0 km/h (3 Bft) NO 42 0 min 0,000 mm 0,0 UV-I 7 W/m 9,7 C 15,6 C 17,7 km/h (3 Bft) 100,00 %
09.05.2016 20:26 18,4 C 58 % 1012,5 hPa 0,0 l/m 13,8 km/h (3 Bft) O-NO 65 0 min 0,000 mm 0,0 UV-I 6 W/m 10,0 C 15,6 C 17,7 km/h (3 Bft) 100,00 %
09.05.2016 20:27 18,3 C 58 % 1012,5 hPa 0,0 l/m 13,3 km/h (3 Bft) O-NO 59 0 min 0,000 mm 0,0 UV-I 5 W/m 9,9 C 15,7 C 20,9 km/h (4 Bft) 100,00 %
09.05.2016 20:28 18,3 C 58 % 1012,4 hPa 0,0 l/m 14,9 km/h (3 Bft) NO 44 0 min 0,000 mm 0,0 UV-I 5 W/m 9,9 C 15,2 C 19,3 km/h (3 Bft) 100,00 %
09.05.2016 20:29 18,3 C 58 % 1012,4 hPa 0,0 l/m 15,4 km/h (3 Bft) O-NO 66 0 min 0,000 mm 0,0 UV-I 5 W/m 9,9 C 15,1 C 20,9 km/h (4 Bft) 100,00 %
09.05.2016 20:30 18,3 C 58 % 1012,4 hPa 0,0 l/m 13,5 km/h (3 Bft) O-NO 61 0 min 0,000 mm 0,0 UV-I 5 W/m 9,9 C 15,6 C 19,3 km/h (3 Bft) 100,00 %
09.05.2016 20:31 18,2 C 58 % 1012,5 hPa 0,0 l/m 13,8 km/h (3 Bft) NO 55 0 min 0,000 mm 0,0 UV-I 5 W/m 9,8 C 15,4 C 19,3 km/h (3 Bft) 100,00 %
09.05.2016 20:32 18,2 C 59 % 1012,5 hPa 0,0 l/m 10,2 km/h (2 Bft) O-NO 59 0 min 0,000 mm 0,0 UV-I 2 W/m 10,1 C 16,6 C 14,5 km/h (3 Bft) 100,00 %
09.05.2016 20:33 18,2 C 59 % 1012,5 hPa 0,0 l/m 12,9 km/h (3 Bft) O-NO 61 0 min 0,000 mm 0,0 UV-I 0 W/m 10,1 C 15,7 C 19,3 km/h (3 Bft) 100,00 %
09.05.2016 20:34 18,1 C 59 % 1012,5 hPa 0,0 l/m 14,4 km/h (3 Bft) NO 56 0 min 0,000 mm 0,0 UV-I 0 W/m 10,0 C 15,1 C 19,3 km/h (3 Bft) 100,00 %
09.05.2016 20:35 18,1 C 59 % 1012,5 hPa 0,0 l/m 14,5 km/h (3 Bft) O-NO 63 0 min 0,000 mm 0,0 UV-I 0 W/m 10,0 C 15,1 C 20,9 km/h (4 Bft) 97,56 %
09.05.2016 20:36 18,1 C 58 % 1012,5 hPa 0,0 l/m 14,4 km/h (3 Bft) O-NO 68 0 min 0,000 mm 0,0 UV-I 0 W/m 9,7 C 15,1 C 19,3 km/h (3 Bft) 100,00 %
09.05.2016 20:37 18,1 C 58 % 1012,5 hPa 0,0 l/m 16,6 km/h (3 Bft) O-NO 59 0 min 0,000 mm 0,0 UV-I 0 W/m 9,7 C 14,5 C 24,1 km/h (4 Bft) 91,30 %
09.05.2016 20:38 18,0 C 59 % 1012,5 hPa 0,0 l/m 16,8 km/h (3 Bft) NO 44 0 min 0,000 mm 0,0 UV-I 0 W/m 9,9 C 14,4 C 24,1 km/h (4 Bft) 100,00 %
09.05.2016 20:39 18,1 C 58 % 1012,5 hPa 0,0 l/m 14,1 km/h (3 Bft) O-NO 70 0 min 0,000 mm 0,0 UV-I 0 W/m 9,7 C 15,2 C 19,3 km/h (3 Bft) 100,00 %
09.05.2016 20:40 18,0 C 58 % 1012,5 hPa 0,0 l/m 17,9 km/h (3 Bft) O-NO 68 0 min 0,000 mm 0,0 UV-I 0 W/m 9,6 C 14,1 C 22,5 km/h (4 Bft) 100,00 %
09.05.2016 20:41 18,0 C 58 % 1012,5 hPa 0,0 l/m 17,1 km/h (3 Bft) O-NO 59 0 min 0,000 mm 0,0 UV-I 0 W/m 9,6 C 14,3 C 22,5 km/h (4 Bft) 100,00 %
09.05.2016 20:42 18,0 C 58 % 1012,5 hPa 0,0 l/m 21,0 km/h (4 Bft) O-NO 63 0 min 0,000 mm 0,0 UV-I 0 W/m 9,6 C 13,4 C 30,6 km/h (5 Bft) 100,00 %
09.05.2016 20:43 18,1 C 58 % 1012,5 hPa 0,0 l/m 23,1 km/h (4 Bft) NO 56 0 min 0,000 mm 0,0 UV-I 0 W/m 9,7 C 13,1 C 29,0 km/h (5 Bft) 100,00 %
09.05.2016 20:44 18,1 C 57 % 1012,5 hPa 0,0 l/m 20,0 km/h (4 Bft) O-NO 61 0 min 0,000 mm 0,0 UV-I 0 W/m 9,4 C 13,8 C 24,1 km/h (4 Bft) 96,15 %
09.05.2016 20:45 18,1 C 58 % 1012,5 hPa 0,0 l/m 16,9 km/h (3 Bft) O-NO 59 0 min 0,000 mm 0,0 UV-I 0 W/m 9,7 C 14,5 C 22,5 km/h (4 Bft) 96,30 %
09.05.2016 20:46 18,1 C 58 % 1012,5 hPa 0,0 l/m 20,1 km/h (4 Bft) O-NO 59 0 min 0,000 mm 0,0 UV-I 0 W/m 9,7 C 13,7 C 29,0 km/h (5 Bft) 88,24 %
09.05.2016 20:47 18,1 C 58 % 1012,5 hPa 0,0 l/m 20,2 km/h (4 Bft) NO 53 0 min 0,000 mm 0,0 UV-I 0 W/m 9,7 C 13,7 C 24,1 km/h (4 Bft) 100,00 %
09.05.2016 20:48 18,1 C 57 % 1012,6 hPa 0,0 l/m 20,4 km/h (4 Bft) O-NO 71 0 min 0,000 mm 0,0 UV-I 0 W/m 9,4 C 13,7 C 25,7 km/h (4 Bft) 95,65 %
09.05.2016 20:49 18,1 C 57 % 1012,6 hPa 0,0 l/m 20,5 km/h (4 Bft) O-NO 61 0 min 0,000 mm 0,0 UV-I 0 W/m 9,4 C 13,6 C 29,0 km/h (5 Bft) 100,00 %
09.05.2016 20:50 18,1 C 57 % 1012,6 hPa 0,0 l/m 19,6 km/h (3 Bft) O-NO 74 0 min 0,000 mm 0,0 UV-I 0 W/m 9,4 C 13,8 C 24,1 km/h (4 Bft) 95,65 %
09.05.2016 20:51 18,2 C 57 % 1012,6 hPa 0,0 l/m 17,5 km/h (3 Bft) O-NO 65 0 min 0,000 mm 0,0 UV-I 0 W/m 9,5 C 14,4 C 20,9 km/h (4 Bft) 96,30 %
09.05.2016 20:52 18,2 C 57 % 1012,6 hPa 0,0 l/m 17,6 km/h (3 Bft) O-NO 57 0 min 0,000 mm 0,0 UV-I 0 W/m 9,5 C 14,4 C 24,1 km/h (4 Bft) 100,00 %
09.05.2016 20:53 18,2 C 57 % 1012,6 hPa 0,0 l/m 15,6 km/h (3 Bft) O-NO 68 0 min 0,000 mm 0,0 UV-I 0 W/m 9,5 C 14,9 C 19,3 km/h (3 Bft) 93,33 %
09.05.2016 20:54 18,2 C 57 % 1012,6 hPa 0,0 l/m 15,9 km/h (3 Bft) O-NO 73 0 min 0,000 mm 0,0 UV-I 0 W/m 9,5 C 14,8 C 22,5 km/h (4 Bft) 100,00 %
09.05.2016 20:55 18,1 C 57 % 1012,6 hPa 0,0 l/m 18,7 km/h (3 Bft) NO 50 0 min 0,000 mm 0,0 UV-I 0 W/m 9,4 C 14,0 C 22,5 km/h (4 Bft) 96,30 %
09.05.2016 20:56 18,1 C 57 % 1012,7 hPa 0,0 l/m 16,7 km/h (3 Bft) O-NO 63 0 min 0,000 mm 0,0 UV-I 0 W/m 9,4 C 14,5 C 22,5 km/h (4 Bft) 100,00 %
09.05.2016 20:57 18,1 C 57 % 1012,7 hPa 0,0 l/m 15,0 km/h (3 Bft) NO 47 0 min 0,000 mm 0,0 UV-I 0 W/m 9,4 C 14,9 C 22,5 km/h (4 Bft) 91,67 %
09.05.2016 20:58 18,1 C 58 % 1012,7 hPa 0,0 l/m 16,5 km/h (3 Bft) NO 49 0 min 0,000 mm 0,0 UV-I 0 W/m 9,7 C 14,6 C 24,1 km/h (4 Bft) 96,30 %
09.05.2016 20:59 18,1 C 58 % 1012,7 hPa 0,0 l/m 15,7 km/h (3 Bft) NO 47 0 min 0,000 mm 0,0 UV-I 0 W/m 9,7 C 14,8 C 20,9 km/h (4 Bft) 95,65 %
09.05.2016 21:00 18,1 C 58 % 1012,7 hPa 0,0 l/m 15,9 km/h (3 Bft) NO 48 0 min 0,000 mm 0,0 UV-I 0 W/m 9,7 C 14,7 C 22,5 km/h (4 Bft) 96,30 %
09.05.2016 21:02 18,0 C 58 % 1012,7 hPa 0,0 l/m 18,0 km/h (3 Bft) NO 43 0 min 0,102 mm 0,0 UV-I 0 W/m 9,6 C 14,1 C 22,5 km/h (4 Bft) 100,00 %
09.05.2016 21:03 18,0 C 58 % 1012,7 hPa 0,0 l/m 17,4 km/h (3 Bft) O-NO 58 0 min 0,000 mm 0,0 UV-I 0 W/m 9,6 C 14,2 C 22,5 km/h (4 Bft) 96,15 %
09.05.2016 21:04 17,9 C 58 % 1012,7 hPa 0,0 l/m 16,6 km/h (3 Bft) O-NO 66 0 min 0,000 mm 0,0 UV-I 0 W/m 9,5 C 14,3 C 22,5 km/h (4 Bft) 95,83 %
09.05.2016 21:05 17,9 C 59 % 1012,7 hPa 0,0 l/m 17,0 km/h (3 Bft) NO 46 0 min 0,000 mm 0,0 UV-I 0 W/m 9,8 C 14,2 C 20,9 km/h (4 Bft) 100,00 %
09.05.2016 21:06 17,9 C 59 % 1012,8 hPa 0,0 l/m 13,9 km/h (3 Bft) NO 39 0 min 0,000 mm 0,0 UV-I 0 W/m 9,8 C 15,0 C 17,7 km/h (3 Bft) 95,83 %
09.05.2016 21:07 17,8 C 59 % 1012,7 hPa 0,0 l/m 17,6 km/h (3 Bft) O-NO 60 0 min 0,000 mm 0,0 UV-I 0 W/m 9,7 C 13,9 C 20,9 km/h (4 Bft) 100,00 %
09.05.2016 21:08 17,8 C 59 % 1012,8 hPa 0,0 l/m 17,8 km/h (3 Bft) O-NO 60 0 min 0,000 mm 0,0 UV-I 0 W/m 9,7 C 13,9 C 20,9 km/h (4 Bft) 96,30 %
09.05.2016 21:09 17,8 C 59 % 1012,8 hPa 0,0 l/m 15,5 km/h (3 Bft) NO 55 0 min 0,000 mm 0,0 UV-I 0 W/m 9,7 C 14,4 C 20,9 km/h (4 Bft) 96,15 %
09.05.2016 21:10 17,7 C 59 % 1012,8 hPa 0,0 l/m 13,2 km/h (3 Bft) O-NO 61 0 min 0,000 mm 0,0 UV-I 0 W/m 9,6 C 15,0 C 16,1 km/h (3 Bft) 100,00 %
09.05.2016 21:11 17,7 C 59 % 1012,8 hPa 0,0 l/m 11,7 km/h (2 Bft) O-NO 65 0 min 0,000 mm 0,0 UV-I 0 W/m 9,6 C 15,5 C 17,7 km/h (3 Bft) 92,31 %
09.05.2016 21:12 17,7 C 59 % 1012,8 hPa 0,0 l/m 15,1 km/h (3 Bft) O-NO 65 0 min 0,000 mm 0,0 UV-I 0 W/m 9,6 C 14,4 C 19,3 km/h (3 Bft) 100,00 %
09.05.2016 21:13 17,6 C 60 % 1012,8 hPa 0,0 l/m 12,6 km/h (3 Bft) O-NO 67 0 min 0,000 mm 0,0 UV-I 0 W/m 9,7 C 15,1 C 16,1 km/h (3 Bft) 92,31 %
09.05.2016 21:14 17,6 C 60 % 1012,8 hPa 0,0 l/m 10,0 km/h (2 Bft) NO 53 0 min 0,000 mm 0,0 UV-I 0 W/m 9,7 C 16,0 C 16,1 km/h (3 Bft) 100,00 %
09.05.2016 21:15 17,6 C 60 % 1012,8 hPa 0,0 l/m 17,5 km/h (3 Bft) O-NO 66 0 min 0,000 mm 0,0 UV-I 0 W/m 9,7 C 13,7 C 20,9 km/h (4 Bft) 96,15 %
09.05.2016 21:16 17,5 C 60 % 1012,8 hPa 0,0 l/m 12,2 km/h (2 Bft) N-NO 30 0 min 0,000 mm 0,0 UV-I 0 W/m 9,6 C 15,1 C 16,1 km/h (3 Bft) 96,30 %
09.05.2016 21:17 17,5 C 60 % 1012,8 hPa 0,0 l/m 9,6 km/h (2 Bft) O-NO 57 0 min 0,000 mm 0,0 UV-I 0 W/m 9,6 C 16,0 C 14,5 km/h (3 Bft) 100,00 %
09.05.2016 21:18 17,4 C 60 % 1012,8 hPa 0,0 l/m 11,5 km/h (2 Bft) NO 55 0 min 0,000 mm 0,0 UV-I 0 W/m 9,6 C 15,2 C 16,1 km/h (3 Bft) 100,00 %
09.05.2016 21:19 17,4 C 61 % 1012,8 hPa 0,0 l/m 9,9 km/h (2 Bft) O-NO 67 0 min 0,000 mm 0,0 UV-I 0 W/m 9,8 C 15,8 C 14,5 km/h (3 Bft) 100,00 %
09.05.2016 21:20 17,3 C 61 % 1012,8 hPa 0,0 l/m 9,9 km/h (2 Bft) O-NO 62 0 min 0,000 mm 0,0 UV-I 0 W/m 9,7 C 15,7 C 14,5 km/h (3 Bft) 95,12 %
09.05.2016 21:21 17,3 C 61 % 1012,8 hPa 0,0 l/m 10,2 km/h (2 Bft) NO 49 0 min 0,000 mm 0,0 UV-I 0 W/m 9,7 C 15,6 C 14,5 km/h (3 Bft) 100,00 %
09.05.2016 21:22 17,2 C 61 % 1012,8 hPa 0,0 l/m 8,8 km/h (2 Bft) O-NO 61 0 min 0,000 mm 0,0 UV-I 0 W/m 9,6 C 16,0 C 12,9 km/h (3 Bft) 93,33 %
09.05.2016 21:23 17,2 C 62 % 1012,8 hPa 0,0 l/m 10,7 km/h (2 Bft) O-NO 59 0 min 0,000 mm 0,0 UV-I 0 W/m 9,9 C 15,3 C 14,5 km/h (3 Bft) 100,00 %
09.05.2016 21:24 17,1 C 62 % 1012,8 hPa 0,0 l/m 10,8 km/h (2 Bft) O-NO 67 0 min 0,000 mm 0,0 UV-I 0 W/m 9,8 C 15,1 C 14,5 km/h (3 Bft) 100,00 %
09.05.2016 21:25 17,1 C 62 % 1012,8 hPa 0,0 l/m 9,0 km/h (2 Bft) O-NO 76 0 min 0,000 mm 0,0 UV-I 0 W/m 9,8 C 15,9 C 14,5 km/h (3 Bft) 100,00 %
09.05.2016 21:26 17,0 C 62 % 1012,8 hPa 0,0 l/m 11,0 km/h (2 Bft) NO 47 0 min 0,000 mm 0,0 UV-I 0 W/m 9,7 C 14,9 C 17,7 km/h (3 Bft) 91,30 %
09.05.2016 21:27 16,9 C 62 % 1012,8 hPa 0,0 l/m 9,6 km/h (2 Bft) NO 51 0 min 0,000 mm 0,0 UV-I 0 W/m 9,6 C 15,4 C 12,9 km/h (3 Bft) 100,00 %
09.05.2016 21:28 16,9 C 63 % 1012,8 hPa 0,0 l/m 9,3 km/h (2 Bft) O-NO 68 0 min 0,000 mm 0,0 UV-I 0 W/m 9,8 C 15,5 C 12,9 km/h (3 Bft) 96,55 %
09.05.2016 21:29 16,9 C 63 % 1012,9 hPa 0,0 l/m 8,8 km/h (2 Bft) NO 48 0 min 0,000 mm 0,0 UV-I 0 W/m 9,8 C 15,7 C 11,3 km/h (2 Bft) 100,00 %
09.05.2016 21:30 16,8 C 63 % 1012,8 hPa 0,0 l/m 10,8 km/h (2 Bft) NO 55 0 min 0,000 mm 0,0 UV-I 0 W/m 9,7 C 14,8 C 14,5 km/h (3 Bft) 100,00 %
09.05.2016 21:31 16,8 C 63 % 1012,8 hPa 0,0 l/m 8,5 km/h (2 Bft) O-NO 71 0 min 0,000 mm 0,0 UV-I 0 W/m 9,7 C 15,8 C 14,5 km/h (3 Bft) 93,33 %
09.05.2016 21:32 16,8 C 63 % 1012,8 hPa 0,0 l/m 8,1 km/h (2 Bft) O-NO 61 0 min 0,000 mm 0,0 UV-I 0 W/m 9,7 C 15,9 C 12,9 km/h (3 Bft) 98,65 %
09.05.2016 21:33 16,7 C 64 % 1012,8 hPa 0,0 l/m 8,0 km/h (2 Bft) NO 51 0 min 0,000 mm 0,0 UV-I 0 W/m 9,9 C 15,9 C 9,7 km/h (2 Bft) 100,00 %
09.05.2016 21:34 16,7 C 64 % 1012,8 hPa 0,0 l/m 10,7 km/h (2 Bft) NO 48 0 min 0,000 mm 0,0 UV-I 0 W/m 9,9 C 14,7 C 14,5 km/h (3 Bft) 100,00 %
09.05.2016 21:35 16,7 C 64 % 1012,9 hPa 0,0 l/m 10,0 km/h (2 Bft) NO 40 0 min 0,000 mm 0,0 UV-I 0 W/m 9,9 C 15,0 C 11,3 km/h (2 Bft) 100,00 %
09.05.2016 21:36 16,6 C 64 % 1012,8 hPa 0,0 l/m 9,4 km/h (2 Bft) O-NO 66 0 min 0,000 mm 0,0 UV-I 0 W/m 9,8 C 15,1 C 12,9 km/h (3 Bft) 100,00 %
09.05.2016 21:37 16,6 C 64 % 1012,8 hPa 0,0 l/m 10,8 km/h (2 Bft) O-NO 78 0 min 0,000 mm 0,0 UV-I 0 W/m 9,8 C 14,6 C 12,9 km/h (3 Bft) 100,00 %
09.05.2016 21:38 16,6 C 64 % 1012,8 hPa 0,0 l/m 10,7 km/h (2 Bft) NO 46 0 min 0,000 mm 0,0 UV-I 0 W/m 9,8 C 14,6 C 14,5 km/h (3 Bft) 100,00 %
09.05.2016 21:39 16,6 C 64 % 1012,8 hPa 0,0 l/m 6,7 km/h (2 Bft) NO 51 0 min 0,000 mm 0,0 UV-I 0 W/m 9,8 C 16,5 C 9,7 km/h (2 Bft) 100,00 %
09.05.2016 21:40 16,5 C 64 % 1012,8 hPa 0,0 l/m 8,0 km/h (2 Bft) O-NO 63 0 min 0,000 mm 0,0 UV-I 0 W/m 9,7 C 15,7 C 12,9 km/h (3 Bft) 100,00 %
09.05.2016 21:41 16,5 C 64 % 1012,8 hPa 0,0 l/m 9,3 km/h (2 Bft) NO 51 0 min 0,000 mm 0,0 UV-I 0 W/m 9,7 C 15,1 C 12,9 km/h (3 Bft) 100,00 %
09.05.2016 21:42 16,4 C 65 % 1012,8 hPa 0,0 l/m 10,3 km/h (2 Bft) O-NO 60 0 min 0,000 mm 0,0 UV-I 0 W/m 9,8 C 14,5 C 12,9 km/h (3 Bft) 100,00 %
09.05.2016 21:43 16,4 C 65 % 1012,9 hPa 0,0 l/m 10,9 km/h (2 Bft) O-NO 64 0 min 0,000 mm 0,0 UV-I 0 W/m 9,8 C 14,3 C 14,5 km/h (3 Bft) 94,12 %
09.05.2016 21:44 16,4 C 65 % 1012,9 hPa 0,0 l/m 10,7 km/h (2 Bft) NO 56 0 min 0,000 mm 0,0 UV-I 0 W/m 9,8 C 14,4 C 14,5 km/h (3 Bft) 100,00 %
09.05.2016 21:45 16,3 C 65 % 1012,9 hPa 0,0 l/m 11,6 km/h (2 Bft) O-NO 58 0 min 0,000 mm 0,0 UV-I 0 W/m 9,7 C 13,9 C 16,1 km/h (3 Bft) 100,00 %
09.05.2016 21:46 16,3 C 65 % 1012,9 hPa 0,0 l/m 11,2 km/h (2 Bft) NO 55 0 min 0,000 mm 0,0 UV-I 0 W/m 9,7 C 14,1 C 17,7 km/h (3 Bft) 100,00 %
09.05.2016 21:47 16,3 C 65 % 1012,9 hPa 0,0 l/m 9,1 km/h (2 Bft) NO 44 0 min 0,000 mm 0,0 UV-I 0 W/m 9,7 C 14,9 C 12,9 km/h (3 Bft) 95,65 %
09.05.2016 21:48 16,3 C 65 % 1012,9 hPa 0,0 l/m 9,8 km/h (2 Bft) O-NO 57 0 min 0,000 mm 0,0 UV-I 0 W/m 9,7 C 14,6 C 14,5 km/h (3 Bft) 100,00 %
09.05.2016 21:49 16,3 C 65 % 1012,9 hPa 0,0 l/m 12,0 km/h (2 Bft) NO 53 0 min 0,000 mm 0,0 UV-I 0 W/m 9,7 C 13,8 C 16,1 km/h (3 Bft) 100,00 %
09.05.2016 21:50 16,3 C 65 % 1012,9 hPa 0,0 l/m 12,0 km/h (2 Bft) O 92 0 min 0,000 mm 0,0 UV-I 0 W/m 9,7 C 13,8 C 16,1 km/h (3 Bft) 100,00 %
09.05.2016 21:51 16,3 C 65 % 1012,9 hPa 0,0 l/m 11,3 km/h (2 Bft) O-NO 66 0 min 0,000 mm 0,0 UV-I 0 W/m 9,7 C 14,0 C 14,5 km/h (3 Bft) 100,00 %
09.05.2016 21:52 16,3 C 65 % 1012,9 hPa 0,0 l/m 7,6 km/h (2 Bft) O-NO 77 0 min 0,000 mm 0,0 UV-I 0 W/m 9,7 C 15,7 C 11,3 km/h (2 Bft) 100,00 %
09.05.2016 21:53 16,3 C 65 % 1012,9 hPa 0,0 l/m 10,3 km/h (2 Bft) NO 55 0 min 0,000 mm 0,0 UV-I 0 W/m 9,7 C 14,4 C 14,5 km/h (3 Bft) 100,00 %
09.05.2016 21:54 16,2 C 66 % 1012,9 hPa 0,0 l/m 9,7 km/h (2 Bft) O-NO 70 0 min 0,000 mm 0,0 UV-I 0 W/m 9,8 C 14,6 C 14,5 km/h (3 Bft) 100,00 %
09.05.2016 21:55 16,2 C 66 % 1012,9 hPa 0,0 l/m 9,1 km/h (2 Bft) O-NO 69 0 min 0,000 mm 0,0 UV-I 0 W/m 9,8 C 14,8 C 12,9 km/h (3 Bft) 100,00 %
09.05.2016 21:56 16,2 C 66 % 1012,8 hPa 0,0 l/m 7,5 km/h (2 Bft) O-NO 59 0 min 0,000 mm 0,0 UV-I 0 W/m 9,8 C 15,6 C 9,7 km/h (2 Bft) 100,00 %
09.05.2016 21:57 16,1 C 66 % 1012,9 hPa 0,0 l/m 7,8 km/h (2 Bft) O-NO 59 0 min 0,000 mm 0,0 UV-I 0 W/m 9,7 C 15,4 C 9,7 km/h (2 Bft) 100,00 %
09.05.2016 21:58 16,1 C 66 % 1012,9 hPa 0,0 l/m 9,7 km/h (2 Bft) NO 46 0 min 0,000 mm 0,0 UV-I 0 W/m 9,7 C 14,5 C 12,9 km/h (3 Bft) 100,00 %
09.05.2016 21:59 16,1 C 66 % 1012,9 hPa 0,0 l/m 7,6 km/h (2 Bft) NO 41 0 min 0,000 mm 0,0 UV-I 0 W/m 9,7 C 15,5 C 9,7 km/h (2 Bft) 100,00 %
09.05.2016 22:00 16,0 C 66 % 1012,9 hPa 0,0 l/m 7,4 km/h (2 Bft) O-NO 62 0 min 0,000 mm 0,0 UV-I 0 W/m 9,7 C 15,5 C 9,7 km/h (2 Bft) 100,00 %
09.05.2016 22:01 16,0 C 67 % 1012,9 hPa 0,0 l/m 7,0 km/h (2 Bft) O-NO 57 0 min 0,051 mm 0,0 UV-I 0 W/m 9,9 C 15,7 C 8,0 km/h (2 Bft) 100,00 %
09.05.2016 22:02 15,9 C 67 % 1012,9 hPa 0,0 l/m 8,0 km/h (2 Bft) NO 51 0 min 0,000 mm 0,0 UV-I 0 W/m 9,8 C 15,0 C 12,9 km/h (3 Bft) 100,00 %
09.05.2016 22:03 15,9 C 67 % 1012,9 hPa 0,0 l/m 9,1 km/h (2 Bft) NO 51 0 min 0,000 mm 0,0 UV-I 0 W/m 9,8 C 14,5 C 12,9 km/h (3 Bft) 100,00 %
09.05.2016 22:04 15,8 C 67 % 1012,8 hPa 0,0 l/m 6,9 km/h (2 Bft) NO 40 0 min 0,000 mm 0,0 UV-I 0 W/m 9,7 C 15,5 C 9,7 km/h (2 Bft) 100,00 %
09.05.2016 22:05 15,8 C 67 % 1012,9 hPa 0,0 l/m 6,1 km/h (2 Bft) O-NO 69 0 min 0,000 mm 0,0 UV-I 0 W/m 9,7 C 15,8 C 8,0 km/h (2 Bft) 100,00 %
09.05.2016 22:06 15,8 C 67 % 1012,9 hPa 0,0 l/m 7,5 km/h (2 Bft) NO 49 0 min 0,000 mm 0,0 UV-I 0 W/m 9,7 C 15,2 C 9,7 km/h (2 Bft) 100,00 %
09.05.2016 22:07 15,8 C 67 % 1012,9 hPa 0,0 l/m 7,0 km/h (2 Bft) NO 51 0 min 0,000 mm 0,0 UV-I 0 W/m 9,7 C 15,5 C 9,7 km/h (2 Bft) 100,00 %
09.05.2016 22:08 15,8 C 67 % 1012,9 hPa 0,0 l/m 8,4 km/h (2 Bft) O-NO 63 0 min 0,000 mm 0,0 UV-I 0 W/m 9,7 C 14,7 C 9,7 km/h (2 Bft) 96,15 %
09.05.2016 22:09 15,8 C 67 % 1012,9 hPa 0,0 l/m 10,9 km/h (2 Bft) O-NO 66 0 min 0,000 mm 0,0 UV-I 0 W/m 9,7 C 13,6 C 14,5 km/h (3 Bft) 100,00 %
09.05.2016 22:10 15,8 C 67 % 1012,9 hPa 0,0 l/m 9,1 km/h (2 Bft) O-NO 60 0 min 0,000 mm 0,0 UV-I 0 W/m 9,7 C 14,4 C 14,5 km/h (3 Bft) 100,00 %
09.05.2016 22:11 15,7 C 67 % 1012,8 hPa 0,0 l/m 7,7 km/h (2 Bft) O-NO 61 0 min 0,000 mm 0,0 UV-I 0 W/m 9,6 C 15,0 C 9,7 km/h (2 Bft) 100,00 %
09.05.2016 22:12 15,8 C 67 % 1012,8 hPa 0,0 l/m 10,1 km/h (2 Bft) NO 55 0 min 0,000 mm 0,0 UV-I 0 W/m 9,7 C 14,0 C 14,5 km/h (3 Bft) 100,00 %
09.05.2016 22:13 15,8 C 67 % 1012,8 hPa 0,0 l/m 11,0 km/h (2 Bft) O-NO 63 0 min 0,000 mm 0,0 UV-I 0 W/m 9,7 C 13,6 C 16,1 km/h (3 Bft) 100,00 %
09.05.2016 22:14 15,7 C 67 % 1012,8 hPa 0,0 l/m 10,7 km/h (2 Bft) O-NO 61 0 min 0,000 mm 0,0 UV-I 0 W/m 9,6 C 13,6 C 14,5 km/h (3 Bft) 93,33 %
09.05.2016 22:15 15,8 C 67 % 1012,8 hPa 0,0 l/m 8,7 km/h (2 Bft) NO 47 0 min 0,000 mm 0,0 UV-I 0 W/m 9,7 C 14,6 C 12,9 km/h (3 Bft) 96,15 %
09.05.2016 22:16 15,7 C 67 % 1012,8 hPa 0,0 l/m 8,1 km/h (2 Bft) O-NO 59 0 min 0,000 mm 0,0 UV-I 0 W/m 9,6 C 14,8 C 9,7 km/h (2 Bft) 96,15 %
09.05.2016 22:17 15,8 C 67 % 1012,8 hPa 0,0 l/m 8,5 km/h (2 Bft) O-NO 63 0 min 0,000 mm 0,0 UV-I 0 W/m 9,7 C 14,7 C 12,9 km/h (3 Bft) 100,00 %
09.05.2016 22:18 15,7 C 67 % 1012,8 hPa 0,0 l/m 6,8 km/h (2 Bft) NO 53 0 min 0,000 mm 0,0 UV-I 0 W/m 9,6 C 15,5 C 11,3 km/h (2 Bft) 100,00 %
09.05.2016 22:19 15,7 C 68 % 1012,9 hPa 0,0 l/m 7,2 km/h (2 Bft) NO 54 0 min 0,000 mm 0,0 UV-I 0 W/m 9,8 C 15,3 C 9,7 km/h (2 Bft) 100,00 %
09.05.2016 22:20 15,7 C 68 % 1012,8 hPa 0,0 l/m 5,9 km/h (2 Bft) O-NO 70 0 min 0,000 mm 0,0 UV-I 0 W/m 9,8 C 15,7 C 8,0 km/h (2 Bft) 100,00 %
09.05.2016 22:21 15,6 C 68 % 1012,9 hPa 0,0 l/m 5,1 km/h (1 Bft) NO 46 0 min 0,000 mm 0,0 UV-I 0 W/m 9,7 C 15,6 C 8,0 km/h (2 Bft) 100,00 %
09.05.2016 22:22 15,5 C 68 % 1012,8 hPa 0,0 l/m 5,5 km/h (1 Bft) NO 56 0 min 0,000 mm 0,0 UV-I 0 W/m 9,6 C 15,5 C 6,4 km/h (2 Bft) 100,00 %
09.05.2016 22:23 15,4 C 69 % 1012,8 hPa 0,0 l/m 6,4 km/h (2 Bft) O-NO 58 0 min 0,000 mm 0,0 UV-I 0 W/m 9,7 C 15,4 C 9,7 km/h (2 Bft) 95,65 %
09.05.2016 22:24 15,3 C 69 % 1012,8 hPa 0,0 l/m 5,3 km/h (1 Bft) NO 51 0 min 0,000 mm 0,0 UV-I 0 W/m 9,6 C 15,3 C 6,4 km/h (2 Bft) 95,83 %
09.05.2016 22:25 15,3 C 69 % 1012,8 hPa 0,0 l/m 7,1 km/h (2 Bft) NO 49 0 min 0,000 mm 0,0 UV-I 0 W/m 9,6 C 14,9 C 9,7 km/h (2 Bft) 100,00 %
09.05.2016 22:26 15,3 C 69 % 1012,8 hPa 0,0 l/m 5,1 km/h (1 Bft) NO 56 0 min 0,000 mm 0,0 UV-I 0 W/m 9,6 C 15,3 C 8,0 km/h (2 Bft) 100,00 %
09.05.2016 22:27 15,2 C 69 % 1012,8 hPa 0,0 l/m 5,8 km/h (2 Bft) NO 45 0 min 0,000 mm 0,0 UV-I 0 W/m 9,6 C 15,2 C 6,4 km/h (2 Bft) 100,00 %
09.05.2016 22:28 15,2 C 69 % 1012,8 hPa 0,0 l/m 5,8 km/h (2 Bft) N-NO 19 0 min 0,000 mm 0,0 UV-I 0 W/m 9,6 C 15,2 C 8,0 km/h (2 Bft) 100,00 %
09.05.2016 22:29 15,2 C 69 % 1012,8 hPa 0,0 l/m 6,3 km/h (2 Bft) O-NO 61 0 min 0,000 mm 0,0 UV-I 0 W/m 9,6 C 15,2 C 8,0 km/h (2 Bft) 100,00 %
09.05.2016 22:30 15,1 C 70 % 1012,8 hPa 0,0 l/m 8,0 km/h (2 Bft) O-NO 58 0 min 0,000 mm 0,0 UV-I 0 W/m 9,7 C 14,2 C 11,3 km/h (2 Bft) 96,67 %
09.05.2016 22:31 15,1 C 70 % 1012,8 hPa 0,0 l/m 7,2 km/h (2 Bft) NO 47 0 min 0,000 mm 0,0 UV-I 0 W/m 9,7 C 14,6 C 12,9 km/h (3 Bft) 100,00 %
09.05.2016 22:32 15,1 C 70 % 1012,7 hPa 0,0 l/m 8,2 km/h (2 Bft) O-NO 70 0 min 0,000 mm 0,0 UV-I 0 W/m 9,7 C 14,1 C 11,3 km/h (2 Bft) 100,00 %
09.05.2016 22:33 15,1 C 70 % 1012,7 hPa 0,0 l/m 4,6 km/h (1 Bft) O-NO 61 0 min 0,000 mm 0,0 UV-I 0 W/m 9,7 C 15,1 C 6,4 km/h (2 Bft) 98,69 %
09.05.2016 22:34 15,0 C 70 % 1012,8 hPa 0,0 l/m 5,0 km/h (1 Bft) NO 55 0 min 0,000 mm 0,0 UV-I 0 W/m 9,6 C 15,0 C 6,4 km/h (2 Bft) 97,56 %
09.05.2016 22:35 15,0 C 70 % 1012,7 hPa 0,0 l/m 5,8 km/h (2 Bft) NO 49 0 min 0,000 mm 0,0 UV-I 0 W/m 9,6 C 15,0 C 8,0 km/h (2 Bft) 100,00 %
09.05.2016 22:36 14,9 C 71 % 1012,7 hPa 0,0 l/m 4,9 km/h (1 Bft) NO 42 0 min 0,000 mm 0,0 UV-I 0 W/m 9,7 C 14,9 C 6,4 km/h (2 Bft) 90,91 %
09.05.2016 22:37 14,9 C 71 % 1012,7 hPa 0,0 l/m 5,1 km/h (1 Bft) O-NO 60 0 min 0,000 mm 0,0 UV-I 0 W/m 9,7 C 14,9 C 6,4 km/h (2 Bft) 100,00 %
09.05.2016 22:38 14,8 C 71 % 1012,7 hPa 0,0 l/m 5,2 km/h (1 Bft) NO 40 0 min 0,000 mm 0,0 UV-I 0 W/m 9,6 C 14,8 C 8,0 km/h (2 Bft) 100,00 %
09.05.2016 22:39 14,8 C 71 % 1012,7 hPa 0,0 l/m 6,9 km/h (2 Bft) N-NO 30 0 min 0,000 mm 0,0 UV-I 0 W/m 9,6 C 14,5 C 14,5 km/h (3 Bft) 100,00 %
09.05.2016 22:40 14,7 C 72 % 1012,7 hPa 0,0 l/m 7,2 km/h (2 Bft) NO 51 0 min 0,000 mm 0,0 UV-I 0 W/m 9,7 C 14,2 C 8,0 km/h (2 Bft) 100,00 %
09.05.2016 22:41 14,7 C 72 % 1012,7 hPa 0,0 l/m 9,3 km/h (2 Bft) O-NO 63 0 min 0,000 mm 0,0 UV-I 0 W/m 9,7 C 13,1 C 12,9 km/h (3 Bft) 100,00 %
09.05.2016 22:42 14,6 C 72 % 1012,7 hPa 0,0 l/m 6,0 km/h (2 Bft) NO 43 0 min 0,000 mm 0,0 UV-I 0 W/m 9,6 C 14,6 C 8,0 km/h (2 Bft) 100,00 %
09.05.2016 22:43 14,6 C 72 % 1012,7 hPa 0,0 l/m 5,5 km/h (1 Bft) O-NO 58 0 min 0,000 mm 0,0 UV-I 0 W/m 9,6 C 14,6 C 6,4 km/h (2 Bft) 96,30 %
09.05.2016 22:44 14,6 C 72 % 1012,7 hPa 0,0 l/m 5,9 km/h (2 Bft) O-NO 67 0 min 0,000 mm 0,0 UV-I 0 W/m 9,6 C 14,6 C 8,0 km/h (2 Bft) 96,55 %
09.05.2016 22:45 14,6 C 72 % 1012,7 hPa 0,0 l/m 6,6 km/h (2 Bft) NO 49 0 min 0,000 mm 0,0 UV-I 0 W/m 9,6 C 14,5 C 8,0 km/h (2 Bft) 100,00 %
09.05.2016 22:46 14,5 C 73 % 1012,7 hPa 0,0 l/m 6,9 km/h (2 Bft) NO 54 0 min 0,000 mm 0,0 UV-I 0 W/m 9,7 C 14,2 C 9,7 km/h (2 Bft) 92,86 %
09.05.2016 22:47 14,5 C 73 % 1012,7 hPa 0,0 l/m 4,7 km/h (1 Bft) NO 50 0 min 0,000 mm 0,0 UV-I 0 W/m 9,7 C 14,5 C 6,4 km/h (2 Bft) 92,59 %
09.05.2016 22:48 14,6 C 73 % 1012,7 hPa 0,0 l/m 5,8 km/h (2 Bft) NO 53 0 min 0,000 mm 0,0 UV-I 0 W/m 9,8 C 14,6 C 8,0 km/h (2 Bft) 95,65 %
09.05.2016 22:49 14,6 C 72 % 1012,7 hPa 0,0 l/m 5,5 km/h (1 Bft) NO 53 0 min 0,000 mm 0,0 UV-I 0 W/m 9,6 C 14,6 C 8,0 km/h (2 Bft) 100,00 %
09.05.2016 22:50 14,6 C 72 % 1012,7 hPa 0,0 l/m 7,6 km/h (2 Bft) O-NO 66 0 min 0,000 mm 0,0 UV-I 0 W/m 9,6 C 13,9 C 9,7 km/h (2 Bft) 96,15 %
09.05.2016 22:51 14,6 C 72 % 1012,7 hPa 0,0 l/m 8,0 km/h (2 Bft) O-NO 65 0 min 0,000 mm 0,0 UV-I 0 W/m 9,6 C 13,7 C 12,9 km/h (3 Bft) 100,00 %
09.05.2016 22:52 14,6 C 72 % 1012,8 hPa 0,0 l/m 7,1 km/h (2 Bft) O-NO 63 0 min 0,000 mm 0,0 UV-I 0 W/m 9,6 C 14,2 C 9,7 km/h (2 Bft) 96,55 %
09.05.2016 22:53 14,6 C 72 % 1012,8 hPa 0,0 l/m 8,4 km/h (2 Bft) NO 55 0 min 0,000 mm 0,0 UV-I 0 W/m 9,6 C 13,5 C 12,9 km/h (3 Bft) 95,83 %
09.05.2016 22:54 14,6 C 72 % 1012,8 hPa 0,0 l/m 8,0 km/h (2 Bft) O-NO 61 0 min 0,000 mm 0,0 UV-I 0 W/m 9,6 C 13,7 C 11,3 km/h (2 Bft) 100,00 %
09.05.2016 22:55 14,6 C 72 % 1012,8 hPa 0,0 l/m 7,8 km/h (2 Bft) O 82 0 min 0,000 mm 0,0 UV-I 0 W/m 9,6 C 13,8 C 9,7 km/h (2 Bft) 93,33 %
09.05.2016 22:56 14,6 C 72 % 1012,8 hPa 0,0 l/m 9,1 km/h (2 Bft) O 89 0 min 0,000 mm 0,0 UV-I 0 W/m 9,6 C 13,1 C 12,9 km/h (3 Bft) 100,00 %
09.05.2016 22:57 14,6 C 72 % 1012,8 hPa 0,0 l/m 10,0 km/h (2 Bft) O-NO 62 0 min 0,000 mm 0,0 UV-I 0 W/m 9,6 C 12,7 C 14,5 km/h (3 Bft) 96,55 %
09.05.2016 22:58 14,7 C 72 % 1012,8 hPa 0,0 l/m 10,1 km/h (2 Bft) NO 56 0 min 0,000 mm 0,0 UV-I 0 W/m 9,7 C 12,7 C 14,5 km/h (3 Bft) 100,00 %
09.05.2016 22:59 14,7 C 72 % 1012,8 hPa 0,0 l/m 9,9 km/h (2 Bft) O-NO 62 0 min 0,000 mm 0,0 UV-I 0 W/m 9,7 C 12,8 C 14,5 km/h (3 Bft) 96,15 %
09.05.2016 23:00 14,7 C 72 % 1012,8 hPa 0,0 l/m 10,1 km/h (2 Bft) O-NO 64 0 min 0,000 mm 0,0 UV-I 0 W/m 9,7 C 12,7 C 16,1 km/h (3 Bft) 100,00 %
09.05.2016 23:01 14,7 C 72 % 1012,8 hPa 0,0 l/m 9,3 km/h (2 Bft) O-NO 58 0 min 0,025 mm 0,0 UV-I 0 W/m 9,7 C 13,1 C 12,9 km/h (3 Bft) 95,65 %
09.05.2016 23:02 14,7 C 72 % 1012,8 hPa 0,0 l/m 10,7 km/h (2 Bft) O-NO 59 0 min 0,000 mm 0,0 UV-I 0 W/m 9,7 C 12,5 C 14,5 km/h (3 Bft) 92,59 %
09.05.2016 23:03 14,8 C 72 % 1012,8 hPa 0,0 l/m 10,6 km/h (2 Bft) NO 50 0 min 0,000 mm 0,0 UV-I 0 W/m 9,8 C 12,6 C 16,1 km/h (3 Bft) 100,00 %
09.05.2016 23:04 14,8 C 72 % 1012,8 hPa 0,0 l/m 10,0 km/h (2 Bft) NO 49 0 min 0,000 mm 0,0 UV-I 0 W/m 9,8 C 12,9 C 14,5 km/h (3 Bft) 95,83 %
09.05.2016 23:05 14,8 C 72 % 1012,8 hPa 0,0 l/m 8,4 km/h (2 Bft) NO 55 0 min 0,000 mm 0,0 UV-I 0 W/m 9,8 C 13,7 C 9,7 km/h (2 Bft) 100,00 %
09.05.2016 23:06 14,8 C 72 % 1012,8 hPa 0,0 l/m 8,9 km/h (2 Bft) NO 56 0 min 0,000 mm 0,0 UV-I 0 W/m 9,8 C 13,4 C 11,3 km/h (2 Bft) 95,83 %
09.05.2016 23:07 14,8 C 72 % 1012,8 hPa 0,0 l/m 8,6 km/h (2 Bft) O-NO 59 0 min 0,000 mm 0,0 UV-I 0 W/m 9,8 C 13,6 C 14,5 km/h (3 Bft) 100,00 %
09.05.2016 23:08 14,8 C 72 % 1012,8 hPa 0,0 l/m 8,8 km/h (2 Bft) O-NO 65 0 min 0,000 mm 0,0 UV-I 0 W/m 9,8 C 13,5 C 11,3 km/h (2 Bft) 93,33 %
09.05.2016 23:09 14,8 C 72 % 1012,8 hPa 0,0 l/m 10,1 km/h (2 Bft) O-NO 69 0 min 0,000 mm 0,0 UV-I 0 W/m 9,8 C 12,9 C 14,5 km/h (3 Bft) 100,00 %
09.05.2016 23:10 14,8 C 72 % 1012,8 hPa 0,0 l/m 8,9 km/h (2 Bft) NO 53 0 min 0,000 mm 0,0 UV-I 0 W/m 9,8 C 13,4 C 12,9 km/h (3 Bft) 96,30 %
09.05.2016 23:11 14,8 C 72 % 1012,8 hPa 0,0 l/m 6,1 km/h (2 Bft) O-NO 58 0 min 0,000 mm 0,0 UV-I 0 W/m 9,8 C 14,8 C 9,7 km/h (2 Bft) 98,66 %
09.05.2016 23:12 14,7 C 72 % 1012,8 hPa 0,0 l/m 6,1 km/h (2 Bft) NO 55 0 min 0,000 mm 0,0 UV-I 0 W/m 9,7 C 14,7 C 9,7 km/h (2 Bft) 97,56 %
09.05.2016 23:13 14,7 C 72 % 1012,9 hPa 0,0 l/m 8,0 km/h (2 Bft) O-NO 70 0 min 0,000 mm 0,0 UV-I 0 W/m 9,7 C 13,8 C 11,3 km/h (2 Bft) 96,15 %
09.05.2016 23:14 14,7 C 72 % 1012,8 hPa 0,0 l/m 8,0 km/h (2 Bft) NO 56 0 min 0,000 mm 0,0 UV-I 0 W/m 9,7 C 13,8 C 12,9 km/h (3 Bft) 100,00 %
09.05.2016 23:15 14,7 C 72 % 1012,8 hPa 0,0 l/m 6,8 km/h (2 Bft) NO 50 0 min 0,000 mm 0,0 UV-I 0 W/m 9,7 C 14,5 C 9,7 km/h (2 Bft) 95,65 %
09.05.2016 23:16 14,7 C 73 % 1012,8 hPa 0,0 l/m 7,8 km/h (2 Bft) O-NO 71 0 min 0,000 mm 0,0 UV-I 0 W/m 9,9 C 13,9 C 12,9 km/h (3 Bft) 100,00 %
09.05.2016 23:17 14,6 C 73 % 1012,8 hPa 0,0 l/m 7,2 km/h (2 Bft) NO 51 0 min 0,000 mm 0,0 UV-I 0 W/m 9,8 C 14,1 C 9,7 km/h (2 Bft) 95,65 %
09.05.2016 23:18 14,6 C 73 % 1012,8 hPa 0,0 l/m 6,9 km/h (2 Bft) NO 54 0 min 0,000 mm 0,0 UV-I 0 W/m 9,8 C 14,3 C 9,7 km/h (2 Bft) 95,83 %
09.05.2016 23:19 14,6 C 73 % 1012,8 hPa 0,0 l/m 8,3 km/h (2 Bft) NO 44 0 min 0,000 mm 0,0 UV-I 0 W/m 9,8 C 13,5 C 11,3 km/h (2 Bft) 100,00 %
09.05.2016 23:20 14,6 C 73 % 1012,8 hPa 0,0 l/m 7,6 km/h (2 Bft) O-NO 61 0 min 0,000 mm 0,0 UV-I 0 W/m 9,8 C 13,9 C 9,7 km/h (2 Bft) 95,83 %
09.05.2016 23:21 14,6 C 73 % 1012,8 hPa 0,0 l/m 7,2 km/h (2 Bft) O-NO 61 0 min 0,000 mm 0,0 UV-I 0 W/m 9,8 C 14,1 C 9,7 km/h (2 Bft) 100,00 %
09.05.2016 23:22 14,6 C 73 % 1012,8 hPa 0,0 l/m 8,1 km/h (2 Bft) NO 53 0 min 0,000 mm 0,0 UV-I 0 W/m 9,8 C 13,6 C 11,3 km/h (2 Bft) 100,00 %
09.05.2016 23:23 14,5 C 73 % 1012,8 hPa 0,0 l/m 8,4 km/h (2 Bft) NO 50 0 min 0,000 mm 0,0 UV-I 0 W/m 9,7 C 13,4 C 14,5 km/h (3 Bft) 100,00 %
09.05.2016 23:24 14,5 C 73 % 1012,8 hPa 0,0 l/m 8,8 km/h (2 Bft) O-NO 58 0 min 0,000 mm 0,0 UV-I 0 W/m 9,7 C 13,2 C 11,3 km/h (2 Bft) 100,00 %
09.05.2016 23:25 14,5 C 74 % 1012,8 hPa 0,0 l/m 8,9 km/h (2 Bft) O-NO 59 0 min 0,000 mm 0,0 UV-I 0 W/m 9,9 C 13,1 C 14,5 km/h (3 Bft) 100,00 %
09.05.2016 23:26 14,5 C 74 % 1012,8 hPa 0,0 l/m 9,3 km/h (2 Bft) NO 54 0 min 0,000 mm 0,0 UV-I 0 W/m 9,9 C 12,9 C 12,9 km/h (3 Bft) 100,00 %
09.05.2016 23:27 14,5 C 74 % 1012,8 hPa 0,0 l/m 7,7 km/h (2 Bft) O-NO 59 0 min 0,000 mm 0,0 UV-I 0 W/m 9,9 C 13,7 C 11,3 km/h (2 Bft) 100,00 %
09.05.2016 23:28 14,4 C 74 % 1012,8 hPa 0,0 l/m 10,4 km/h (2 Bft) O-NO 65 0 min 0,000 mm 0,0 UV-I 0 W/m 9,8 C 12,3 C 14,5 km/h (3 Bft) 96,55 %
09.05.2016 23:29 14,4 C 74 % 1012,8 hPa 0,0 l/m 6,9 km/h (2 Bft) O-NO 65 0 min 0,000 mm 0,0 UV-I 0 W/m 9,8 C 14,1 C 9,7 km/h (2 Bft) 100,00 %
09.05.2016 23:30 14,4 C 74 % 1012,8 hPa 0,0 l/m 9,2 km/h (2 Bft) O-NO 63 0 min 0,000 mm 0,0 UV-I 0 W/m 9,8 C 12,8 C 12,9 km/h (3 Bft) 100,00 %
09.05.2016 23:31 14,4 C 74 % 1012,8 hPa 0,0 l/m 8,6 km/h (2 Bft) O-NO 62 0 min 0,000 mm 0,0 UV-I 0 W/m 9,8 C 13,1 C 14,5 km/h (3 Bft) 100,00 %
09.05.2016 23:32 14,3 C 74 % 1012,8 hPa 0,0 l/m 8,0 km/h (2 Bft) NO 46 0 min 0,000 mm 0,0 UV-I 0 W/m 9,7 C 13,4 C 9,7 km/h (2 Bft) 100,00 %
09.05.2016 23:33 14,3 C 74 % 1012,8 hPa 0,0 l/m 7,9 km/h (2 Bft) O-NO 66 0 min 0,000 mm 0,0 UV-I 0 W/m 9,7 C 13,4 C 12,9 km/h (3 Bft) 100,00 %
09.05.2016 23:34 14,3 C 74 % 1012,8 hPa 0,0 l/m 8,1 km/h (2 Bft) O-NO 70 0 min 0,000 mm 0,0 UV-I 0 W/m 9,7 C 13,3 C 11,3 km/h (2 Bft) 100,00 %
09.05.2016 23:35 14,3 C 75 % 1012,7 hPa 0,0 l/m 8,8 km/h (2 Bft) O-NO 63 0 min 0,000 mm 0,0 UV-I 0 W/m 9,9 C 12,9 C 12,9 km/h (3 Bft) 100,00 %
09.05.2016 23:36 14,3 C 75 % 1012,7 hPa 0,0 l/m 6,6 km/h (2 Bft) NO 51 0 min 0,000 mm 0,0 UV-I 0 W/m 9,9 C 14,2 C 9,7 km/h (2 Bft) 93,33 %
09.05.2016 23:37 14,3 C 75 % 1012,8 hPa 0,0 l/m 8,6 km/h (2 Bft) O-NO 63 0 min 0,000 mm 0,0 UV-I 0 W/m 9,9 C 13,0 C 9,7 km/h (2 Bft) 91,67 %
09.05.2016 23:38 14,3 C 75 % 1012,7 hPa 0,0 l/m 9,5 km/h (2 Bft) NO 51 0 min 0,000 mm 0,0 UV-I 0 W/m 9,9 C 12,6 C 12,9 km/h (3 Bft) 100,00 %
09.05.2016 23:39 14,2 C 75 % 1012,7 hPa 0,0 l/m 9,2 km/h (2 Bft) NO 48 0 min 0,000 mm 0,0 UV-I 0 W/m 9,8 C 12,6 C 11,3 km/h (2 Bft) 100,00 %
09.05.2016 23:40 14,2 C 75 % 1012,7 hPa 0,0 l/m 9,3 km/h (2 Bft) O-NO 57 0 min 0,000 mm 0,0 UV-I 0 W/m 9,8 C 12,6 C 11,3 km/h (2 Bft) 100,00 %
09.05.2016 23:41 14,2 C 75 % 1012,7 hPa 0,0 l/m 8,9 km/h (2 Bft) O-NO 66 0 min 0,000 mm 0,0 UV-I 0 W/m 9,8 C 12,8 C 14,5 km/h (3 Bft) 100,00 %
09.05.2016 23:42 14,2 C 75 % 1012,7 hPa 0,0 l/m 10,1 km/h (2 Bft) NO 53 0 min 0,000 mm 0,0 UV-I 0 W/m 9,8 C 12,2 C 16,1 km/h (3 Bft) 100,00 %
09.05.2016 23:43 14,2 C 75 % 1012,7 hPa 0,0 l/m 9,3 km/h (2 Bft) O-NO 62 0 min 0,000 mm 0,0 UV-I 0 W/m 9,8 C 12,6 C 14,5 km/h (3 Bft) 100,00 %
09.05.2016 23:44 14,2 C 75 % 1012,7 hPa 0,0 l/m 9,7 km/h (2 Bft) NO 55 0 min 0,000 mm 0,0 UV-I 0 W/m 9,8 C 12,4 C 14,5 km/h (3 Bft) 100,00 %
09.05.2016 23:45 14,2 C 75 % 1012,7 hPa 0,0 l/m 11,4 km/h (2 Bft) NO 55 0 min 0,000 mm 0,0 UV-I 0 W/m 9,8 C 11,6 C 14,5 km/h (3 Bft) 100,00 %
09.05.2016 23:46 14,2 C 75 % 1012,7 hPa 0,0 l/m 8,4 km/h (2 Bft) NO 49 0 min 0,000 mm 0,0 UV-I 0 W/m 9,8 C 13,0 C 11,3 km/h (2 Bft) 100,00 %
09.05.2016 23:47 14,2 C 75 % 1012,7 hPa 0,0 l/m 11,0 km/h (2 Bft) NO 55 0 min 0,000 mm 0,0 UV-I 0 W/m 9,8 C 11,8 C 14,5 km/h (3 Bft) 95,65 %
09.05.2016 23:48 14,2 C 75 % 1012,7 hPa 0,0 l/m 8,9 km/h (2 Bft) O-NO 65 0 min 0,000 mm 0,0 UV-I 0 W/m 9,8 C 12,8 C 14,5 km/h (3 Bft) 100,00 %
09.05.2016 23:49 14,2 C 75 % 1012,7 hPa 0,0 l/m 10,8 km/h (2 Bft) NO 51 0 min 0,000 mm 0,0 UV-I 0 W/m 9,8 C 11,9 C 14,5 km/h (3 Bft) 100,00 %
09.05.2016 23:50 14,2 C 75 % 1012,7 hPa 0,0 l/m 10,6 km/h (2 Bft) O-NO 63 0 min 0,000 mm 0,0 UV-I 0 W/m 9,8 C 12,0 C 16,1 km/h (3 Bft) 100,00 %
09.05.2016 23:51 14,2 C 75 % 1012,7 hPa 0,0 l/m 13,7 km/h (3 Bft) NO 42 0 min 0,000 mm 0,0 UV-I 0 W/m 9,8 C 10,7 C 19,3 km/h (3 Bft) 98,66 %
09.05.2016 23:52 14,2 C 75 % 1012,7 hPa 0,0 l/m 13,9 km/h (3 Bft) NO 47 0 min 0,000 mm 0,0 UV-I 0 W/m 9,8 C 10,6 C 17,7 km/h (3 Bft) 100,00 %
09.05.2016 23:53 14,2 C 75 % 1012,7 hPa 0,0 l/m 8,2 km/h (2 Bft) O-NO 71 0 min 0,000 mm 0,0 UV-I 0 W/m 9,8 C 13,2 C 11,3 km/h (2 Bft) 100,00 %
09.05.2016 23:54 14,2 C 76 % 1012,7 hPa 0,0 l/m 7,9 km/h (2 Bft) NO 39 0 min 0,000 mm 0,0 UV-I 0 W/m 10,0 C 13,3 C 12,9 km/h (3 Bft) 96,30 %
09.05.2016 23:55 14,2 C 76 % 1012,7 hPa 0,0 l/m 8,4 km/h (2 Bft) O-NO 66 0 min 0,000 mm 0,0 UV-I 0 W/m 10,0 C 13,0 C 12,9 km/h (3 Bft) 100,00 %
09.05.2016 23:56 14,2 C 76 % 1012,7 hPa 0,0 l/m 11,2 km/h (2 Bft) O 80 0 min 0,000 mm 0,0 UV-I 0 W/m 10,0 C 11,7 C 16,1 km/h (3 Bft) 96,15 %
09.05.2016 23:57 14,2 C 76 % 1012,7 hPa 0,0 l/m 10,9 km/h (2 Bft) NO 40 0 min 0,000 mm 0,0 UV-I 0 W/m 10,0 C 11,8 C 16,1 km/h (3 Bft) 100,00 %
09.05.2016 23:58 14,2 C 76 % 1012,7 hPa 0,0 l/m 9,8 km/h (2 Bft) NO 53 0 min 0,000 mm 0,0 UV-I 0 W/m 10,0 C 12,3 C 14,5 km/h (3 Bft) 100,00 %
09.05.2016 23:59 14,2 C 76 % 1012,7 hPa 0,0 l/m 8,3 km/h (2 Bft) NO 40 0 min 0,000 mm 0,0 UV-I 0 W/m 10,0 C 13,1 C 11,3 km/h (2 Bft) 100,00 %
_ Min-Zeit 05:09 17:42 18:17 - 05:19 - - - - - - 05:09 07:02 05:08 01:48
Minimum _ 8,7 C 43 % 1011,8 hPa - 1,4 km/h (1 Bft) - - - - - - 6,7 C 5,7 C 3,2 km/h (1 Bft) 81,82 %
_ Max-Zeit 16:37 05:11 10:16 00:00 18:16 - - 09:02 14:00 12:38 13:00 14:00 16:38 18:16 00:02
Maximum _ 22,8 C 88 % 1013,7 hPa 0,0 l/m 31,9 km/h
O-NO (5 Bft)
- - 2 min 0,635 mm 5,3 UV-I 860 W/m 12,6 C 21,1 C 43,5 km/h
NO (6 Bft)
100,00 %
Durchschnitt _ 16,2 C 65 % 1012,8 hPa #0,0 l/m 14,1 km/h (3 Bft) O-NO - #12:31 h #5,918 mm 3,0 UV-I 475 W/m 9,2 C 13,6 C 19,2 km/h (3 Bft) 98,68 %